[[{"header":{"parameterUnit":"m.s-1","parameterCategory":1,"la1":31.0,"la2":29.5877,"lo1":-88.7671,"lo2":-86.6584,"dy":0.0162,"dx":0.0185,"nx":115,"ny":88,"refTime":"2025-12-17T00:00:00:Z","depth":0,"parameterNumber":2,"parameterNumberName":"U-component_of_WINDS"},"data":[0.0,0.0,0.0,0.0,0.0,0.0,0.0,0.0,0.0,0.0,0.0,0.0,0.0,0.0,0.0,0.0,0.0,0.0,0.0,0.0,0.0,0.0,0.0,0.0,0.0,0.0,0.0,0.0,0.0,0.0,0.0,0.0,0.0,0.0,0.0,0.0,0.0,0.0,0.0,0.0,0.0,0.0,0.0,0.0,0.0,0.0,0.0,0.0,0.0,0.0,0.0,0.0,0.0,0.0,0.0,0.0,0.0,0.0,0.0,0.0,0.0,0.0,0.0,0.0,0.0,0.0,0.0,0.0,0.0,0.0,0.0,0.0,0.0,0.0,0.0,0.0,0.0,0.0,0.0,0.0,0.0,0.0,0.0,0.0,0.0,0.0,0.0,0.0,0.0,0.0,0.0,0.0,0.0,0.0,0.0,0.0,0.0,0.0,0.0,0.0,0.0,0.0,0.0,0.0,0.0,0.0,0.0,0.0,0.0,0.0,0.0,0.0,0.0,0.0,0.0,0.0,0.0,0.0,0.0,0.0,0.0,0.0,0.0,0.0,0.0,0.0,0.0,0.0,0.0,0.0,0.0,0.0,0.0,0.0,0.0,0.0,0.0,0.0,0.0,0.0,0.0,0.0,0.0,0.0,0.0,0.0,0.0,0.0,0.0,0.0,0.0,0.0,0.0,0.0,0.0,0.0,0.0,0.0,0.0,0.0,0.0,0.0,0.0,0.0,0.0,0.0,0.0,0.0,0.0,0.0,0.0,0.0,0.0,0.0,0.0,0.0,0.0,0.0,0.0,0.0,0.0,0.0,0.0,0.0,0.0,0.0,0.0,0.0,0.0,0.0,0.0,0.0,0.0,0.0,0.0,0.0,0.0,0.0,0.0,0.0,0.0,0.0,0.0,0.0,0.0,0.0,0.0,0.0,0.0,0.0,0.0,0.0,0.0,0.0,0.0,0.0,0.0,0.0,0.0,0.0,0.0,0.0,0.0,0.0,0.0,0.0,0.0,0.0,0.0,0.0,0.0,0.0,0.0,0.0,0.0,0.0,0.0,0.0,0.0,0.0,0.0,0.0,0.0,0.0,0.0,0.0,0.0,0.0,0.0,0.0,0.0,0.0,0.0,0.0,0.0,0.0,0.0,0.0,0.0,0.0,0.0,0.0,0.0,0.0,0.0,0.0,0.0,0.0,0.0,0.0,0.0,0.0,0.0,0.0,0.0,0.0,0.0,0.0,0.0,0.0,0.0,0.0,0.0,0.0,0.0,0.0,0.0,0.0,0.0,0.0,0.0,0.0,0.0,0.0,0.0,0.0,0.0,0.0,0.0,0.0,0.0,0.0,0.0,0.0,0.0,0.0,0.0,0.0,0.0,0.0,0.0,0.0,0.0,0.0,0.0,0.0,0.0,0.0,0.0,0.0,0.0,0.0,0.0,0.0,0.0,0.0,0.0,0.0,0.0,0.0,0.0,0.0,0.0,0.0,0.0,0.0,0.0,0.0,0.0,0.0,0.0,0.0,0.0,0.0,0.0,0.0,0.0,0.0,0.0,0.0,0.0,0.0,0.0,0.0,0.0,0.0,0.0,0.0,0.0,0.0,0.0,0.0,0.0,0.0,0.0,0.0,0.0,0.0,0.0,0.0,0.0,0.0,0.0,0.0,0.0,0.0,0.0,0.0,0.0,0.0,0.0,0.0,0.0,0.0,0.0,0.0,0.0,0.0,0.0,0.0,0.0,0.0,0.0,0.0,0.0,0.0,0.0,0.0,0.0,0.0,0.0,0.0,0.0,0.0,0.0,0.0,0.0,0.0,0.0,0.0,0.0,0.0,0.0,0.0,0.0,0.0,0.0,0.0,0.0,0.0,0.0,0.0,0.0,0.0,0.0,0.0,0.0,0.0,0.0,0.0,0.0,0.0,0.0,0.0,0.0,0.0,0.0,0.0,0.0,0.0,0.0,0.0,0.0,0.0,0.0,0.0,0.0,0.0,0.0,0.0,0.0,0.0,0.0,0.0,0.0,0.0,0.0,0.0,0.0,0.0,0.0,0.0,0.0,0.0,0.0,0.0,0.0,0.0,0.0,0.0,0.0,0.0,0.0,0.0,0.0,0.0,0.0,0.0,0.0,0.0,0.0,0.0,0.0,0.0,0.0,0.0,0.0,0.0,0.0,0.0,0.0,0.0,0.0,0.0,0.0,0.0,0.0,0.0,0.0,0.0,0.0,0.0,0.0,0.0,0.0,0.0,0.0,0.0,0.0,0.0,0.0,0.0,0.0,0.0,0.0,0.0,0.0,0.0,0.0,0.0,0.0,0.0,0.0,0.0,0.0,0.0,0.0,0.0,0.0,0.0,0.0,0.0,0.0,0.0,0.0,0.0,0.0,0.0,0.0,0.0,0.0,0.0,0.0,0.0,0.0,0.0,0.0,0.0,0.0,0.0,0.0,0.0,0.0,0.0,0.0,0.0,0.0,0.0,0.0,0.0,0.0,0.0,0.0,0.0,0.0,0.0,0.0,0.0,0.0,0.0,0.0,0.0,0.0,0.0,0.0,0.0,0.0,0.0,0.0,0.0,0.0,0.0,0.0,0.0,0.0,0.0,0.0,0.0,0.0,0.0,0.0,0.0,0.0,0.0,0.0,0.0,0.0,0.0,0.0,0.0,0.0,0.0,0.0,0.0,0.0,0.0,0.0,0.0,0.0,0.0,0.0,0.0,0.0,0.0,0.0,0.0,0.0,0.0,0.0,0.0,0.0,0.0,0.0,0.0,0.0,0.0,0.0,0.0,0.0,0.0,0.0,0.0,0.0,0.0,0.0,0.0,0.0,0.0,0.0,0.0,0.0,0.0,0.0,0.0,0.0,0.0,0.0,0.0,0.0,0.0,0.0,0.0,0.0,0.0,0.0,0.0,0.0,0.0,0.0,0.0,0.0,0.0,0.0,0.0,0.0,0.0,0.0,0.0,0.0,0.0,0.0,0.0,0.0,0.0,0.0,0.0,0.0,0.0,0.0,0.0,0.0,0.0,0.0,0.0,0.0,0.0,0.0,0.0,0.0,0.0,0.0,0.0,0.0,0.0,0.0,0.0,0.0,0.0,0.0,0.0,0.0,0.0,0.0,0.0,0.0,0.0,0.0,0.0,0.0,0.0,0.0,0.0,0.0,0.0,0.0,0.0,0.0,0.0,0.0,0.0,0.0,0.0,0.0,0.0,0.0,0.0,0.0,0.0,0.0,0.0,0.0,0.0,0.0,0.0,0.0,0.0,0.0,0.0,0.0,0.0,0.0,0.0,0.0,0.0,0.0,0.0,0.0,0.0,0.0,0.0,0.0,0.0,0.0,0.0,0.0,0.0,0.0,0.0,0.0,0.0,0.0,0.0,0.0,0.0,0.0,0.0,0.0,0.0,0.0,0.0,0.0,0.0,0.0,0.0,0.0,0.0,0.0,0.0,0.0,0.0,0.0,0.0,0.0,0.0,0.0,0.0,0.0,0.0,0.0,0.0,0.0,0.0,0.0,0.0,0.0,0.0,0.0,0.0,0.0,0.0,0.0,0.0,0.0,0.0,0.0,0.0,0.0,0.0,0.0,0.0,0.0,0.0,0.0,0.0,0.0,0.0,0.0,0.0,0.0,0.0,0.0,0.0,0.0,0.0,0.0,0.0,0.0,0.0,0.0,0.0,0.0,0.0,0.0,0.0,0.0,0.0,0.0,0.0,0.0,0.0,0.0,0.0,0.0,0.0,0.0,0.0,0.0,0.0,0.0,0.0,0.0,0.0,0.0,0.0,0.0,0.0,0.0,0.0,0.0,0.0,0.0,0.0,0.0,0.0,0.0,0.0,0.0,0.0,0.0,0.0,0.0,0.0,0.0,0.0,0.0,0.0,0.0,0.0,0.0,0.0,0.0,0.0,0.0,0.0,0.0,0.0,0.0,0.0,0.0,0.0,0.0,0.0,0.0,0.0,0.0,0.0,0.0,0.0,0.0,0.0,0.0,0.0,0.0,0.0,0.0,0.0,0.0,0.0,0.0,0.0,0.0,0.0,0.0,0.0,0.0,0.0,0.0,0.0,0.0,0.0,0.0,0.0,0.0,0.0,0.0,0.0,0.0,0.0,0.0,0.0,0.0,0.0,0.0,0.0,0.0,0.0,0.0,0.0,0.0,0.0,0.0,0.0,0.0,0.0,0.0,0.0,0.0,0.0,0.0,0.0,0.0,0.0,0.0,0.0,0.0,0.0,0.0,0.0,0.0,0.0,0.0,0.0,0.0,0.0,0.0,0.0,-0.1194,0.0,0.0,0.0,0.0,0.0,0.0,0.0,0.0,0.0,0.0,0.0,0.0,0.0,0.0,0.0,0.0,0.0,0.0,0.0,0.0,0.0,0.0,0.0,0.0,0.0,0.0,0.0,0.0,0.0,0.0,0.0,0.0,0.0,0.0,0.0,0.0,0.0,0.0,0.0,0.0,0.0,0.0,0.0,0.0,0.0,0.0,0.0,0.0,0.0,0.0,0.0,0.0,0.0,0.0,0.0,0.0,0.0,0.0,0.0,0.0,0.0,0.0,0.0,0.0,0.0,0.0,0.0,0.0,0.0,0.0,0.0,0.0,0.0,0.0,0.0,0.0,0.0,0.0,0.0,0.0,0.0,0.0,0.0,0.0,0.0,0.0,0.0,0.0,0.0,0.0,0.0,0.0,0.0,0.0,0.0,0.0,0.0,0.0,0.0,0.0,0.0,0.0,0.0,0.0,0.0,0.0,0.0,0.0,0.0,0.0,-0.1274,-0.1183,-0.1127,-0.11,-0.11,0.0,0.0,0.0,0.0,0.0,0.0,0.0,0.0,0.0,0.0,0.0,0.0,0.0,0.0,0.0,0.0,0.0,0.0,0.0,0.0,0.0,0.0,0.0,0.0,0.0,0.0,0.0,0.0,0.0,0.0,0.0,0.0,0.0,0.0,0.0,0.0,0.0,0.0,0.0,0.0,0.0,0.0,0.0,0.0,0.0,0.0,0.0,0.0,0.0,0.0,0.0,0.0,0.0,0.0,0.0,0.0,0.0,0.0,0.0,0.0,0.0,0.0,0.0,0.0,0.0,0.0,0.0,0.0,0.0,0.0,0.0,0.0,0.0,0.0,0.0,0.0,0.0,0.0,0.0,0.0,0.0,0.0,0.0,0.0,0.0,0.0,0.0,0.0,0.0,0.0,0.0,0.0,0.0,0.0,0.0,0.0,0.0,0.0,0.0,0.0,0.0,0.0,0.0,0.0,0.0,0.0,0.0,0.0,0.0,0.0,0.0,0.0,-0.1141,-0.1147,-0.1141,0.0,0.0,0.0,0.0,0.0,0.0,0.0,0.0,0.0,0.0,0.0,0.0,0.0,0.0,0.0,0.0,0.0,0.0,0.0,0.0,0.0,0.0,0.0,0.0,0.0,0.0,0.0,0.0,0.0,0.0,0.0,0.0,0.0,0.0,0.0,0.0,0.0,0.0,0.0,0.0,0.0,0.0,0.0,0.0,0.0,0.0,0.0,0.0,0.0,0.0,0.0,0.0,0.0,0.0,0.0,0.0,0.0,0.0,0.0,0.0,0.0,0.0,0.0,0.0,0.0,0.0,0.0,0.0,0.0,0.0,0.0,0.0,0.0,0.0,0.0,0.0,0.0,0.0,0.0,0.0,0.0,0.0,0.0,0.0,0.0,0.0,0.0,0.0,0.0,0.0,0.0,0.0,0.0,0.0,0.0,0.0,0.0,0.0,0.0,0.0,0.0,0.0,0.0,0.0,0.0,0.0,0.0,0.0,0.0,0.0,-0.1181,-0.1267,-0.1283,0.0,-0.128,0.0,0.0,0.0,0.0,0.0,0.0,0.0,0.0,0.0,0.0,0.0,0.0,0.0,0.0,0.0,0.0,0.0,0.0,0.0,0.0,0.0,0.0,0.0,0.0,0.0,0.0,0.0,0.0,0.0,0.0,0.0,0.0,0.0,0.0,0.0,0.0,0.0,0.0,0.0,0.0,0.0,0.0,0.0,0.0,0.0,0.0,0.0,0.0,0.0,0.0,0.0,0.0,0.0,0.0,0.0,0.0,0.0,0.0,0.0,0.0,0.0,0.0,0.0,0.0,0.0,0.0,0.0,0.0,0.0,0.0,0.0,0.0,0.0,0.0,0.0,0.0,0.0,0.0,0.0,0.0,0.0,0.0,0.0,0.0,0.0,0.0,0.0,0.0,0.0,0.0,0.0,0.0,0.0,0.0,0.0,0.0,0.0,0.0,0.0,0.0,0.0,0.0,0.0,0.0,0.0,0.0,0.0,0.0,0.0,0.0,-0.1016,-0.1006,-0.0993,-0.1,0.0,0.0,0.0,0.0,0.0,0.0,0.0,0.0,0.0,0.0,0.0,0.0,0.0,0.0,0.0,0.0,0.0,0.0,0.0,0.0,0.0,0.0,0.0,0.0,0.0,0.0,0.0,0.0,0.0,0.0,0.0,0.0,0.0,0.0,0.0,0.0,0.0,0.0,0.0,0.0,0.0,0.0,0.0,0.0,0.0,0.0,0.0,0.0,0.0,0.0,0.0,0.0,0.0,0.0,0.0,0.0,0.0,0.0,0.0,0.0,0.0,0.0,0.0,0.0,0.0,0.0,0.0,0.0,0.0,0.0,0.0,0.0,0.0,0.0,0.0,0.0,0.0,0.0,0.0,0.0,0.0,0.0,0.0,0.0,0.0,0.0,0.0,0.0,0.0,0.0,0.0,0.0,0.0,0.0,0.0,0.0,0.0,0.0,0.0,0.0,0.0,0.0,0.0,0.0,0.0,0.0,0.0,0.0,0.0,0.0,-0.0979,-0.0924,-0.0856,-0.0861,-0.0853,-0.0856,0.0,0.0,0.0,0.0,0.0,0.0,0.0,0.0,0.0,0.0,0.0,0.0,0.0,0.0,0.0,0.0,0.0,0.0,0.0,0.0,0.0,0.0,0.0,0.0,0.0,0.0,0.0,0.0,0.0,0.0,0.0,0.0,0.0,0.0,0.0,0.0,0.0,0.0,0.0,0.0,0.0,0.0,0.0,0.0,0.0,0.0,0.0,0.0,0.0,0.0,0.0,0.0,0.0,0.0,0.0,0.0,0.0,0.0,0.0,0.0,0.0,0.0,0.0,0.0,0.0,0.0,0.0,0.0,0.0,0.0,0.0,0.0,0.0,0.0,0.0,0.0,0.0,0.0,0.0,0.0,0.0,0.0,0.0,0.0,0.0,0.0,0.0,0.0,0.0,0.0,0.0,0.0,0.0,0.0,0.0,0.0,0.0,0.0,0.0,0.0,0.0,0.0,0.0,0.0,0.0,0.0,0.0,0.0,0.0,-0.0956,-0.0856,-0.0964,-0.0978,-0.0995,0.0,0.0,0.0,0.0,0.0,0.0,0.0,0.0,0.0,0.0,0.0,0.0,0.0,0.0,0.0,0.0,0.0,0.0,0.0,0.0,0.0,0.0,0.0,0.0,0.0,0.0,0.0,0.0,0.0,0.0,0.0,0.0,0.0,0.0,0.0,0.0,0.0,0.0,0.0,0.0,0.0,0.0,0.0,0.0,0.0,0.0,0.0,0.0,0.0,0.0,0.0,0.0,0.0,0.0,0.0,0.0,0.0,0.0,0.0,0.0,0.0,0.0,0.0,0.0,0.0,0.0,0.0,0.0,0.0,0.0,0.0,0.0,0.0,0.0,0.0,0.0,0.0,0.0,0.0,0.0,0.0,0.0,0.0,0.0,0.0,0.0,0.0,0.0,0.0,0.0,0.0,0.0,0.0,0.0,0.0,0.0,0.0,0.0,0.0,0.0,0.0,0.0,0.0,0.0,0.0,0.0,0.0,0.0,0.0,-0.0776,-0.0616,-0.0497,-0.0427,-0.0546,-0.0529,0.0,0.0,0.0,0.0,0.0,0.0,0.0,0.0,0.0,0.0,0.0,0.0,0.0,0.0,0.0,0.0,0.0,0.0,0.0,0.0,0.0,0.0,0.0,0.0,0.0,0.0,0.0,0.0,0.0,0.0,0.0,0.0,0.0,0.0,0.0,0.0,0.0,0.0,0.0,0.0,0.0,0.0,0.0,0.0,0.0,0.0,0.0,0.0,0.0,0.0,0.0,0.0,0.0,0.0,0.0,0.0,0.0,0.0,0.0,0.0,0.0,0.0,0.0,0.0,0.0,0.0,0.0,0.0,0.0,0.0,0.0,0.0,0.0,0.0,0.0,0.0,0.0,0.0,0.0,0.0,0.0,0.0,0.0,0.0,0.0,0.0,0.0,0.0,0.0,0.0,0.0,0.0,0.0,0.0,0.0,0.0,0.0,0.0,0.0,0.0,0.0,0.0,0.0,0.0,0.0,0.0,0.0,0.0,0.0,-0.0333,0.0,-0.0132,0.0,-0.0176,-0.0209,0.0,0.0,0.0,0.0,0.0,0.0,0.0,0.0,0.0,0.0,0.0,0.0,0.0,0.0,0.0,0.0,0.0,0.0,0.0,0.0,0.0,0.0,0.0,0.0,0.0,0.0,0.0,0.0,0.0,0.0,0.0,0.0,0.0,0.0,0.0,0.0,0.0,0.0,0.0,0.0,0.0,0.0,0.0,0.0,0.0,0.0,0.0,0.0,0.0,0.0,0.0,0.0,0.0,0.0,0.0,0.0,0.0,0.0,0.0,0.0,0.0,0.0,0.0,0.0,0.0,0.0,0.0,0.0,0.0,0.0,0.0,0.0,0.0,0.0,0.0,0.0,0.0,0.0,0.0,0.0,0.0,0.0,0.0,0.0,0.0,0.0,0.0,0.0,0.0,0.0,0.0,0.0,0.0,0.0,0.0,0.0,0.0,0.0,0.0,0.0,0.0,0.0,0.0,0.0,0.0,0.0,0.0,0.0,-0.0347,-0.0028,0.0165,0.0237,0.019,0.0063,-0.0039,0.0,0.0,0.0,0.0,0.0,0.0,0.0,0.0,0.0,0.0,0.0,0.0,0.0,0.0,0.0,0.0,0.0,0.0,0.0,0.0,0.0,0.0,0.0,0.0,0.0,0.0,0.0,0.0,0.0,0.0,0.0,0.0,0.0,0.0,0.0,0.0,0.0,0.0,0.0,0.0,0.0,0.0,0.0,0.0,0.0,0.0,0.0,0.0,0.0,0.0,0.0,0.0,0.0,0.0,0.0,0.0,0.0,0.0,0.0,0.0,0.0,0.0,0.0,0.0,0.0,0.0,0.0,0.0,0.0,0.0,0.0,0.0,0.0,0.0,0.0,0.0,0.0,0.0,0.0,0.0,0.0,0.0,0.0,0.0,0.0,0.0,0.0,0.0,0.0,0.0,0.0,0.0,0.0,0.0,0.0,0.0,0.0,0.0,0.0,0.0,0.0,0.0,0.0,0.0,0.0,0.0,0.0,0.0,0.0,-0.0007,0.0067,0.0159,0.0246,0.0056,-0.0087,0.0,0.0,0.0,0.0,0.0,0.0,0.0,0.0,0.0,0.0,0.0,0.0,0.0,0.0,0.0,0.0,0.0,0.0,0.0,0.0,0.0,0.0,0.0,0.0,0.0,0.0,0.0,0.0,0.0,0.0,0.0,0.0,0.0,0.0,0.0,0.0,0.0,0.0,0.0,0.0,0.0,0.0,0.0,0.0,0.0,0.0,0.0,0.0,0.0,0.0,0.0,0.0,0.0,0.0,0.0,0.0,0.0,0.0,0.0,0.0,0.0,0.0,0.0,0.0,0.0,0.0,0.0,0.0,0.0,0.0,0.0,0.0,0.0,0.0,0.0,0.0,0.0,0.0,0.0,0.0,0.0,0.0,0.0,0.0,0.0,0.0,0.0,0.0,0.0,0.0,0.0,0.0,0.0,0.0,0.0,0.0,0.0,0.0,0.0,0.0,0.0,0.0,0.0,0.0,0.0,0.0,0.0,0.0,0.0,-0.0107,-0.0017,0.0135,0.0331,0.0121,0.0045,0.0129,0.0,0.0,0.0,0.0,0.0,0.0,0.0,0.0,0.0,0.0,0.0,0.0,0.0,0.0,0.0,0.0,0.0,0.0,0.0,0.0,0.0,0.0,0.0,0.0,0.0,0.0,0.0,0.0,0.0,0.0,0.0,0.0,0.0,0.0,0.0,0.0,0.0,0.0,0.0,0.0,0.0,0.0,0.0,0.0,0.0,0.0,0.0,0.0,0.0,0.0,0.0,0.0,0.0,0.0,0.0,0.0,0.0,0.0,0.0,0.0,0.0,0.0,0.0,0.0,0.0,0.0,0.0,0.0,0.0,0.0,0.0,0.0,0.0,0.0,0.0,0.0,0.0,0.0,0.0,0.0,0.0,0.0,0.0,0.0,0.0,0.0,0.0,0.0,0.0,0.0,0.0,0.0,0.0,0.0,0.0,0.0,0.0,0.0,0.0,0.0,0.0,0.0,0.0,0.0,0.0,0.0,0.0,0.0,-0.0239,-0.0023,0.0177,0.0384,0.0307,0.0318,0.0,0.0,0.0,0.0,0.0,0.0,0.0,0.0,0.0,0.0,0.0,0.0,0.0,0.0,0.0,0.0,0.0,0.0,0.0,0.0,0.0,0.0,0.0,0.0,0.0,0.0,0.0,0.0,0.0,0.0,0.0,0.0,0.0,0.0,0.0,0.0,0.0,0.0,0.0,0.0,0.0,0.0,0.0,0.0,0.0,0.0,0.0,0.0,0.0,0.0,0.0,0.0,0.0,0.0,0.0,0.0,0.0,0.0,0.0,0.0,0.0,0.0,0.0,0.0,0.0,0.0,0.0,0.0,0.0,0.0,0.0,0.0,0.0,0.0,0.0,0.0,0.0,0.0,0.0,0.0,0.0,0.0,0.0,0.0,0.0,0.0,0.0,0.0,0.0,0.0,0.0,0.0,0.0,0.0,0.0,0.0,0.0,0.0,0.0,0.0,0.0,0.0,0.0,0.0,0.0,0.0,0.0,0.0,0.0,0.061,0.0205,0.0058,0.0324,0.0585,0.0574,0.0,0.0,0.0,0.0,0.0,0.0,0.0,0.0,0.0,0.0,0.0,0.0,0.0,0.0,0.0,0.0,0.0,0.0,0.0,0.0,0.0,0.0,0.0,0.0,0.0,0.0,0.0,0.0,0.0,0.0,0.0,0.0,0.0,0.0,0.0,0.0,0.0,0.0,0.0,0.0,0.0,0.0,0.0,0.0,0.0,0.0,0.0,0.0,0.0,0.0,0.0,0.0,0.0,0.0,0.0,0.0,0.0,0.0,0.0,0.0,0.0,0.0,0.0,0.0,0.0,0.0,0.0,0.0,0.0,0.0,0.0,0.0,0.0,0.0,0.0,0.0,0.0,0.0,0.0,0.0,0.0,0.0,0.0,0.0,0.0,0.0,0.0,0.0,0.0,0.0,0.0,0.0,0.0,0.0,0.0,0.0,0.0,0.0,0.0,0.0,0.0,0.0,0.0,0.0,0.0,0.0,0.0,0.0,0.0013,0.0759,0.0672,0.0678,0.0806,0.0913,0.0882,0.0,0.0,0.0,0.0,0.0,0.0,0.0,0.0,0.0,0.0,0.0,0.0,0.0,0.0,0.0,0.0,0.0,0.0,0.0,0.0,0.0,0.0,0.0,0.0,0.0,0.0,0.0,0.0,0.0,0.0,0.0,0.0,0.0,0.0,0.0,0.0,0.0,0.0,0.0,0.0,0.0,0.0,0.0,0.0,0.0,0.0,0.0,0.0,0.0,0.0,0.0,0.0,0.0,0.0,0.0,0.0,0.0,0.0,0.0,0.0,0.0,0.0,0.0,0.0,0.0,0.0,0.0,0.0,0.0,0.0,0.0,0.0,0.0,0.0,0.0,0.0,0.0,0.0,0.0,0.0,0.0,0.0,0.0,0.0,0.0,0.0,0.0,0.0,0.0,0.0,0.0,0.0,0.0,0.0,0.0,0.0,0.0,0.0,0.0,0.0,0.0,0.0,0.0,0.0,0.0,0.0,0.0,0.0,0.0326,0.0673,0.1276,0.1611,0.1591,0.1331,0.1226,0.0,0.0,0.0,0.0,0.0,0.0,0.0,0.0,0.0,0.0,0.0,0.0,0.0,0.0,0.0,0.0,0.0,0.0,0.0,0.0,0.0,0.0,0.0,0.0,0.0,0.0,0.0,0.0,0.0,0.0,0.0,0.0,0.0,0.0,0.0,0.0,0.0,0.0,0.0,0.0,0.0,0.0,0.0,0.0,0.0,0.0,0.0,0.0,0.0,0.0,0.0,0.0,0.0,0.0,0.0,0.0,0.0,0.0,0.0,0.0,0.0,0.0,0.0,0.0,0.0,0.0,0.0,0.0,0.0,0.0,0.0,0.0,0.0,0.0,0.0,0.0,0.0,0.0,0.0,0.0,0.0,0.0,0.0,0.0,0.0,0.0,0.0,0.0,0.0,0.0,0.0,0.0,0.0,0.0,0.0,0.0,0.0,0.0,0.0,0.0,0.0,0.0,0.0,0.0,0.0,0.0,0.0,0.0,0.0887,0.1808,0.1666,0.1818,0.2277,0.1916,0.167,0.0,0.0,0.0,0.0,0.0,0.0,0.0,0.0,0.0,0.0,0.0,0.0,0.0,0.0,0.0,0.0,0.0,0.0,0.0,0.0,0.0,0.0,0.0,0.0,0.0,0.0,0.0,0.0,0.0,0.0,0.0,0.0,0.0,0.0,0.0,0.0,0.0,0.0,0.0,0.0,0.0,0.0,0.0,0.0,0.0,0.0,0.0,0.0,0.3795,0.0,0.0,0.0,0.0,0.0,0.0,0.0,0.0,0.0,0.0,0.0,0.0,0.0,0.0,0.0,0.0,0.0,0.0,0.0,0.0,0.0,0.0,0.0,0.0,0.0,0.0,0.0,0.0,0.0,0.0,0.0,0.0,0.0,0.0,0.0,0.0,0.0,0.0,0.0,0.0,0.0,0.0,0.0,0.0,0.0,0.0,0.0,0.0,0.0,0.0,0.0,0.0,0.0,0.0,0.0,0.0,0.0,0.0,0.0,0.1411,0.2171,0.2096,0.2273,0.2734,0.2504,0.2196,0.0,0.0,0.0,0.0,0.0,0.0,0.0,0.0,0.0,0.0,0.0,0.0,0.0,0.0,0.0,0.0,0.0,0.0,0.0,0.0,0.0,0.0,0.0,0.0,0.0,0.0,0.0,0.0,0.0,0.0,0.0,0.0,0.0,0.0,0.0,0.0,0.0,0.0,0.0,0.0,0.0,0.0,0.0,0.0,0.0,0.0,0.0,0.0,0.0,0.0,0.0,0.0,0.0,0.0,0.0,0.0,0.0,0.0,0.0,0.0,0.0,0.0,0.0,0.0,0.0,0.0,0.0,0.0,0.0,0.0,0.0,0.0,0.0,0.0,0.0,0.0,0.0,0.0,0.0,0.0,0.0,0.0,0.0,0.0,0.0,0.0,0.0,0.0,0.0,0.0,0.0,0.0,0.0,0.0,0.0,0.0,0.0,0.0,0.0,0.0,0.0,0.0,0.0,0.0,0.0,0.0,0.0,0.1512,0.1854,0.2227,0.249,0.2746,0.3096,0.3077,0.2799,0.2266,0.0,0.0,0.0,0.0,0.0,0.0,0.0,0.0,0.0,0.0,0.0,0.0,0.0,0.0,0.0,0.0,0.0,0.0,0.0,0.0,0.0,0.0,0.0,0.0,0.0,0.0,0.0,0.0,0.0,0.0,0.0,0.0,0.0,0.0,0.0,0.0,0.0,0.0,0.3447,0.3885,0.0,0.0,0.0,0.0,0.0,0.0,0.0,0.0,0.4714,0.0,0.0,0.0,0.0,0.0,0.0,0.0,0.0,0.0,0.0,0.0,0.0,0.0,0.0,0.0,0.0,0.0,0.0,0.0,0.0,0.0,0.0,0.0,0.0,0.0,0.0,0.0,0.0,0.0,0.0,0.0,0.0,0.0,0.0,0.0,0.0,0.0,0.0,0.0,0.0,0.0,0.0,0.0,0.0,0.0,0.0,0.0,0.0,0.0,0.0,0.0,0.0,0.0,0.0,0.0,0.0,0.1521,0.1744,0.2032,0.2436,0.2807,0.3041,0.3096,0.3575,0.3508,0.2885,0.0,0.0,0.0,0.0,0.0,0.0,0.0,0.0,0.0,0.0,0.0,0.0,0.0,0.0,0.0,0.0,0.0,0.0,0.0,0.0,0.0,0.0,0.0,0.0,0.0,0.0,0.0,0.0,0.0,0.0,0.0,0.0,0.0,0.0,0.0,0.0,0.0,0.0,0.0,0.5599,0.6297,0.0,0.0,0.0,0.0,0.0,0.0,0.0,0.0,0.4429,0.0,0.0,0.0,0.0,0.0,0.0,0.0,0.0,0.0,0.0,0.0,0.0,0.0,0.0,0.0,0.0,0.0,0.0,0.0,0.0,0.0,0.0,0.0,0.0,0.0,0.0,0.0,0.0,0.0,0.0,0.0,0.0,0.0,0.0,0.0,0.0,0.0,0.0,0.0,0.0,0.0,0.0,0.0,0.0,0.0,0.0,0.0,0.0,0.0,0.0,0.0,0.0,0.0,0.0,0.0,0.1674,0.1972,0.2245,0.2499,0.2707,0.3002,0.3446,0.3461,0.3421,0.0,0.0,0.0,0.0,0.0,0.0,0.0,0.0,0.0,0.0,0.0,0.0,0.0,0.0,0.0,0.0,0.0,0.0,0.0,0.0,0.0,0.0,0.0,0.0,0.0,0.0,0.0,0.0,0.0,0.0,0.0,0.0,0.0,0.0,0.0,0.0,0.0,0.0,0.0,0.0,0.6579,0.6962,0.7961,0.0,0.0,0.0,0.0,0.0,0.0,0.5313,0.4953,0.0,0.0,0.0,0.0,0.0,0.0,0.0,0.0,0.0,0.0,0.0,0.0,0.0,0.0,0.0,0.0,0.0,0.0,0.0,0.0,0.0,0.0,0.0,0.0,0.0,0.0,0.0,0.0,0.0,0.0,0.0,0.0,0.0,0.0,0.0,0.0,0.0,0.0,0.0,0.0,0.0,0.0,0.0,0.0,0.0,0.0,0.0,0.0,0.0,0.0,0.0,0.0,0.0,0.0,0.0,0.1699,0.2095,0.2349,0.2482,0.2588,0.2981,0.3756,0.3378,0.3294,0.0,0.0,0.0,0.0,0.0,0.0,0.0,0.0,0.0,0.0,0.0,0.0,0.0,0.0,0.0,0.0,0.0,0.0,0.0,0.0,0.0,0.0,0.0,0.0,0.0,0.0,0.0,0.0,0.0,0.0,0.0,0.0,0.0,0.0,0.0,0.0,0.0,0.0,0.0,0.0,0.0,0.7679,0.8959,0.733,0.0,0.0,0.0,0.0,0.6006,0.5931,0.0,0.0,0.0,0.0,0.0,0.0,0.0,0.0,0.0,0.0,0.0,0.0,0.0,0.0,0.0,0.0,0.0,0.0,0.0,0.0,0.0,0.0,0.0,0.0,0.0,0.0,0.0,0.0,0.0,0.0,0.0,0.0,0.0,0.0,0.0,0.0,0.0,0.0,0.0,0.0,0.0,0.0,0.0,0.0,0.0,0.0,0.0,0.0,0.0,0.0,0.0,0.0,0.0,0.0,0.0,0.0,0.1454,0.1967,0.2319,0.2515,0.2844,0.3256,0.3778,0.3695,0.3608,0.0,0.0,0.0,0.0,0.0,0.0,0.0,0.0,0.0,0.0,0.0,0.0,0.0,0.0,0.0,0.0,0.0,0.0,0.0,0.0,0.0,0.0,0.0,0.0,0.0,0.0,0.0,0.0,0.0,0.0,0.0,0.0,0.0,0.0,0.0,0.0,0.0,0.0,0.0,0.0,0.0,0.9281,0.9357,0.8114,0.7297,0.0,0.0,0.6969,0.7162,0.7101,0.0,0.0,0.0,0.0,0.0,0.0,0.0,0.0,0.0,0.0,0.0,0.0,0.0,0.0,0.0,0.0,0.0,0.0,0.0,0.0,0.0,0.0,0.0,0.0,0.0,0.0,0.0,0.0,0.0,0.0,0.0,0.0,0.0,0.0,0.0,0.0,0.0,0.0,0.0,0.0,0.0,0.0,0.0,0.0,0.0,0.0,0.0,0.0,0.0,0.0,0.0,0.0,0.0,0.0,0.0,0.1315,0.1633,0.2116,0.2406,0.2506,0.2687,0.2982,0.3393,0.3146,0.3092,0.0,0.0,0.0,0.0,0.0,0.0,0.0,0.0,0.0,0.0,0.0,0.0,0.0,0.0,0.0,0.0,0.0,0.0,0.0,0.0,0.0,0.0,0.0,0.0,0.0,0.0,0.0,0.0,0.0,0.0,0.0,0.0,0.0,0.0,0.0,0.0,0.0,0.0,0.0,0.0,0.0,0.0,0.9869,0.9042,0.0,0.0,0.0,0.7632,0.732,0.0,0.0,0.0,0.0,0.0,0.0,0.0,0.0,0.0,0.0,0.0,0.0,0.0,0.0,0.0,0.0,0.0,0.0,0.0,0.0,0.0,0.0,0.0,0.0,0.0,0.0,0.0,0.0,0.0,0.0,0.0,0.0,0.0,0.0,0.0,0.0,0.0,0.0,0.0,0.0,0.0,0.0,0.0,0.0,0.0,0.0,0.0,0.0,0.0,0.0,0.0,0.0,0.0,0.0,0.0,0.0,0.0,0.1837,0.2274,0.251,0.251,0.251,0.2707,0.3074,0.2735,0.0,0.0,0.0,0.0,0.0,0.0,0.0,0.0,0.0,0.0,0.0,0.0,0.0,0.0,0.0,0.0,0.0,0.0,0.0,0.0,0.0,0.0,0.0,0.0,0.0,0.0,0.0,0.2998,0.0,0.0,0.0,0.0,0.0,0.0,0.0,0.0,0.0,0.0,0.0,0.0,0.0,0.0,0.8861,0.9884,0.9519,0.911,0.0,0.0,0.8116,0.7563,0.7823,0.7621,0.0,0.0,0.0,0.0,0.0,0.0,0.0,0.0,0.0,0.0,0.0,0.0,0.0,0.0,0.0,0.0,0.0,0.0,0.0,0.0,0.0,0.0,0.0,0.0,0.0,0.0,0.0,0.0,0.0,0.0,0.0,0.0,0.0,0.0,0.0,0.0,0.0,0.0,0.0,0.0,0.0,0.0,0.0,0.0,0.0,0.0,0.0,0.0,0.0,0.0,0.0,0.0,0.0,0.0,0.0,0.1898,0.2312,0.251,0.251,0.251,0.2687,0.3077,0.2845,0.2778,0.0,0.0,0.0,0.0,0.0,0.0,0.0,0.0,0.0,0.0,0.0,0.0,0.0,0.0,0.0,0.0,0.0,0.0,0.0,0.0,0.0,0.0,0.0,0.0,0.0,0.0,0.0,0.0,0.0,0.0,0.0,0.0,0.0,0.0,0.0,0.0,0.0,0.0,0.0,0.0,0.0,0.9031,0.8993,0.9116,0.9195,0.0,0.0,0.8511,0.8343,0.8642,0.8359,0.671,0.0,0.0,0.0,0.0,0.0,0.0,0.0,0.0,0.0,0.0,0.0,0.0,0.0,0.0,0.0,0.0,0.0,0.0,0.0,0.0,0.0,0.0,0.0,0.0,0.0,0.0,0.0,0.0,0.0,0.0,0.0,0.0,0.0,0.0,0.0,0.0,0.0,0.0,0.0,0.0,0.0,0.0,0.0,0.0,0.0,0.0,0.0,0.0,0.0,0.0,0.0,0.0,0.0,0.1703,0.1898,0.2314,0.251,0.251,0.251,0.2568,0.2726,0.2663,0.2596,0.0,0.0,0.0,0.0,0.0,0.0,0.0,0.0,0.0,0.0,0.0,0.0,0.0,0.0,0.0,0.0,0.0,0.0,0.0,0.0,0.0,0.0,0.0,0.0,0.0,0.0,0.0,0.0,0.3958,0.397,0.3569,0.0,0.0,0.0,0.0,0.0,0.0,0.0,0.0,0.0,0.0,0.8771,0.9682,0.9885,0.0,0.0,0.9504,0.925,0.8526,0.8642,0.8259,0.6586,0.6162,0.0,0.0,0.0,0.0,0.0,0.0,0.0,0.0,0.0,0.0,0.0,0.0,0.0,0.0,0.0,0.0,0.0,0.0,0.0,0.0,0.0,0.0,0.0,0.0,0.0,0.0,0.0,0.0,0.0,0.0,0.0,0.0,0.0,0.0,0.0,0.0,0.0,0.0,0.0,0.0,0.0,0.0,0.0,0.0,0.0,0.0,0.0,0.0,0.0,0.0,0.0,0.0,0.1715,0.1922,0.2305,0.251,0.251,0.251,0.251,0.2506,0.2536,0.2463,0.0,0.0,0.0,0.0,0.0,0.0,0.0,0.0,0.0,0.0,0.0,0.0,0.0,0.0,0.0,0.0,0.0,0.0,0.0,0.0,0.0,0.0,0.0,0.0,0.0,0.0,0.0,0.0,0.4306,0.4093,0.3378,0.0,0.0,0.0,0.0,0.0,0.0,0.0,0.0,0.0,0.0,0.8595,0.9646,0.9863,0.9756,0.9383,0.9386,0.9155,0.8431,0.8443,0.8056,0.6709,0.0,0.0,0.0,0.0,0.0,0.0,0.0,0.0,0.0,0.0,0.0,0.0,0.0,0.0,0.0,0.0,0.0,0.0,0.0,0.0,0.0,0.0,0.0,0.0,0.0,0.0,0.0,0.0,0.0,0.0,-0.0865,0.0,0.0,0.0,0.0,0.0,0.0,0.0,0.0,0.0,0.0,0.0,0.0,0.0,0.0,0.0,0.0,0.0,0.0,0.0,0.0,0.0,0.0,0.1792,0.2018,0.2347,0.2512,0.2512,0.251,0.2511,0.2508,0.2448,0.2404,0.2383,0.0,0.0,0.0,0.0,0.0,0.0,0.0,0.0,0.0,0.0,0.0,0.0,0.0,0.0,0.0,0.0,0.0,0.0,0.0,0.0,0.0,0.0,0.0,0.0,0.0,0.0,0.3508,0.3442,0.3373,0.0,0.0,0.0,0.0,0.0,0.0,0.0,0.0,0.0,0.0,0.7652,0.8637,0.8494,0.8637,0.8775,0.8765,0.828,0.7925,0.8097,0.8112,0.7894,0.0,0.0,0.0,0.0,0.0,0.0,0.0,0.0,0.0,0.0,0.0,0.0,0.0,0.0,0.0,0.0,0.0,0.0,0.0,0.0,0.0,0.0,0.0,0.0,0.0,0.0,0.0,-0.137,-0.1239,0.0,0.0,0.0,0.0,0.0,0.0,0.0,0.0,0.0,0.0,0.0,0.0539,0.0597,0.0,0.0,0.0,0.0,0.0,0.0,0.0,0.0,0.0,0.0,0.0,0.0,0.1848,0.2127,0.2426,0.2571,0.257,0.2571,0.2532,0.2511,0.247,0.2395,0.2266,0.0,0.0,0.0,0.0,0.0,0.0,0.0,0.0,0.0,0.0,0.0,0.0,0.0,0.0,0.0,0.0,0.0,0.0,0.0,0.0,0.0,0.0,0.0,0.0,0.0,0.421,0.0,0.0,0.0,0.0,0.0,0.0,0.0,0.0,0.0,0.0,0.0,0.6516,0.7368,0.7825,0.823,0.8552,0.876,0.8963,0.0,0.0,0.0,0.0,0.0,0.0,0.0,0.0,0.0,0.0,0.0,0.0,0.0,0.0,0.7645,0.6324,0.6322,0.6576,0.6863,0.0,0.0,0.0,0.0,0.0,0.0,0.0,0.0,0.0,0.0,0.0,0.0,0.0,0.0,-0.204,0.0,-0.1805,0.0,0.0,0.0,0.0,0.0,0.0,0.0,0.0,-0.0677,-0.0506,-0.0432,-0.0407,-0.0309,0.0,-0.0201,0.0105,0.0,0.0,0.0,0.0,0.0,0.0,0.0,0.0,0.1811,0.2206,0.2489,0.2632,0.2632,0.2632,0.2582,0.2524,0.2502,0.2419,0.2232,0.2136,0.2091,0.0,0.0,0.0,0.0,0.0,0.0,0.0,0.0,0.0,0.0,0.0,0.0,0.0,0.0,0.0,0.0,0.0,0.0,0.0,0.0,0.0,0.0,0.0,0.4697,0.0,0.0,0.0,0.0,0.0,0.0,0.0,0.0,0.0,0.5989,0.6629,0.7404,0.8292,0.8372,0.8429,0.8666,0.0,0.0,0.0,0.0,0.0,0.0,0.0,0.7823,0.7823,0.7842,0.7943,0.8305,0.8794,0.9091,0.8944,0.0,0.0,0.7596,0.7606,0.7934,0.8239,0.8646,0.892,0.8829,0.9131,0.9445,0.0,0.0,0.0,0.0,0.0,0.0,0.0,0.0,-0.2849,-0.2886,0.0,-0.2592,0.0,0.0,0.0,0.0,0.0,0.0,0.0,0.0,-0.1294,-0.1123,-0.1265,-0.1333,-0.1082,-0.061,-0.0739,-0.0585,-0.0151,-0.0185,0.0,0.0,0.0,0.0,0.0,0.0,0.1655,0.2163,0.2519,0.2695,0.2694,0.2639,0.2606,0.2598,0.2544,0.244,0.2307,0.2362,0.2303,0.2129,0.192,0.0,0.0,0.0,0.0,0.0,0.0,0.0,0.0,0.0,0.0,0.0,0.0,0.0,0.0,0.0,0.0,0.0,0.0,0.0,0.0,0.5183,0.0,0.0,0.0,0.0,0.0,0.0,0.0,0.0,0.0,0.0,0.681,0.7565,0.8316,0.8897,0.0,0.0,0.0,0.0,0.8783,0.8232,0.799,0.7878,0.7927,0.8207,0.8543,0.8967,0.0,0.0,1.0061,1.0042,0.9942,0.9472,1.0093,1.0318,0.9294,0.8945,0.8985,0.9488,0.9231,0.9111,0.9725,0.973,0.9666,-0.3829,0.0,0.0,0.0,0.0,-0.3307,-0.3424,-0.3572,-0.3591,-0.3497,-0.3336,-0.3238,0.0,0.0,0.0,0.0,0.0,0.0,-0.2674,-0.2827,-0.2546,-0.2472,-0.2576,-0.2568,-0.2504,-0.2363,-0.2401,-0.2326,-0.2149,-0.2108,-0.1402,-0.0048,0.0,0.0,0.0,0.0,0.1498,0.1732,0.2412,0.2779,0.2779,0.2761,0.2689,0.2604,0.2585,0.252,0.2424,0.2403,0.2384,0.2311,0.2177,0.0,0.0,0.0,0.0,0.0,0.0,0.0,0.0,0.0,0.0,0.0,0.0,0.0,0.0,0.0,0.0,0.0,0.0,0.0,0.4805,0.5208,0.5144,0.0,0.0,0.0,0.0,0.0,0.0,0.0,0.0,0.0,0.7987,0.8083,0.8231,0.0,0.0,0.8125,0.7884,0.8343,0.8702,0.868,0.0,0.0,0.0,0.9169,0.9183,0.9825,1.048,1.091,1.0849,1.1085,1.1246,1.1089,1.1298,1.1354,1.1061,1.0702,1.0511,1.0527,1.0591,1.074,1.0957,1.1058,1.1143,-0.5645,-0.5116,-0.4209,-0.3846,-0.3875,-0.3912,-0.4029,-0.422,-0.422,-0.4169,-0.4071,-0.3893,-0.3693,-0.3499,-0.339,0.0,0.0,0.0,-0.3667,-0.3833,-0.3806,-0.3771,-0.3773,-0.3831,-0.3717,-0.348,-0.3454,-0.3328,-0.3063,-0.2973,-0.2339,-0.1214,0.0,0.0,-0.0355,0.0408,0.0874,0.1095,0.1924,0.2376,0.24,0.2665,0.2758,0.2642,0.2636,0.2609,0.2529,0.2511,0.247,0.2445,0.2285,0.2101,0.0,0.0,0.0,0.0,0.0,0.0,0.0,0.0,0.0,0.0,0.0,0.2332,0.2167,0.0,0.0,0.0,0.4363,0.5031,0.5509,0.5659,0.0,0.0,0.0,0.0,0.0,0.0,0.0,0.6078,0.7073,0.7815,0.7953,0.8341,0.8727,0.9022,0.8709,0.8411,0.8387,0.0,0.9161,0.9222,0.9377,0.9605,0.9899,0.9757,0.9907,1.0718,1.1233,1.1548,1.1674,1.1902,1.2032,1.2037,1.2041,1.2041,1.2037,1.1829,1.1595,1.1331,1.1504,1.1725,1.1735,1.19,1.2041,-0.7956,-0.7788,-0.5655,-0.4647,-0.4484,-0.4453,-0.456,-0.4738,-0.4716,-0.4851,-0.4962,-0.4534,-0.4349,-0.4322,-0.4018,0.0,0.0,-0.4406,-0.4545,-0.4745,-0.4933,-0.4937,-0.4836,-0.4943,-0.4692,-0.4071,-0.4095,-0.3787,-0.3279,-0.3192,-0.3125,-0.3082,-0.2388,-0.1791,-0.1318,-0.0661,-0.0122,0.0307,0.1131,0.1624,0.1799,0.2445,0.2783,0.2702,0.2716,0.2664,0.2585,0.2595,0.2568,0.2487,0.2318,0.2156,0.2015,0.0,0.0,0.0,0.0,0.0,0.0,0.0,0.0,0.0,0.0,0.0,0.0,0.0,0.0,0.0,0.5185,0.0,0.6566,0.6283,0.0,0.0,0.0,0.5696,0.6273,0.6535,0.6426,0.5801,0.0,0.0,0.0,0.0,0.9442,0.9928,0.9664,0.9426,0.9501,0.9703,0.9895,0.9518,0.9688,0.9793,0.9925,1.0172,1.0696,1.1444,1.1833,1.1982,1.2199,1.2295,1.2323,1.2373,1.2383,1.2387,1.2456,1.2442,1.2348,1.1966,1.2037,1.2164,1.2173,1.2324,1.2461,-0.9314,-0.9266,-0.8726,-0.7496,-0.5857,-0.5193,-0.4973,-0.5012,-0.5014,-0.4998,-0.4989,-0.4884,-0.4773,-0.4677,-0.4594,-0.4653,-0.481,-0.4849,-0.4904,-0.5014,-0.5055,-0.5063,-0.5045,-0.5067,-0.4974,-0.4858,-0.4856,-0.4733,-0.4542,-0.4421,-0.4275,-0.4047,-0.349,-0.2911,-0.2343,-0.1673,-0.1126,-0.0679,0.0089,0.0885,0.1698,0.2477,0.2845,0.2785,0.2717,0.2665,0.2604,0.2557,0.2525,0.251,0.2456,0.2348,0.2168,0.184,0.0,0.0,0.0,0.0,0.0,0.0,0.0,0.0,0.0,0.1994,0.173,0.0,0.2656,0.0,0.4928,0.591,0.5809,0.5709,0.0,0.0,0.4366,0.4456,0.4868,0.5317,0.5479,0.5238,0.6708,0.7732,0.762,0.7942,0.8407,0.896,0.9234,0.9035,0.8095,0.9084,0.9571,0.8825,0.9606,1.0514,1.0699,1.1062,1.1322,1.1589,1.1678,1.1728,1.1787,1.1782,1.1914,1.2229,1.2326,1.2464,1.2819,1.2946,1.288,1.2809,1.2724,1.2616,1.2648,1.2772,1.2937,-1.1271,-1.1239,-1.0847,-0.9844,-0.8394,-0.7268,-0.6411,-0.5825,-0.5796,-0.5577,-0.5178,-0.5137,-0.5043,-0.4935,-0.4974,-0.5019,-0.5096,-0.5137,-0.5181,-0.5228,-0.523,-0.5208,-0.5142,-0.5142,-0.512,-0.5108,-0.5106,-0.5081,-0.503,-0.4981,-0.4834,-0.4651,-0.4384,-0.3979,-0.351,-0.2577,-0.1953,-0.1721,-0.0843,0.0158,0.1316,0.2013,0.2467,0.2707,0.267,0.2586,0.2409,0.2371,0.238,0.2354,0.2371,0.2297,0.2153,0.1911,0.1651,0.0,0.0,0.0,0.0,0.0,0.0,0.0,0.0,0.0,0.0,0.0,0.2639,0.0,0.4542,0.0,0.5097,0.5082,0.4923,0.4525,0.4522,0.4716,0.5102,0.547,0.5508,0.5059,0.634,0.7134,0.676,0.7151,0.7604,0.7943,0.8197,0.8094,0.7449,0.8079,0.8566,0.8504,0.9275,1.0166,1.0802,1.1072,1.127,1.1462,1.1506,1.1588,1.1782,1.1823,1.1919,1.2166,1.2217,1.2269,1.2475,1.2531,1.2537,1.2613,1.2613,1.2627,1.2767,1.2776,1.2786,-1.335,-1.3265,-1.2503,-1.19,-1.1397,-1.0095,-0.8592,-0.6998,-0.6998,-0.649,-0.5654,-0.5511,-0.5358,-0.5157,-0.5232,-0.5239,-0.5274,-0.538,-0.5408,-0.5426,-0.5398,-0.5351,-0.5236,-0.5207,-0.5193,-0.5145,-0.5116,-0.5137,-0.5098,-0.5098,-0.5067,-0.4959,-0.4981,-0.4851,-0.4549,-0.3437,-0.2805,-0.2697,-0.1654,-0.0567,0.053,0.1235,0.1846,0.2347,0.2478,0.2432,0.2198,0.2197,0.2202,0.2169,0.2199,0.2165,0.2124,0.1941,0.1789,0.0,0.1485,0.0,0.0,0.0,0.0,0.0,0.0,0.0,0.0,0.2348,0.2899,0.3659,0.4189,0.4518,0.454,0.4596,0.4704,0.491,0.5048,0.5291,0.5701,0.587,0.5652,0.491,0.593,0.634,0.5548,0.6256,0.6889,0.6879,0.6695,0.6564,0.6664,0.6939,0.7525,0.842,0.8605,0.9019,0.9822,1.015,1.0358,1.0867,1.0959,1.1266,1.1772,1.1863,1.1918,1.1972,1.1992,1.1995,1.1859,1.1905,1.1954,1.215,1.2268,1.2467,1.2768,1.2743,1.2551,-1.4568,-1.454,-1.4398,-1.3968,-1.3436,-1.3149,-1.1372,-0.8646,-0.8646,-0.8034,-0.7021,-0.6821,-0.6306,-0.5545,-0.5532,-0.551,-0.554,-0.5557,-0.5524,-0.5484,-0.5484,-0.5439,-0.5359,-0.5385,-0.5347,-0.5331,-0.5356,-0.5292,-0.5191,-0.5191,-0.5071,-0.484,-0.4834,-0.4765,-0.4603,0.0,0.0,0.0,-0.22,-0.1541,-0.1243,0.0194,0.1033,0.1157,0.1826,0.0,0.2138,0.2164,0.2151,0.2054,0.2139,0.0,0.0,0.0,0.0,0.0,0.0,0.0,0.0,0.0,0.0,0.0,0.2213,0.2222,0.2153,0.2436,0.2917,0.3695,0.4182,0.4402,0.4357,0.4543,0.4413,0.375,0.3699,0.3792,0.3961,0.4046,0.3973,0.3903,0.4921,0.5624,0.5409,0.5609,0.5736,0.5751,0.4967,0.4395,0.4477,0.5936,0.6758,0.629,0.699,0.759,0.7822,0.7954,0.842,0.9053,0.9379,0.9793,1.0731,1.0984,1.1117,1.1452,1.1525,1.1694,1.2012,1.2252,1.2293,1.2396,1.2385,1.2516,1.2936,1.3117,1.3258,-1.5264,0.0,-1.5264,-1.4923,0.0,-1.445,-1.3384,-1.1553,-1.0772,-0.9872,-0.8936,-0.8826,-0.8311,-0.7491,-0.6948,-0.6505,-0.6158,-0.5615,-0.5402,-0.5445,-0.5475,-0.5469,-0.551,-0.5512,-0.5486,-0.5445,-0.5445,-0.5398,-0.5314,-0.5312,-0.5191,-0.5012,-0.4986,-0.4943,-0.4843,-0.4836,-0.4604,-0.4083,-0.3234,-0.266,-0.2324,-0.1234,-0.048,-0.0124,0.0,0.0,0.0,0.0,0.0,0.0,0.0,0.0,0.0,0.0,0.0,0.1888,0.1849,0.1837,0.1904,0.1997,0.2108,0.2237,0.2492,0.2612,0.2548,0.2723,0.3038,0.3521,0.3735,0.3847,0.3872,0.3973,0.3888,0.3452,0.3381,0.3444,0.3526,0.3596,0.3626,0.3685,0.42,0.462,0.462,0.4591,0.4605,0.464,0.4158,0.3764,0.3871,0.4694,0.5312,0.5409,0.6408,0.7144,0.7146,0.7146,0.7331,0.8012,0.8161,0.8722,0.9892,1.0104,1.039,1.1183,1.1463,1.1553,1.1774,1.1938,1.2001,1.2091,1.209,1.2228,1.2657,1.2882,1.3022,-1.5601,-1.5601,-1.5601,-1.5375,-1.5038,-1.5038,-1.4822,-1.435,0.0,0.0,0.0,-1.0798,-1.0415,-0.9699,-0.8745,-0.8026,-0.7452,-0.6274,-0.5845,-0.5955,-0.5677,-0.5606,-0.5701,-0.5645,-0.5575,-0.5535,-0.5531,-0.5494,-0.5429,-0.5412,-0.5365,-0.5268,-0.5248,-0.5233,-0.5159,-0.5141,-0.4998,-0.4783,-0.4251,-0.3711,-0.3204,-0.261,-0.2008,-0.1478,-0.0544,0.0,0.0149,0.0929,0.1432,0.1581,0.1618,0.1625,0.1621,0.1685,0.1764,0.178,0.1767,0.1823,0.1932,0.1957,0.2079,0.2254,0.2617,0.2875,0.2947,0.305,0.3125,0.3247,0.3216,0.3189,0.3262,0.3278,0.3304,0.3357,0.3364,0.3386,0.3444,0.349,0.3491,0.3555,0.3589,0.362,0.3646,0.3644,0.3656,0.3723,0.3755,0.3749,0.3764,0.383,0.4197,0.4914,0.5693,0.6375,0.6451,0.6375,0.6649,0.6925,0.7025,0.7621,0.8963,0.9442,0.9968,1.1191,1.1447,1.146,1.1443,1.1526,1.1531,1.1653,1.1707,1.1803,1.2194,1.2426,1.2603,-1.5601,-1.5601,-1.5601,-1.5558,-1.5499,-1.5494,-1.5456,-1.5317,-1.4119,-1.3079,-1.2225,-1.2027,-1.1471,-1.0621,-1.0457,-1.0319,-1.0133,-0.8877,-0.8263,0.0,-0.6815,-0.6107,-0.6032,-0.5735,-0.5578,-0.5597,-0.5595,-0.5589,-0.5571,-0.5529,-0.5482,-0.5435,-0.5398,-0.5355,-0.5364,-0.5238,-0.5179,-0.511,-0.4777,-0.4523,-0.4431,-0.3462,-0.2919,-0.2785,-0.1916,-0.0972,-0.01,0.022,0.074,0.1464,0.1683,0.1753,0.1693,0.18,0.1941,0.2037,0.2095,0.2145,0.2159,0.226,0.2374,0.246,0.2512,0.2753,0.3195,0.3088,0.3029,0.3029,0.2856,0.2717,0.2701,0.2791,0.2833,0.2846,0.2827,0.2845,0.2941,0.2955,0.2962,0.2963,0.2938,0.2976,0.301,0.3008,0.3144,0.3384,0.3546,0.356,0.3744,0.3746,0.3766,0.3896,0.4065,0.4178,0.4417,0.4203,0.4719,0.5536,0.568,0.6449,0.8593,0.8942,0.9431,1.0923,1.1003,1.109,1.1185,1.1395,1.1446,1.1493,1.168,1.1829,1.1926,1.2119,1.2435,-1.5601,-1.5601,-1.5601,-1.5601,-1.5601,-1.5601,-1.5601,-1.555,-1.5048,-1.4599,-1.4195,-1.4089,-1.3596,-1.2846,-1.2229,-1.1758,-1.1368,-0.941,-0.8581,-0.8521,-0.7147,-0.6483,-0.6513,-0.6365,-0.6304,-0.6257,-0.6252,-0.6196,-0.614,-0.5922,-0.5815,-0.5809,-0.5579,-0.5429,-0.5382,-0.5341,-0.5318,-0.5312,-0.5033,-0.4924,-0.4922,-0.444,-0.4168,-0.4124,-0.3166,-0.2395,-0.185,-0.1205,-0.0669,-0.0316,0.0429,0.0778,0.0707,0.1396,0.184,0.1875,0.1924,0.1927,0.1928,0.2016,0.2143,0.2323,0.2393,0.2577,0.2943,0.2853,0.2807,0.2833,0.2764,0.2705,0.2705,0.2753,0.2773,0.2735,0.2768,0.2775,0.2794,0.2819,0.2861,0.2864,0.2885,0.2898,0.2899,0.2929,0.3055,0.3386,0.3572,0.3692,0.3786,0.3776,0.3702,0.3673,0.3628,0.3656,0.363,0.3658,0.387,0.4372,0.446,0.5229,0.6839,0.7221,0.7806,0.8913,0.9271,0.9602,1.0196,1.0491,1.0845,1.1595,1.1703,1.1802,1.1833,1.201,1.2419,-1.5645,-1.5601,-1.5601,-1.5601,-1.5601,-1.5601,-1.5601,-1.5601,-1.5596,-1.5601,-1.5601,-1.5601,-1.5329,-1.4742,-1.3878,-1.3269,-1.2551,-1.0515,-0.9606,-0.9555,-0.7999,-0.7274,-0.7373,-0.7112,-0.6858,-0.6814,-0.6837,-0.6764,-0.663,-0.6396,-0.6226,-0.6199,-0.5923,-0.5735,-0.5669,-0.5589,-0.5525,-0.5512,-0.5278,-0.5161,-0.5139,-0.5092,-0.5073,-0.4978,-0.4212,-0.3647,-0.3319,-0.2534,-0.2016,-0.1795,-0.0923,-0.0477,-0.0535,0.0337,0.1018,0.1229,0.1034,0.0912,0.0916,0.1204,0.1493,0.1716,0.2018,0.2314,0.2485,0.2467,0.249,0.2574,0.2568,0.2586,0.2555,0.2587,0.2593,0.2602,0.2604,0.2581,0.2621,0.2677,0.2696,0.2701,0.2757,0.2745,0.2776,0.2776,0.2897,0.3174,0.3517,0.366,0.3605,0.3612,0.3566,0.3574,0.358,0.3591,0.3587,0.359,0.3652,0.3602,0.3701,0.4431,0.5361,0.5658,0.6162,0.7473,0.7804,0.8255,0.9166,0.9704,1.0192,1.1016,1.1462,1.1806,1.1806,1.201,1.2389,-1.5815,-1.5618,-1.5601,-1.5601,-1.5601,-1.5601,-1.5601,-1.5601,-1.5601,-1.5601,-1.5601,-1.5601,-1.5572,-1.5507,-1.533,-1.5209,-1.5056,-1.3803,-1.3102,-1.2742,-1.033,-0.9054,-0.8958,-0.7658,-0.6896,-0.6942,-0.6971,-0.702,-0.6909,-0.68,-0.6649,-0.6564,-0.6513,-0.647,-0.6425,-0.6116,-0.5959,-0.5926,-0.5574,-0.5316,-0.5176,-0.5122,-0.5102,-0.5096,-0.4982,-0.4471,-0.3584,-0.3375,-0.2872,-0.2005,-0.1792,-0.1742,-0.1719,-0.1616,-0.1061,-0.0053,-0.0863,-0.148,-0.1392,-0.0453,0.0171,0.0286,0.1191,0.1822,0.1883,0.1933,0.2055,0.2187,0.2092,0.2038,0.1974,0.2006,0.2079,0.2075,0.2047,0.1998,0.2111,0.2094,0.2065,0.2095,0.2158,0.2099,0.2193,0.2192,0.2284,0.2652,0.2991,0.3157,0.3103,0.3089,0.3131,0.3306,0.3464,0.3602,0.3598,0.3589,0.365,0.3689,0.3705,0.4246,0.5119,0.5622,0.6144,0.6687,0.7519,0.7591,0.8149,0.8924,0.9684,1.0263,1.1005,1.1806,1.1837,1.1979,1.2333,-1.5688,-1.5601,-1.5601,-1.5601,-1.5601,-1.5601,-1.5601,-1.5601,-1.5601,-1.5601,-1.5601,-1.5601,-1.5601,-1.5601,-1.5601,-1.5601,-1.5512,-1.4272,-1.3699,-1.3515,-1.1641,-1.074,-1.0646,-1.0074,-0.9383,-0.8656,-0.8596,-0.8236,-0.7561,-0.7279,-0.7022,-0.6746,-0.6706,-0.6675,-0.6613,-0.6425,-0.6259,-0.6058,-0.5903,-0.569,-0.5441,-0.5343,-0.5269,-0.529,-0.5191,-0.4972,-0.4563,-0.4468,-0.4276,-0.3829,-0.3186,-0.2819,-0.2903,-0.2219,-0.1617,-0.118,-0.156,-0.1898,-0.1986,-0.1507,-0.125,-0.1251,-0.0738,-0.0387,-0.0358,0.0303,0.0822,0.097,0.1544,0.197,0.1938,0.197,0.1945,0.1956,0.1958,0.1963,0.2006,0.2008,0.2008,0.2008,0.2008,0.2008,0.2038,0.216,0.2345,0.2529,0.2775,0.2913,0.2903,0.2894,0.2933,0.301,0.3226,0.3498,0.3662,0.3722,0.3736,0.3758,0.3792,0.4202,0.447,0.468,0.4926,0.5567,0.5722,0.609,0.6606,0.7126,0.7797,0.9107,1.0819,1.1806,1.1806,1.1893,1.2066,-1.5888,-1.5868,-1.5828,-1.5804,-1.575,-1.575,-1.5685,-1.5596,-1.5601,-1.5601,-1.5601,-1.5601,-1.5601,-1.5601,-1.5601,-1.5601,-1.5477,-1.4634,-1.4237,-1.4058,-1.2852,-1.2243,-1.2217,-1.1822,-1.1219,-1.0434,-1.0283,-0.9653,-0.8538,-0.8175,-0.7735,-0.7213,-0.7082,-0.7073,-0.6941,-0.685,-0.6685,-0.6448,-0.6307,-0.6116,-0.5885,-0.5776,-0.5651,-0.5473,-0.5337,-0.5299,-0.5295,-0.5264,-0.5256,-0.5266,-0.4457,-0.4032,-0.4108,-0.3291,-0.2836,-0.281,-0.2582,-0.2641,-0.3022,-0.2742,-0.2572,-0.2546,-0.225,-0.2028,-0.185,-0.1102,-0.0585,-0.0492,0.0339,0.1017,0.1977,0.2008,0.2008,0.2008,0.2008,0.2008,0.2008,0.2008,0.2008,0.2008,0.2008,0.2008,0.2038,0.2192,0.2314,0.2376,0.2561,0.2707,0.2678,0.264,0.2629,0.2718,0.3012,0.3296,0.3601,0.373,0.3771,0.3859,0.3891,0.3886,0.3909,0.3928,0.3918,0.4653,0.4102,0.4195,0.5204,0.5663,0.6792,0.9015,1.0573,1.1436,1.1746,1.1776,1.1893,-1.6694,-1.6519,-1.6473,-1.6307,-1.6081,-1.6081,-1.5868,-1.5601,-1.5601,-1.5601,-1.5601,-1.5601,-1.5601,-1.5601,-1.5601,-1.5601,-1.5572,-1.5477,-1.5418,-1.5269,-1.4177,-1.3605,-1.3511,-1.2337,-1.1701,-1.1641,-1.1641,-1.0982,-0.9771,-0.9684,-0.9076,-0.795,-0.7883,-0.7853,-0.7732,-0.7433,-0.7269,-0.714,-0.6796,-0.6562,-0.6532,-0.6518,-0.6212,-0.5712,-0.5541,-0.5553,-0.5598,-0.5587,-0.5585,-0.5591,-0.5463,-0.5441,-0.5451,-0.5362,-0.5268,-0.5218,-0.4371,-0.429,-0.5013,-0.4327,-0.3759,-0.3614,-0.2892,-0.212,-0.2392,-0.209,-0.194,-0.1909,-0.1666,-0.0617,0.13,0.167,0.1884,0.2008,0.2008,0.201,0.2008,0.2011,0.2008,0.2008,0.2008,0.2008,0.2008,0.2008,0.2069,0.2069,0.2069,0.2097,0.2157,0.2094,0.2214,0.2487,0.2787,0.3077,0.3295,0.3619,0.3816,0.3869,0.3901,0.3912,0.392,0.3919,0.3919,0.3919,0.3919,0.4011,0.4225,0.5266,0.6914,0.8556,0.9623,1.0418,1.1591,1.1776,1.1863,-1.8489,-1.7724,-1.7724,-1.7091,-1.614,-1.6116,-1.5898,-1.5601,-1.5601,-1.5601,-1.5601,-1.5601,-1.5601,-1.5601,-1.5601,-1.5601,-1.5601,-1.5601,-1.5601,-1.5542,-1.5116,-1.4902,-1.4873,-1.4386,-1.3725,-1.3062,-1.2967,-1.2307,-1.1163,-1.1008,-1.0377,-0.9319,-0.914,-0.8748,-0.8014,-0.7737,-0.7597,-0.7382,-0.719,-0.6995,-0.6802,-0.6749,-0.6623,-0.6441,-0.6291,-0.6192,-0.6226,-0.6026,-0.5913,-0.5913,-0.5706,-0.5586,-0.5586,-0.5586,-0.5642,-0.5695,-0.5342,-0.5307,-0.5662,-0.5422,-0.5133,-0.5104,-0.4758,-0.4409,-0.4341,-0.3756,-0.3242,-0.3207,-0.2498,-0.1504,-0.0851,0.0125,0.1049,0.1824,0.1992,0.1903,0.2016,0.2023,0.2028,0.2012,0.2008,0.2008,0.2008,0.2008,0.2008,0.2008,0.2008,0.2008,0.2008,0.2008,0.2069,0.2192,0.2467,0.2704,0.2772,0.3461,0.3866,0.3877,0.3893,0.3893,0.3916,0.3919,0.3919,0.3919,0.3919,0.3919,0.4133,0.4838,0.6578,0.7795,0.883,0.9717,1.1561,1.1375,1.153,-2.0035,-1.9328,-1.927,-1.8383,-1.7026,-1.6973,-1.6537,-1.5952,-1.5779,-1.575,-1.575,-1.5631,-1.5601,-1.5601,-1.5601,-1.5601,-1.5601,-1.5601,-1.5601,-1.5601,-1.5601,-1.5601,-1.5601,-1.5601,-1.5175,-1.4421,-1.4301,-1.3635,-1.2487,-1.2363,-1.1645,-1.0468,-1.0407,-0.9771,-0.8717,-0.8535,-0.8233,-0.7719,-0.7536,-0.7444,-0.7255,-0.716,-0.7185,-0.72,-0.7085,-0.6921,-0.6713,-0.6478,-0.6359,-0.633,-0.6149,-0.5969,-0.5879,-0.5762,-0.5729,-0.5816,-0.5825,-0.5849,-0.591,-0.5914,-0.59,-0.5935,-0.5959,-0.6002,-0.5909,-0.5154,-0.4771,-0.4553,-0.4057,-0.3346,-0.2749,-0.1928,-0.0813,0.0344,0.0631,0.0854,0.1254,0.1321,0.1534,0.189,0.2008,0.2008,0.2008,0.2008,0.2008,0.2008,0.2008,0.2008,0.2008,0.2008,0.2008,0.2038,0.2314,0.2497,0.264,0.3127,0.3588,0.3658,0.3847,0.3885,0.3888,0.3888,0.3919,0.3919,0.3919,0.3919,0.4195,0.4776,0.5784,0.7065,0.7581,0.8224,0.9599,1.0762,1.0853,-2.1151,-2.1073,-2.1094,-2.0178,-1.8835,-1.8726,-1.7917,-1.6708,-1.6312,-1.6229,-1.6052,-1.5779,-1.5631,-1.5601,-1.5601,-1.5601,-1.5601,-1.5601,-1.5601,-1.5601,-1.5601,-1.5601,-1.5601,-1.5601,-1.5572,-1.5418,-1.5512,-1.4902,-1.3759,-1.366,-1.3032,-1.1942,-1.1732,-1.1068,-0.9832,-0.9771,-0.9201,-0.8294,-0.8052,-0.7961,-0.79,-0.7831,-0.78,-0.7841,-0.782,-0.751,-0.6945,-0.6912,-0.6872,-0.6879,-0.6851,-0.674,-0.6381,-0.6137,-0.5939,-0.6004,-0.5949,-0.5949,-0.597,-0.6042,-0.6085,-0.6061,-0.6125,-0.6151,-0.6113,-0.6055,-0.5968,-0.5919,-0.5859,-0.5511,-0.4453,-0.4093,-0.3374,-0.238,-0.1703,-0.1222,-0.0416,-0.0063,0.047,0.1673,0.2008,0.2008,0.2008,0.2008,0.2008,0.2008,0.2008,0.2008,0.2008,0.2008,0.2008,0.2038,0.2191,0.2376,0.256,0.2805,0.3114,0.3393,0.367,0.3826,0.3826,0.3826,0.3888,0.3919,0.3919,0.3919,0.3919,0.447,0.4991,0.5968,0.6305,0.7004,0.8285,0.9505,0.9869,-2.3171,-2.2459,-2.243,-2.1508,-2.0192,-2.0106,-1.9219,-1.787,-1.7701,-1.7103,-1.6229,-1.5992,-1.5815,-1.5631,-1.5601,-1.5601,-1.5601,-1.5601,-1.5601,-1.5601,-1.5601,-1.5601,-1.5601,-1.5601,-1.5601,-1.5601,-1.5601,-1.5418,-1.5056,-1.4992,-1.4326,-1.3301,-1.3092,-1.2367,-1.1189,-1.1099,-1.0498,-0.9353,-0.9201,-0.8836,-0.8022,-0.7933,-0.7903,-0.7903,-0.7903,-0.778,-0.76,-0.7355,-0.7266,-0.7271,-0.7023,-0.6839,-0.6749,-0.6655,-0.6626,-0.6714,-0.6723,-0.6759,-0.6821,-0.6633,-0.6494,-0.6436,-0.633,-0.6212,-0.6182,-0.6218,-0.6247,-0.6261,-0.6274,-0.6031,-0.5888,-0.5804,-0.4766,-0.2485,-0.2176,-0.2171,-0.1529,-0.0659,0.0528,0.1701,0.2008,0.2008,0.2008,0.2008,0.2008,0.2008,0.2008,0.2008,0.2008,0.2008,0.2008,0.2038,0.2161,0.2222,0.2314,0.2468,0.2684,0.3054,0.3363,0.3703,0.3734,0.3826,0.3888,0.3919,0.3919,0.3919,0.3919,0.4134,0.4624,0.5206,0.5845,0.6698,0.7642,0.8191,0.8556,-2.4359,-2.3692,-2.3664,-2.2862,-2.1601,-2.1551,-2.0737,-1.9508,-1.9305,-1.8448,-1.7291,-1.7003,-1.6624,-1.6157,-1.5935,-1.591,-1.5916,-1.582,-1.5712,-1.5612,-1.5601,-1.5601,-1.5601,-1.5601,-1.5601,-1.5601,-1.5601,-1.5601,-1.5601,-1.5572,-1.5175,-1.451,-1.4391,-1.3754,-1.2573,-1.2397,-1.1792,-1.0706,-1.0495,-1.0135,-0.9393,-0.8888,-0.867,-0.8617,-0.8259,-0.8036,-0.8005,-0.7821,-0.7676,-0.7619,-0.7361,-0.7199,-0.7199,-0.7113,-0.7106,-0.7154,-0.7175,-0.7204,-0.7269,-0.7082,-0.6979,-0.6916,-0.6684,-0.6575,-0.6608,-0.651,-0.638,-0.6518,-0.6434,-0.6425,-0.6473,-0.6487,-0.5596,-0.4068,-0.3892,-0.3533,-0.2937,-0.1638,-0.028,0.0775,0.1203,0.1482,0.1853,0.2008,0.2008,0.2008,0.2008,0.2008,0.2008,0.2008,0.2008,0.2008,0.2038,0.2069,0.2038,0.216,0.2284,0.2654,0.3055,0.3394,0.3579,0.3796,0.3919,0.3919,0.3919,0.3919,0.3919,0.3919,0.4225,0.4838,0.5297,0.5448,0.5968,0.6759,0.734,-2.4793,-2.4821,-2.4793,-2.41,-2.3123,-2.3059,-2.231,-2.1244,-2.0938,-1.9991,-1.8835,-1.8376,-1.7771,-1.6953,-1.6546,-1.6489,-1.6464,-1.6216,-1.5936,-1.5771,-1.5698,-1.5698,-1.5666,-1.5623,-1.5601,-1.5601,-1.5601,-1.5601,-1.5601,-1.5601,-1.5601,-1.5453,-1.5359,-1.5021,-1.3998,-1.3814,-1.3151,-1.2006,-1.1822,-1.1736,-1.1438,-1.0595,-1.0101,-1.005,-0.9035,-0.8439,-0.8479,-0.8305,-0.8145,-0.8063,-0.7833,-0.7713,-0.7672,-0.7493,-0.7382,-0.7436,-0.738,-0.7421,-0.7411,-0.7459,-0.7442,-0.7414,-0.7112,-0.7121,-0.7193,-0.6785,-0.6554,-0.6767,-0.6606,-0.6514,-0.6487,-0.6487,-0.6345,-0.6449,-0.5982,-0.5412,-0.4299,-0.292,-0.1674,-0.0465,-0.0031,0.0432,0.1605,0.1822,0.2008,0.2008,0.2008,0.2008,0.2008,0.2008,0.2008,0.2008,0.2008,0.2008,0.2007,0.2038,0.2161,0.2346,0.2716,0.3085,0.3455,0.3702,0.3888,0.3919,0.3919,0.3919,0.3919,0.3919,0.3919,0.4256,0.4287,0.398,0.4409,0.5387,0.6272,-2.4821,-2.4821,-2.4821,-2.4618,-2.4331,-2.4331,-2.3608,-2.2572,-2.243,-2.1059,-1.9252,-1.8939,-1.8287,-1.7016,-1.7034,-1.6954,-1.68,-1.6641,-1.6409,-1.614,-1.6129,-1.6011,-1.5868,-1.5707,-1.5612,-1.5618,-1.5623,-1.5601,-1.5601,-1.5601,-1.5601,-1.5601,-1.5572,-1.5453,-1.5116,-1.5021,-1.4421,-1.3361,-1.3151,-1.2676,-1.1907,-1.1528,-1.1355,-1.1422,-1.0242,-0.9664,-0.9621,-0.8831,-0.828,-0.8201,-0.8116,-0.8071,-0.8055,-0.7994,-0.7966,-0.8031,-0.808,-0.8144,-0.8179,-0.802,-0.791,-0.7882,-0.7365,-0.7054,-0.7087,-0.6755,-0.6587,-0.6621,-0.652,-0.6487,-0.6487,-0.6487,-0.6487,-0.6479,-0.6436,-0.5821,-0.4586,-0.3822,-0.3047,-0.173,-0.0678,-0.0031,0.0617,0.1327,0.1915,0.1977,0.2008,0.2008,0.2008,0.2008,0.2008,0.2008,0.2008,0.2008,0.2008,0.2008,0.2038,0.2099,0.2407,0.2775,0.3177,0.3579,0.3796,0.3919,0.3919,0.3919,0.3919,0.3919,0.3919,0.3919,0.3919,0.3919,0.3919,0.4501,0.5235,-2.4821,-2.4821,-2.4821,-2.4821,-2.4821,-2.4821,-2.4415,-2.384,-2.3728,-2.2353,-2.0373,-2.0087,-1.923,-1.7756,-1.7667,-1.7575,-1.7383,-1.7233,-1.6928,-1.6524,-1.6358,-1.6221,-1.6086,-1.5941,-1.5849,-1.5777,-1.5777,-1.5717,-1.5618,-1.5601,-1.5601,-1.5601,-1.5601,-1.5601,-1.5542,-1.5572,-1.5352,-1.4751,-1.4651,-1.4288,-1.3672,-1.3154,-1.3,-1.2871,-1.1882,-1.1058,-1.0446,-0.9202,-0.8402,-0.8318,-0.8321,-0.8383,-0.8353,-0.8383,-0.8418,-0.8489,-0.8492,-0.8522,-0.8535,-0.8423,-0.8323,-0.8189,-0.7622,-0.7388,-0.7321,-0.6922,-0.652,-0.6719,-0.6587,-0.652,-0.6487,-0.6487,-0.6487,-0.6479,-0.6374,-0.5954,-0.5094,-0.505,-0.428,-0.3101,-0.2123,-0.1078,-0.0246,0.0709,0.1358,0.1822,0.2008,0.2008,0.2008,0.2008,0.2008,0.2008,0.2008,0.2008,0.2008,0.2008,0.2008,0.2069,0.2283,0.2621,0.3054,0.3517,0.3734,0.3888,0.3888,0.3919,0.3919,0.3919,0.3919,0.3919,0.3919,0.3919,0.3919,0.3919,0.4593,-2.4821,-2.4821,-2.4821,-2.4821,-2.4821,-2.4821,-2.4738,-2.4738,-2.4451,-2.3258,-2.1635,-2.1335,-2.0047,-1.8705,-1.8354,-1.8264,-1.8207,-1.7903,-1.7494,-1.7048,-1.6723,-1.6524,-1.6513,-1.6311,-1.6176,-1.6041,-1.605,-1.5922,-1.5795,-1.5725,-1.5671,-1.5682,-1.5666,-1.5623,-1.5612,-1.5601,-1.5755,-1.5791,-1.5721,-1.5772,-1.5577,-1.5044,-1.4697,-1.4534,-1.3184,-1.1661,-1.0425,-0.9232,-0.853,-0.8405,-0.8535,-0.8557,-0.8571,-0.8579,-0.8579,-0.8573,-0.8571,-0.8576,-0.862,-0.8587,-0.8587,-0.8454,-0.7922,-0.7691,-0.7758,-0.719,-0.6686,-0.692,-0.6688,-0.652,-0.6487,-0.6487,-0.6487,-0.6475,-0.6374,-0.628,-0.6204,-0.6174,-0.5621,-0.433,-0.4031,-0.2646,-0.1108,0.0031,0.0524,0.1853,0.2008,0.2008,0.2008,0.2008,0.2008,0.2008,0.2008,0.2008,0.2008,0.2008,0.2008,0.2038,0.2314,0.2651,0.3085,0.3486,0.3734,0.3888,0.3888,0.3919,0.3919,0.3919,0.3919,0.3919,0.3919,0.3919,0.3919,0.3919,0.4318,-2.4821,-2.4821,-2.4821,-2.4821,-2.4821,-2.4821,-2.4821,-2.4738,-2.3784,-2.2754,-2.1547,-2.0763,-1.9789,-1.8735,-1.8784,-1.8764,-1.8523,-1.8401,-1.8154,-1.7769,-1.7406,-1.7246,-1.7057,-1.6648,-1.6307,-1.6237,-1.6231,-1.6199,-1.6114,-1.6055,-1.6054,-1.5922,-1.5895,-1.5809,-1.5639,-1.5639,-1.5744,-1.5969,-1.6017,-1.6133,-1.6312,-1.6128,-1.5961,-1.5942,-1.4049,-1.1604,-0.9576,-0.8753,-0.8573,-0.8562,-0.8571,-0.862,-0.862,-0.862,-0.862,-0.862,-0.862,-0.862,-0.862,-0.862,-0.862,-0.8554,-0.8223,-0.7992,-0.8025,-0.7388,-0.6951,-0.6918,-0.6686,-0.6554,-0.6487,-0.6487,-0.6487,-0.647,-0.6372,-0.6284,-0.6196,-0.6093,-0.5784,-0.536,-0.4524,-0.3322,-0.1785,-0.0616,0.0308,0.1605,0.2008,0.2008,0.2008,0.2008,0.2008,0.2008,0.2008,0.2008,0.2008,0.2008,0.2008,0.2008,0.2253,0.2621,0.3085,0.3362,0.3579,0.3765,0.3888,0.3919,0.3919,0.3919,0.3919,0.3919,0.3919,0.3919,0.3919,0.3919,0.398,-2.4821,-2.4821,-2.4821,-2.4821,-2.4821,-2.4821,-2.4821,-2.4562,-2.3524,-2.2517,-2.1612,-2.0586,-1.9643,-1.8924,-1.9012,-1.8982,-1.8828,-1.8673,-1.8501,-1.8162,-1.7781,-1.7497,-1.741,-1.6966,-1.6592,-1.6501,-1.6479,-1.6431,-1.6344,-1.6317,-1.6231,-1.6165,-1.6149,-1.6019,-1.5831,-1.5798,-1.5903,-1.6081,-1.6154,-1.628,-1.6576,-1.664,-1.6673,-1.6509,-1.4846,-1.2701,-1.0925,-0.9941,-0.9283,-0.8787,-0.862,-0.862,-0.862,-0.862,-0.862,-0.862,-0.862,-0.862,-0.862,-0.862,-0.862,-0.8587,-0.8289,-0.8156,-0.7992,-0.7555,-0.7187,-0.702,-0.6851,-0.6686,-0.652,-0.6487,-0.6487,-0.647,-0.6372,-0.6298,-0.6235,-0.6101,-0.5987,-0.5822,-0.5298,-0.4278,-0.3046,-0.17,-0.0432,0.0649,0.1856,0.1918,0.2008,0.2008,0.2008,0.2008,0.2008,0.2008,0.2008,0.2008,0.2008,0.2038,0.2099,0.2499,0.2961,0.3208,0.3394,0.364,0.3919,0.3919,0.3919,0.3919,0.3919,0.3919,0.3919,0.3919,0.3919,0.3919,0.3919,-2.4821,-2.4821,-2.4821,-2.4821,-2.4821,-2.4821,-2.4821,-2.4654,-2.3589,-2.2642,-2.1806,-2.0674,-1.9815,-1.9204,-1.9098,-1.9104,-1.9014,-1.8854,-1.8699,-1.8597,-1.7948,-1.7658,-1.7507,-1.7167,-1.6861,-1.6753,-1.6742,-1.664,-1.6501,-1.6414,-1.6457,-1.6382,-1.6366,-1.6231,-1.609,-1.6046,-1.6154,-1.6334,-1.6371,-1.6538,-1.685,-1.6872,-1.6813,-1.6111,-1.5404,-1.3951,-1.2405,-1.1226,-1.011,-0.9017,-0.872,-0.862,-0.862,-0.862,-0.862,-0.862,-0.862,-0.862,-0.862,-0.862,-0.8587,-0.8587,-0.8356,-0.8223,-0.8089,-0.7858,-0.7557,-0.7288,-0.7085,-0.6819,-0.6554,-0.6487,-0.6487,-0.647,-0.637,-0.629,-0.6253,-0.6138,-0.6028,-0.5967,-0.5718,-0.5038,-0.4026,-0.2841,-0.1586,-0.031,0.09,0.1832,0.1893,0.2021,0.2028,0.2035,0.2041,0.203,0.2027,0.2024,0.2022,0.2016,0.2045,0.2386,0.2823,0.3062,0.3316,0.371,0.3919,0.392,0.392,0.3919,0.3919,0.3919,0.3919,0.3919,0.3919,0.3919,0.3924,-2.4821,-2.4821,-2.4821,-2.4821,-2.4821,-2.4821,-2.4821,-2.465,-2.378,-2.2842,-2.1864,-2.0961,-1.9975,-1.9324,-1.9104,-1.9104,-1.9078,-1.8982,-1.8982,-1.8848,-1.8264,-1.7948,-1.7749,-1.7324,-1.7033,-1.6958,-1.6926,-1.6877,-1.6861,-1.6883,-1.6737,-1.663,-1.6634,-1.651,-1.6312,-1.6269,-1.635,-1.6527,-1.6571,-1.6758,-1.6899,-1.6835,-1.6365,-1.5643,-1.5268,-1.4404,-1.2964,-1.1556,-1.0571,-1.0273,-0.9217,-0.872,-0.862,-0.862,-0.862,-0.862,-0.862,-0.862,-0.862,-0.862,-0.862,-0.8587,-0.852,-0.8487,-0.8423,-0.8225,-0.7956,-0.7722,-0.7285,-0.6853,-0.6554,-0.652,-0.6487,-0.6464,-0.6386,-0.6294,-0.6272,-0.6241,-0.6172,-0.6141,-0.601,-0.5797,-0.4788,-0.3827,-0.2656,-0.1327,-0.0032,0.1014,0.1522,0.1812,0.2074,0.208,0.2084,0.2067,0.2018,0.2015,0.2011,0.2001,0.2062,0.2221,0.2607,0.2892,0.324,0.364,0.385,0.3897,0.3896,0.3922,0.3928,0.3935,0.3928,0.3923,0.3947,0.3968,0.395,-2.4821,-2.4821,-2.4821,-2.4821,-2.4821,-2.4821,-2.4821,-2.4644,-2.3683,-2.2734,-2.1829,-2.0848,-1.9929,-1.9262,-1.9104,-1.9104,-1.9104,-1.9104,-1.9104,-1.8944,-1.8565,-1.8173,-1.8001,-1.7453,-1.7195,-1.7066,-1.7001,-1.7001,-1.7001,-1.699,-1.6937,-1.6909,-1.6872,-1.6721,-1.6544,-1.6501,-1.6586,-1.6694,-1.6715,-1.6807,-1.6974,-1.6872,-1.6359,-1.609,-1.5818,-1.5256,-1.3951,-1.2537,-1.1424,-1.0601,-0.9347,-0.8753,-0.862,-0.862,-0.862,-0.862,-0.862,-0.862,-0.862,-0.862,-0.862,-0.862,-0.862,-0.862,-0.8587,-0.8423,-0.8289,-0.7989,-0.7455,-0.6953,-0.6788,-0.6621,-0.652,-0.6514,-0.6442,-0.6421,-0.6409,-0.6372,-0.6349,-0.6323,-0.619,-0.5955,-0.5554,-0.4587,-0.3632,-0.2381,-0.1031,-0.0032,0.0841,0.1457,0.1817,0.2107,0.2108,0.2096,0.2048,0.2043,0.2035,0.2024,0.2055,0.2216,0.2414,0.2731,0.3145,0.3596,0.375,0.3878,0.39,0.3895,0.3908,0.3957,0.3965,0.3977,0.4001,0.4011,0.3997,-2.4821,-2.4821,-2.4821,-2.4821,-2.4821,-2.4821,-2.4821,-2.4635,-2.3939,-2.3134,-2.2178,-2.1159,-2.0292,-1.9599,-1.9264,-1.9104,-1.9104,-1.9104,-1.9104,-1.9014,-1.8731,-1.8372,-1.8007,-1.7653,-1.733,-1.7034,-1.7001,-1.7001,-1.7001,-1.7001,-1.7001,-1.6974,-1.699,-1.6931,-1.6796,-1.6732,-1.6764,-1.6764,-1.6769,-1.6861,-1.6936,-1.698,-1.6974,-1.6958,-1.6974,-1.6381,-1.5331,-1.3984,-1.2574,-1.1292,-0.9975,-0.8953,-0.8687,-0.862,-0.862,-0.862,-0.862,-0.862,-0.862,-0.862,-0.862,-0.862,-0.862,-0.862,-0.8587,-0.8556,-0.8423,-0.8056,-0.7655,-0.7152,-0.6985,-0.6753,-0.6587,-0.6487,-0.6487,-0.6485,-0.6477,-0.646,-0.6452,-0.6405,-0.6325,-0.6168,-0.5875,-0.5624,-0.4723,-0.3738,-0.2396,-0.1509,-0.0558,0.0787,0.1344,0.1931,0.2125,0.212,0.2078,0.2074,0.2096,0.2081,0.2087,0.2159,0.2358,0.2564,0.3007,0.342,0.3729,0.3858,0.3865,0.3924,0.3992,0.4018,0.4019,0.4028,0.4047,0.4058,0.4054,-2.4821,-2.4821,-2.4821,-2.4821,-2.4821,-2.4821,-2.4821,-2.4808,-2.4915,-2.4552,-2.3441,-2.2532,-2.1544,-2.0542,-1.9482,-1.9136,-1.9104,-1.9104,-1.9104,-1.9046,-1.8796,-1.8437,-1.8007,-1.7653,-1.733,-1.7066,-1.7001,-1.7001,-1.7001,-1.7001,-1.7001,-1.7001,-1.7001,-1.6974,-1.6926,-1.691,-1.6964,-1.6958,-1.6953,-1.6883,-1.6823,-1.6953,-1.6888,-1.6872,-1.6899,-1.6877,-1.6348,-1.5131,-1.3853,-1.2606,-1.116,-0.9878,-0.8887,-0.862,-0.862,-0.862,-0.862,-0.862,-0.862,-0.862,-0.862,-0.862,-0.862,-0.862,-0.862,-0.8587,-0.8487,-0.8123,-0.7956,-0.7622,-0.7185,-0.6987,-0.6786,-0.6621,-0.6487,-0.6487,-0.6487,-0.6487,-0.6487,-0.6483,-0.6403,-0.6419,-0.6301,-0.6146,-0.5823,-0.4848,-0.3875,-0.2934,-0.183,-0.0365,0.1194,0.1888,0.2151,0.2146,0.2142,0.2138,0.2129,0.2112,0.212,0.2164,0.2297,0.2496,0.2789,0.3208,0.3526,0.3875,0.403,0.4074,0.4078,0.4078,0.4081,0.4082,0.4086,0.4097,0.4118,-2.4821,-2.4821,-2.4821,-2.4821,-2.4821,-2.4821,-2.4821,-2.4855,-2.4956,-2.4629,-2.3762,-2.2654,-2.1361,-2.0163,-1.9264,-1.9104,-1.9104,-1.9104,-1.9104,-1.9104,-1.8918,-1.8559,-1.8103,-1.7846,-1.755,-1.7098,-1.7001,-1.7001,-1.7001,-1.7001,-1.7001,-1.7001,-1.7001,-1.7001,-1.7001,-1.7001,-1.7001,-1.6996,-1.699,-1.6953,-1.691,-1.6937,-1.6958,-1.6893,-1.6958,-1.699,-1.6678,-1.5661,-1.4744,-1.3591,-1.2018,-1.0505,-0.9712,-0.9117,-0.862,-0.862,-0.862,-0.862,-0.862,-0.862,-0.862,-0.862,-0.862,-0.862,-0.862,-0.8587,-0.8554,-0.839,-0.8189,-0.7822,-0.7388,-0.7121,-0.6819,-0.6621,-0.652,-0.6487,-0.6487,-0.6487,-0.6487,-0.6487,-0.6487,-0.6487,-0.6487,-0.6382,-0.6209,-0.5702,-0.4759,-0.3817,-0.2576,-0.1137,0.0502,0.2047,0.2179,0.2177,0.2172,0.2168,0.2166,0.2155,0.2156,0.2197,0.2262,0.2462,0.2755,0.3123,0.3522,0.3842,0.4088,0.415,0.4115,0.4126,0.4145,0.4151,0.4161,0.4189,0.4338,-2.4821,-2.4821,-2.4821,-2.4821,-2.4821,-2.4821,-2.4821,-2.4821,-2.4838,-2.4666,-2.4082,-2.2902,-2.1283,-1.9808,-1.936,-1.9104,-1.9104,-1.9104,-1.9104,-1.9104,-1.9008,-1.8655,-1.82,-1.7937,-1.7615,-1.7001,-1.7001,-1.7001,-1.7001,-1.7001,-1.7001,-1.7001,-1.7001,-1.7001,-1.7001,-1.7001,-1.7001,-1.7001,-1.7001,-1.6996,-1.699,-1.699,-1.7001,-1.6996,-1.7001,-1.7001,-1.6839,-1.6154,-1.5499,-1.4385,-1.3165,-1.1787,-1.0634,-0.9812,-0.905,-0.8817,-0.862,-0.862,-0.862,-0.862,-0.862,-0.862,-0.862,-0.862,-0.862,-0.862,-0.8587,-0.8556,-0.8387,-0.8056,-0.7691,-0.7357,-0.702,-0.6786,-0.6587,-0.6554,-0.6487,-0.6487,-0.6487,-0.6487,-0.6487,-0.6487,-0.6487,-0.6487,-0.642,-0.6317,-0.5612,-0.467,-0.3224,-0.1712,-0.0067,0.1649,0.2188,0.2186,0.2186,0.2186,0.2188,0.2188,0.2188,0.2221,0.2247,0.238,0.2647,0.3056,0.3498,0.3823,0.4095,0.4119,0.415,0.4181,0.4243,0.4227,0.4278,0.4301,0.4371,-2.4821,-2.4821,-2.4821,-2.4821,-2.4821,-2.4821,-2.4821,-2.4821,-2.4821,-2.5071,-2.5106,-2.3787,-2.212,-2.0854,-1.9641,-1.9104,-1.9104,-1.9104,-1.9104,-1.9104,-1.904,-1.8688,-1.8264,-1.7969,-1.7679,-1.7136,-1.7007,-1.7001,-1.7001,-1.7001,-1.7001,-1.7001,-1.7001,-1.7001,-1.7001,-1.7001,-1.7001,-1.7001,-1.7001,-1.7001,-1.7001,-1.7001,-1.7001,-1.7001,-1.7001,-1.7001,-1.7001,-1.6742,-1.6219,-1.5206,-1.4385,-1.3005,-1.1391,-1.0535,-0.9809,-0.8853,-0.862,-0.862,-0.862,-0.862,-0.862,-0.862,-0.862,-0.862,-0.862,-0.862,-0.862,-0.862,-0.8487,-0.8323,-0.7992,-0.7724,-0.7257,-0.6853,-0.6587,-0.652,-0.6487,-0.6487,-0.6487,-0.6487,-0.6487,-0.6487,-0.6487,-0.6487,-0.6487,-0.642,-0.625,-0.5342,-0.3558,-0.1981,-0.0403,0.1042,0.1918,0.2188,0.2188,0.2188,0.2188,0.2188,0.2188,0.2188,0.222,0.239,0.2626,0.2928,0.3363,0.3733,0.4069,0.4134,0.4219,0.4283,0.4303,0.4297,0.4296,0.4303,0.4307,-2.4821,-2.4821,-2.4821,-2.4821,-2.4821,-2.4821,-2.4821,-2.4821,-2.4802,-2.4714,-2.4688,-2.3528,-2.2358,-2.1051,-1.9763,-1.9104,-1.9104,-1.9104,-1.9104,-1.9104,-1.904,-1.8784,-1.8425,-1.8071,-1.7744,-1.733,-1.7104,-1.7001,-1.7001,-1.7001,-1.7001,-1.7001,-1.7001,-1.7001,-1.7001,-1.7001,-1.7001,-1.7001,-1.7001,-1.7001,-1.7001,-1.7001,-1.7001,-1.7001,-1.7001,-1.7001,-1.7001,-1.7001,-1.6645,-1.6116,-1.5396,-1.3853,-1.2212,-1.1358,-1.014,-0.892,-0.872,-0.862,-0.862,-0.862,-0.862,-0.862,-0.862,-0.862,-0.862,-0.862,-0.862,-0.862,-0.8587,-0.842,-0.7791,-0.756,-0.7292,-0.6855,-0.6621,-0.652,-0.6487,-0.6487,-0.6487,-0.6487,-0.6487,-0.6487,-0.6487,-0.6487,-0.6487,-0.6487,-0.6317,-0.5813,-0.4029,-0.2383,-0.0839,0.0639,0.1581,0.2155,0.2188,0.2188,0.2188,0.2188,0.2188,0.2188,0.2223,0.2492,0.2727,0.2961,0.3229,0.3632,0.3969,0.4171,0.4273,0.4307,0.4307,0.4305,0.4305,0.4307,0.4307,-2.4821,-2.4821,-2.4821,-2.4821,-2.4821,-2.4821,-2.4821,-2.4821,-2.4821,-2.4751,-2.4453,-2.3909,-2.2952,-2.1605,-2.0354,-1.9386,-1.9232,-1.9104,-1.9104,-1.9104,-1.9072,-1.8816,-1.8463,-1.8109,-1.7749,-1.74,-1.7168,-1.7001,-1.7001,-1.7001,-1.7001,-1.7001,-1.7001,-1.7001,-1.7001,-1.7001,-1.7001,-1.7001,-1.7001,-1.7001,-1.7001,-1.7001,-1.7001,-1.7001,-1.7001,-1.7001,-1.7001,-1.7001,-1.7001,-1.664,-1.6019,-1.487,-1.3488,-1.2109,-1.0697,-0.9643,-0.8851,-0.862,-0.862,-0.862,-0.862,-0.862,-0.862,-0.862,-0.862,-0.862,-0.862,-0.862,-0.8587,-0.832,-0.7691,-0.7593,-0.7323,-0.692,-0.6621,-0.6487,-0.6487,-0.6487,-0.6487,-0.6487,-0.6487,-0.6487,-0.6487,-0.6487,-0.6487,-0.6487,-0.642,-0.5813,-0.4366,-0.2819,-0.141,0.0034,0.1345,0.1818,0.2188,0.2188,0.2188,0.2188,0.2188,0.2188,0.229,0.2492,0.266,0.2828,0.3129,0.3565,0.3867,0.4104,0.4239,0.4307,0.4307,0.4307,0.4307,0.4307,0.4307,-2.4821,-2.4821,-2.4821,-2.4821,-2.4821,-2.4821,-2.4821,-2.4819,-2.4887,-2.5179,-2.5549,-2.5095,-2.4263,-2.292,-2.1479,-2.0297,-1.9482,-1.9232,-1.9104,-1.9104,-1.9072,-1.8682,-1.8296,-1.8007,-1.7717,-1.7163,-1.7001,-1.7001,-1.7001,-1.7001,-1.7001,-1.7001,-1.7001,-1.7001,-1.7001,-1.7001,-1.7001,-1.7001,-1.7001,-1.7001,-1.7001,-1.7001,-1.7001,-1.7001,-1.7001,-1.7001,-1.7001,-1.7001,-1.7001,-1.6872,-1.6807,-1.5856,-1.4577,-1.3226,-1.1849,-1.0571,-0.9214,-0.8687,-0.862,-0.862,-0.862,-0.862,-0.862,-0.862,-0.862,-0.862,-0.862,-0.862,-0.8587,-0.8423,-0.8058,-0.7724,-0.7357,-0.6987,-0.6688,-0.6487,-0.6487,-0.6487,-0.6487,-0.6487,-0.6487,-0.6487,-0.6487,-0.6487,-0.6487,-0.6487,-0.6487,-0.578,-0.4669,-0.3122,-0.1745,-0.0571,0.084,0.1817,0.2188,0.2188,0.2188,0.2188,0.2188,0.2188,0.2188,0.229,0.2457,0.2659,0.3028,0.343,0.3767,0.407,0.4171,0.4307,0.4307,0.4307,0.4307,0.4307,0.4307,-2.4821,-2.4821,-2.4821,-2.4821,-2.4821,-2.4821,-2.4821,-2.4887,-2.5298,-2.5683,-2.5754,-2.5315,-2.4949,-2.3884,-2.2201,-2.0861,-2.0354,-1.9264,-1.9104,-1.9104,-1.9104,-1.8816,-1.8431,-1.8039,-1.7744,-1.7362,-1.7168,-1.7001,-1.7001,-1.7001,-1.7001,-1.7001,-1.7001,-1.7001,-1.7001,-1.7001,-1.7001,-1.7001,-1.7001,-1.7001,-1.7001,-1.7001,-1.7001,-1.7001,-1.7001,-1.7001,-1.7001,-1.7001,-1.7001,-1.7001,-1.7001,-1.6348,-1.507,-1.3722,-1.2274,-1.0833,-0.9446,-0.8653,-0.862,-0.862,-0.862,-0.8626,-0.8631,-0.8634,-0.859,-0.862,-0.862,-0.86,-0.8619,-0.8452,-0.8092,-0.7729,-0.7362,-0.702,-0.6753,-0.6554,-0.6487,-0.6487,-0.6487,-0.6487,-0.6487,-0.6489,-0.6489,-0.6489,-0.6487,-0.6487,-0.6487,-0.6487,-0.5679,-0.3625,-0.1947,-0.1007,0.0202,0.1446,0.2188,0.2188,0.2188,0.2188,0.2188,0.2188,0.2188,0.2188,0.2256,0.2424,0.2859,0.3262,0.3666,0.4003,0.4206,0.4307,0.4307,0.4307,0.4307,0.4307,0.4307,-2.4821,-2.4821,-2.4821,-2.4821,-2.4821,-2.4821,-2.4821,-2.493,-2.5571,-2.5905,-2.5892,-2.5775,-2.5478,-2.454,-2.2952,-2.1321,-2.1012,-1.9731,-1.9104,-1.9104,-1.9104,-1.8752,-1.8399,-1.8103,-1.7685,-1.74,-1.7168,-1.7001,-1.7001,-1.7001,-1.7001,-1.7001,-1.7001,-1.7001,-1.7001,-1.7001,-1.7001,-1.7001,-1.7001,-1.7001,-1.7001,-1.7001,-1.7001,-1.7001,-1.7001,-1.7001,-1.7001,-1.7001,-1.7001,-1.7001,-1.6839,-1.6575,-1.5461,-1.4283,-1.2898,-1.1487,-0.9676,-0.8851,-0.862,-0.8683,-0.8694,-0.8666,-0.8686,-0.8686,-0.8666,-0.8712,-0.8728,-0.8731,-0.8704,-0.8504,-0.8233,-0.7856,-0.7479,-0.7138,-0.684,-0.6643,-0.6579,-0.6583,-0.6563,-0.6555,-0.6536,-0.6526,-0.6503,-0.6489,-0.6487,-0.6487,-0.6487,-0.6487,-0.6319,-0.4197,-0.2248,-0.1343,-0.0034,0.1446,0.2155,0.2188,0.2188,0.2188,0.2188,0.2188,0.2188,0.2188,0.2188,0.2289,0.2792,0.3262,0.3632,0.3936,0.4205,0.4307,0.4307,0.4307,0.4307,0.4307,0.4307,-2.4821,-2.4821,-2.4821,-2.4821,-2.4821,-2.4821,-2.4821,-2.4862,-2.5563,-2.5879,-2.5936,-2.6615,-2.6169,-2.4963,-2.3605,-2.2295,-2.1012,-1.9699,-1.9232,-1.9072,-1.9014,-1.8591,-1.8232,-1.7942,-1.7556,-1.7195,-1.7001,-1.7001,-1.7001,-1.7001,-1.7001,-1.7001,-1.7001,-1.7001,-1.7001,-1.7001,-1.7001,-1.7001,-1.7001,-1.7001,-1.7001,-1.7001,-1.7001,-1.7001,-1.7001,-1.7001,-1.7001,-1.7001,-1.7001,-1.7001,-1.6969,-1.6969,-1.6478,-1.5629,-1.4245,-1.2372,-0.9908,-0.8984,-0.8637,-0.8713,-0.877,-0.8776,-0.8822,-0.8817,-0.8793,-0.884,-0.8824,-0.8841,-0.8835,-0.8652,-0.8461,-0.8038,-0.765,-0.7306,-0.6929,-0.676,-0.6692,-0.668,-0.6651,-0.6629,-0.6602,-0.6578,-0.6563,-0.6538,-0.653,-0.6518,-0.6514,-0.6487,-0.6016,-0.4366,-0.2685,-0.1745,-0.0302,0.1547,0.2087,0.2155,0.2188,0.2188,0.2188,0.2188,0.2188,0.2188,0.2188,0.2357,0.2859,0.333,0.3835,0.4104,0.4239,0.4307,0.4307,0.4307,0.4307,0.4307,0.4307,-2.4821,-2.4821,-2.4821,-2.4821,-2.4821,-2.4821,-2.4821,-2.487,-2.5335,-2.5669,-2.5919,-2.6439,-2.6138,-2.5002,-2.3705,-2.2414,-2.1076,-1.9884,-1.929,-1.904,-1.8886,-1.8463,-1.8103,-1.7749,-1.7389,-1.713,-1.7001,-1.7001,-1.7001,-1.7001,-1.7001,-1.7001,-1.7001,-1.7001,-1.7001,-1.7001,-1.7001,-1.7001,-1.7001,-1.7001,-1.7001,-1.7001,-1.7001,-1.7001,-1.7001,-1.7001,-1.7001,-1.7001,-1.7001,-1.7001,-1.7001,-1.7001,-1.6904,-1.5629,-1.4054,-1.1457,-0.9679,-0.8623,-0.8642,-0.8738,-0.8788,-0.8845,-0.8927,-0.8957,-0.8911,-0.8908,-0.8943,-0.8962,-0.8968,-0.8836,-0.8594,-0.8238,-0.7891,-0.7577,-0.7158,-0.6809,-0.6776,-0.6768,-0.6737,-0.6709,-0.6684,-0.6653,-0.6604,-0.6574,-0.6564,-0.6571,-0.6544,-0.6516,-0.5953,-0.4403,-0.3324,-0.2417,-0.0739,0.1042,0.1885,0.2121,0.2155,0.2188,0.2188,0.2188,0.2188,0.2188,0.2188,0.2457,0.2927,0.3498,0.4137,0.4273,0.4307,0.4307,0.4307,0.4307,0.4307,0.4307,0.4307,-2.4821,-2.4821,-2.4821,-2.4821,-2.4821,-2.4821,-2.4821,-2.4889,-2.5234,-2.5583,-2.5902,-2.6336,-2.626,-2.5812,-2.4571,-2.3232,-2.1888,-2.0671,-1.9763,-1.9014,-1.8731,-1.8366,-1.8007,-1.7653,-1.733,-1.7104,-1.7001,-1.7001,-1.7001,-1.7001,-1.7001,-1.7001,-1.7001,-1.7001,-1.7001,-1.7001,-1.7001,-1.7001,-1.7001,-1.7001,-1.7001,-1.7001,-1.7001,-1.7001,-1.7001,-1.7001,-1.7001,-1.7001,-1.7001,-1.7001,-1.7001,-1.7001,-1.6775,-1.5624,-1.4152,-1.1864,-1.0478,-0.9396,-0.8935,-0.8845,-0.8894,-0.8957,-0.9079,-0.913,-0.9092,-0.9084,-0.9087,-0.909,-0.9076,-0.8997,-0.8709,-0.8422,-0.8179,-0.7898,-0.7405,-0.6873,-0.6837,-0.6837,-0.6813,-0.678,-0.6754,-0.6727,-0.6694,-0.6664,-0.6637,-0.6623,-0.6586,-0.6573,-0.6062,-0.4957,-0.4104,-0.3358,-0.1478,0.0437,0.1144,0.1918,0.2155,0.2188,0.2188,0.2188,0.2188,0.2256,0.2323,0.2591,0.296,0.3565,0.4171,0.4273,0.4307,0.4307,0.4307,0.4307,0.4307,0.4307,0.4307,-2.4733,-2.4742,-2.4776,-2.4821,-2.4821,-2.4821,-2.4821,-2.4855,-2.5155,-2.5523,-2.5891,-2.6268,-2.6462,-2.5993,-2.5146,-2.3884,-2.2483,-2.117,-2.0043,-1.911,-1.8629,-1.827,-1.7975,-1.762,-1.7233,-1.7066,-1.7001,-1.7001,-1.7001,-1.7001,-1.7001,-1.7001,-1.7001,-1.7001,-1.7001,-1.7001,-1.7001,-1.7001,-1.7001,-1.7001,-1.7001,-1.7001,-1.7001,-1.7001,-1.7001,-1.7001,-1.7001,-1.7001,-1.7001,-1.7001,-1.7001,-1.7001,-1.6575,-1.5656,-1.418,-1.279,-1.1257,-1.0004,-0.9171,-0.8943,-0.9025,-0.91,-0.9234,-0.9256,-0.9242,-0.9228,-0.922,-0.922,-0.9174,-0.9066,-0.8813,-0.842,-0.81,-0.7778,-0.7347,-0.7027,-0.6917,-0.6915,-0.6898,-0.687,-0.6843,-0.6817,-0.6803,-0.6772,-0.6733,-0.6715,-0.667,-0.6611,-0.6251,-0.5395,-0.476,-0.4139,-0.2283,-0.047,0.0538,0.1312,0.202,0.2188,0.2188,0.2188,0.2188,0.2323,0.2457,0.2792,0.3127,0.3565,0.4037,0.4171,0.4307,0.4307,0.4307,0.4307,0.4307,0.4307,0.4307,-2.434,-2.4374,-2.4665,-2.4821,-2.4821,-2.4821,-2.4821,-2.4802,-2.4898,-2.5172,-2.5532,-2.5821,-2.5746,-2.5392,-2.542,-2.417,-2.2052,-2.158,-2.0354,-1.9226,-1.8463,-1.8173,-1.7905,-1.7459,-1.713,-1.7034,-1.7001,-1.7001,-1.7001,-1.7001,-1.7001,-1.7001,-1.7001,-1.7001,-1.7001,-1.7001,-1.7001,-1.7001,-1.7001,-1.7001,-1.7001,-1.7001,-1.7001,-1.7001,-1.7001,-1.7001,-1.7001,-1.7001,-1.7001,-1.7001,-1.7001,-1.7001,-1.6936,-1.5629,-1.4283,-1.2898,-1.1691,-1.043,-0.9345,-0.9011,-0.9095,-0.9141,-0.9195,-0.9277,-0.9299,-0.9304,-0.9304,-0.9304,-0.9232,-0.9088,-0.8837,-0.8403,-0.7971,-0.7643,-0.7317,-0.7172,-0.699,-0.6982,-0.6976,-0.6954,-0.6927,-0.6913,-0.6896,-0.6908,-0.6873,-0.6828,-0.6737,-0.668,-0.6621,-0.6056,-0.5396,-0.4629,-0.3057,-0.1477,-0.0369,0.0773,0.1548,0.2087,0.2188,0.2188,0.2188,0.2289,0.239,0.2859,0.3295,0.3632,0.3936,0.4206,0.4307,0.4307,0.4307,0.4307,0.4307,0.4307,0.4307,-2.4058,-2.4254,-2.4622,-2.4821,-2.4821,-2.4821,-2.4821,-2.4821,-2.4821,-2.4932,-2.5198,-2.56,-2.5654,-2.5403,-2.5781,-2.4448,-2.2264,-2.1863,-2.0639,-1.9348,-1.8302,-1.8007,-1.7653,-1.733,-1.713,-1.7001,-1.7001,-1.7001,-1.7001,-1.7001,-1.7001,-1.7001,-1.7001,-1.7001,-1.7001,-1.7001,-1.7001,-1.7001,-1.7001,-1.7001,-1.7001,-1.7001,-1.7001,-1.7001,-1.7001,-1.7001,-1.7001,-1.7001,-1.7001,-1.7001,-1.7001,-1.7001,-1.6904,-1.6353,-1.4861,-1.3415,-1.2116,-1.1019,-0.9683,-0.9035,-0.916,-0.9228,-0.9247,-0.9302,-0.9304,-0.9304,-0.9304,-0.9268,-0.9016,-0.8871,-0.8618,-0.8259,-0.7897,-0.7568,-0.7278,-0.7063,-0.699,-0.6986,-0.6982,-0.6976,-0.6962,-0.696,-0.6947,-0.6943,-0.6949,-0.6932,-0.6837,-0.6782,-0.6717,-0.6637,-0.603,-0.5332,-0.3917,-0.2588,-0.1444,-0.0101,0.1177,0.1649,0.2188,0.2188,0.2188,0.2222,0.2357,0.2793,0.3162,0.3497,0.38,0.4137,0.4307,0.4307,0.4307,0.4307,0.4307,0.4309,0.4315,-2.3845,-2.4229,-2.4562,-2.475,-2.4821,-2.4821,-2.4821,-2.4821,-2.4821,-2.4821,-2.4932,-2.5529,-2.6054,-2.6439,-2.6709,-2.5029,-2.3597,-2.2577,-2.1076,-1.9252,-1.798,-1.7787,-1.7588,-1.733,-1.7098,-1.7001,-1.7001,-1.7001,-1.7001,-1.7001,-1.7001,-1.7001,-1.7001,-1.7001,-1.7001,-1.7001,-1.7001,-1.7001,-1.7001,-1.7001,-1.7001,-1.7001,-1.7001,-1.7001,-1.7001,-1.7001,-1.7001,-1.7001,-1.7001,-1.7001,-1.7001,-1.7001,-1.7044,-1.6773,-1.5162,-1.3716,-1.3016,-1.1486,-0.9871,-0.9165,-0.9266,-0.9296,-0.9304,-0.9304,-0.9304,-0.9304,-0.9304,-0.9088,-0.8835,-0.862,-0.8403,-0.8111,-0.7786,-0.7494,-0.7206,-0.699,-0.699,-0.699,-0.699,-0.699,-0.699,-0.699,-0.6988,-0.6986,-0.698,-0.7004,-0.6977,-0.6928,-0.6864,-0.6772,-0.6418,-0.6005,-0.5235,-0.3923,-0.2387,-0.084,0.0672,0.1682,0.2188,0.2188,0.2188,0.2222,0.2357,0.2659,0.3028,0.3363,0.3733,0.4104,0.4206,0.4307,0.4307,0.4308,0.4316,0.4319,0.4327,-2.3614,-2.4212,-2.4289,-2.4502,-2.4768,-2.4821,-2.4821,-2.4821,-2.4821,-2.4821,-2.4896,-2.5249,-2.5686,-2.6042,-2.6431,-2.5276,-2.3349,-2.2664,-2.0918,-1.8848,-1.7852,-1.7626,-1.7464,-1.7233,-1.7066,-1.7001,-1.7001,-1.7001,-1.7001,-1.7001,-1.7001,-1.7001,-1.7001,-1.7001,-1.7001,-1.7001,-1.7001,-1.7001,-1.7001,-1.7001,-1.7001,-1.7001,-1.7001,-1.7001,-1.7001,-1.7001,-1.7001,-1.7001,-1.7001,-1.7001,-1.7001,-1.7001,-1.706,-1.6994,-1.5698,-1.4159,-1.3497,-1.1929,-1.0445,-0.9501,-0.9366,-0.9304,-0.9304,-0.9304,-0.9304,-0.9304,-0.9196,-0.8874,-0.862,-0.844,-0.8186,-0.7858,-0.753,-0.7278,-0.699,-0.699,-0.699,-0.699,-0.699,-0.699,-0.699,-0.699,-0.6988,-0.6988,-0.6988,-0.698,-0.698,-0.6931,-0.6916,-0.6846,-0.6739,-0.646,-0.6145,-0.4475,-0.2624,-0.1209,0.0202,0.1346,0.2188,0.2188,0.2188,0.2188,0.2357,0.2659,0.2995,0.3362,0.3699,0.407,0.4206,0.4307,0.4307,0.4309,0.4319,0.4337,0.4352]},{"header":{"parameterUnit":"m.s-1","parameterCategory":1,"la1":31.0,"la2":29.5877,"lo1":-88.7671,"lo2":-86.6584,"dy":0.0162,"dx":0.0185,"nx":115,"ny":88,"refTime":"2025-12-17T00:00:00:Z","depth":0,"parameterNumber":3,"parameterNumberName":"V-component_of_WINDS"},"data":[0.0,0.0,0.0,0.0,0.0,0.0,0.0,0.0,0.0,0.0,0.0,0.0,0.0,0.0,0.0,0.0,0.0,0.0,0.0,0.0,0.0,0.0,0.0,0.0,0.0,0.0,0.0,0.0,0.0,0.0,0.0,0.0,0.0,0.0,0.0,0.0,0.0,0.0,0.0,0.0,0.0,0.0,0.0,0.0,0.0,0.0,0.0,0.0,0.0,0.0,0.0,0.0,0.0,0.0,0.0,0.0,0.0,0.0,0.0,0.0,0.0,0.0,0.0,0.0,0.0,0.0,0.0,0.0,0.0,0.0,0.0,0.0,0.0,0.0,0.0,0.0,0.0,0.0,0.0,0.0,0.0,0.0,0.0,0.0,0.0,0.0,0.0,0.0,0.0,0.0,0.0,0.0,0.0,0.0,0.0,0.0,0.0,0.0,0.0,0.0,0.0,0.0,0.0,0.0,0.0,0.0,0.0,0.0,0.0,0.0,0.0,0.0,0.0,0.0,0.0,0.0,0.0,0.0,0.0,0.0,0.0,0.0,0.0,0.0,0.0,0.0,0.0,0.0,0.0,0.0,0.0,0.0,0.0,0.0,0.0,0.0,0.0,0.0,0.0,0.0,0.0,0.0,0.0,0.0,0.0,0.0,0.0,0.0,0.0,0.0,0.0,0.0,0.0,0.0,0.0,0.0,0.0,0.0,0.0,0.0,0.0,0.0,0.0,0.0,0.0,0.0,0.0,0.0,0.0,0.0,0.0,0.0,0.0,0.0,0.0,0.0,0.0,0.0,0.0,0.0,0.0,0.0,0.0,0.0,0.0,0.0,0.0,0.0,0.0,0.0,0.0,0.0,0.0,0.0,0.0,0.0,0.0,0.0,0.0,0.0,0.0,0.0,0.0,0.0,0.0,0.0,0.0,0.0,0.0,0.0,0.0,0.0,0.0,0.0,0.0,0.0,0.0,0.0,0.0,0.0,0.0,0.0,0.0,0.0,0.0,0.0,0.0,0.0,0.0,0.0,0.0,0.0,0.0,0.0,0.0,0.0,0.0,0.0,0.0,0.0,0.0,0.0,0.0,0.0,0.0,0.0,0.0,0.0,0.0,0.0,0.0,0.0,0.0,0.0,0.0,0.0,0.0,0.0,0.0,0.0,0.0,0.0,0.0,0.0,0.0,0.0,0.0,0.0,0.0,0.0,0.0,0.0,0.0,0.0,0.0,0.0,0.0,0.0,0.0,0.0,0.0,0.0,0.0,0.0,0.0,0.0,0.0,0.0,0.0,0.0,0.0,0.0,0.0,0.0,0.0,0.0,0.0,0.0,0.0,0.0,0.0,0.0,0.0,0.0,0.0,0.0,0.0,0.0,0.0,0.0,0.0,0.0,0.0,0.0,0.0,0.0,0.0,0.0,0.0,0.0,0.0,0.0,0.0,0.0,0.0,0.0,0.0,0.0,0.0,0.0,0.0,0.0,0.0,0.0,0.0,0.0,0.0,0.0,0.0,0.0,0.0,0.0,0.0,0.0,0.0,0.0,0.0,0.0,0.0,0.0,0.0,0.0,0.0,0.0,0.0,0.0,0.0,0.0,0.0,0.0,0.0,0.0,0.0,0.0,0.0,0.0,0.0,0.0,0.0,0.0,0.0,0.0,0.0,0.0,0.0,0.0,0.0,0.0,0.0,0.0,0.0,0.0,0.0,0.0,0.0,0.0,0.0,0.0,0.0,0.0,0.0,0.0,0.0,0.0,0.0,0.0,0.0,0.0,0.0,0.0,0.0,0.0,0.0,0.0,0.0,0.0,0.0,0.0,0.0,0.0,0.0,0.0,0.0,0.0,0.0,0.0,0.0,0.0,0.0,0.0,0.0,0.0,0.0,0.0,0.0,0.0,0.0,0.0,0.0,0.0,0.0,0.0,0.0,0.0,0.0,0.0,0.0,0.0,0.0,0.0,0.0,0.0,0.0,0.0,0.0,0.0,0.0,0.0,0.0,0.0,0.0,0.0,0.0,0.0,0.0,0.0,0.0,0.0,0.0,0.0,0.0,0.0,0.0,0.0,0.0,0.0,0.0,0.0,0.0,0.0,0.0,0.0,0.0,0.0,0.0,0.0,0.0,0.0,0.0,0.0,0.0,0.0,0.0,0.0,0.0,0.0,0.0,0.0,0.0,0.0,0.0,0.0,0.0,0.0,0.0,0.0,0.0,0.0,0.0,0.0,0.0,0.0,0.0,0.0,0.0,0.0,0.0,0.0,0.0,0.0,0.0,0.0,0.0,0.0,0.0,0.0,0.0,0.0,0.0,0.0,0.0,0.0,0.0,0.0,0.0,0.0,0.0,0.0,0.0,0.0,0.0,0.0,0.0,0.0,0.0,0.0,0.0,0.0,0.0,0.0,0.0,0.0,0.0,0.0,0.0,0.0,0.0,0.0,0.0,0.0,0.0,0.0,0.0,0.0,0.0,0.0,0.0,0.0,0.0,0.0,0.0,0.0,0.0,0.0,0.0,0.0,0.0,0.0,0.0,0.0,0.0,0.0,0.0,0.0,0.0,0.0,0.0,0.0,0.0,0.0,0.0,0.0,0.0,0.0,0.0,0.0,0.0,0.0,0.0,0.0,0.0,0.0,0.0,0.0,0.0,0.0,0.0,0.0,0.0,0.0,0.0,0.0,0.0,0.0,0.0,0.0,0.0,0.0,0.0,0.0,0.0,0.0,0.0,0.0,0.0,0.0,0.0,0.0,0.0,0.0,0.0,0.0,0.0,0.0,0.0,0.0,0.0,0.0,0.0,0.0,0.0,0.0,0.0,0.0,0.0,0.0,0.0,0.0,0.0,0.0,0.0,0.0,0.0,0.0,0.0,0.0,0.0,0.0,0.0,0.0,0.0,0.0,0.0,0.0,0.0,0.0,0.0,0.0,0.0,0.0,0.0,0.0,0.0,0.0,0.0,0.0,0.0,0.0,0.0,0.0,0.0,0.0,0.0,0.0,0.0,0.0,0.0,0.0,0.0,0.0,0.0,0.0,0.0,0.0,0.0,0.0,0.0,0.0,0.0,0.0,0.0,0.0,0.0,0.0,0.0,0.0,0.0,0.0,0.0,0.0,0.0,0.0,0.0,0.0,0.0,0.0,0.0,0.0,0.0,0.0,0.0,0.0,0.0,0.0,0.0,0.0,0.0,0.0,0.0,0.0,0.0,0.0,0.0,0.0,0.0,0.0,0.0,0.0,0.0,0.0,0.0,0.0,0.0,0.0,0.0,0.0,0.0,0.0,0.0,0.0,0.0,0.0,0.0,0.0,0.0,0.0,0.0,0.0,0.0,0.0,0.0,0.0,0.0,0.0,0.0,0.0,0.0,0.0,0.0,0.0,0.0,0.0,0.0,0.0,0.0,0.0,0.0,0.0,0.0,0.0,0.0,0.0,0.0,0.0,0.0,0.0,0.0,0.0,0.0,0.0,0.0,0.0,0.0,0.0,0.0,0.0,0.0,0.0,0.0,0.0,0.0,0.0,0.0,0.0,0.0,0.0,0.0,0.0,0.0,0.0,0.0,0.0,0.0,0.0,0.0,0.0,0.0,0.0,0.0,0.0,0.0,0.0,0.0,0.0,0.0,0.0,0.0,0.0,0.0,0.0,0.0,0.0,0.0,0.0,0.0,0.0,0.0,0.0,0.0,0.0,0.0,0.0,0.0,0.0,0.0,0.0,0.0,0.0,0.0,0.0,0.0,0.0,0.0,0.0,0.0,0.0,0.0,0.0,0.0,0.0,0.0,0.0,0.0,0.0,0.0,0.0,0.0,0.0,0.0,0.0,0.0,0.0,0.0,0.0,0.0,0.0,0.0,0.0,0.0,0.0,0.0,0.0,0.0,0.0,0.0,0.0,0.0,0.0,0.0,0.0,0.0,0.0,0.0,0.0,0.0,0.0,0.0,0.0,0.0,0.0,0.0,0.0,0.0,0.0,0.0,0.0,0.0,0.0,0.0,0.0,0.0,0.0,0.0,0.0,0.0,0.0,0.0,0.0,0.0,0.0,0.0,0.0,0.0,0.0,0.0,0.0,0.0,0.0,0.0,0.0,0.0,0.0,0.0,0.0,0.0,0.0,0.0,0.0,0.0,0.0,0.0,0.0,0.0,0.0,0.0,0.0,0.0,0.0,0.0,0.0,0.0,0.0,0.0,0.0,0.0,0.0,0.0,0.0,0.0,0.0,0.0,0.0,0.0,0.0,0.0,0.0,0.0,0.0,0.0,0.0,0.0,0.0,0.0,0.0,0.0,0.0,1.0184,0.0,0.0,0.0,0.0,0.0,0.0,0.0,0.0,0.0,0.0,0.0,0.0,0.0,0.0,0.0,0.0,0.0,0.0,0.0,0.0,0.0,0.0,0.0,0.0,0.0,0.0,0.0,0.0,0.0,0.0,0.0,0.0,0.0,0.0,0.0,0.0,0.0,0.0,0.0,0.0,0.0,0.0,0.0,0.0,0.0,0.0,0.0,0.0,0.0,0.0,0.0,0.0,0.0,0.0,0.0,0.0,0.0,0.0,0.0,0.0,0.0,0.0,0.0,0.0,0.0,0.0,0.0,0.0,0.0,0.0,0.0,0.0,0.0,0.0,0.0,0.0,0.0,0.0,0.0,0.0,0.0,0.0,0.0,0.0,0.0,0.0,0.0,0.0,0.0,0.0,0.0,0.0,0.0,0.0,0.0,0.0,0.0,0.0,0.0,0.0,0.0,0.0,0.0,0.0,0.0,0.0,0.0,0.0,0.0,0.0,1.0194,1.0185,1.0192,1.0195,1.0195,0.0,0.0,0.0,0.0,0.0,0.0,0.0,0.0,0.0,0.0,0.0,0.0,0.0,0.0,0.0,0.0,0.0,0.0,0.0,0.0,0.0,0.0,0.0,0.0,0.0,0.0,0.0,0.0,0.0,0.0,0.0,0.0,0.0,0.0,0.0,0.0,0.0,0.0,0.0,0.0,0.0,0.0,0.0,0.0,0.0,0.0,0.0,0.0,0.0,0.0,0.0,0.0,0.0,0.0,0.0,0.0,0.0,0.0,0.0,0.0,0.0,0.0,0.0,0.0,0.0,0.0,0.0,0.0,0.0,0.0,0.0,0.0,0.0,0.0,0.0,0.0,0.0,0.0,0.0,0.0,0.0,0.0,0.0,0.0,0.0,0.0,0.0,0.0,0.0,0.0,0.0,0.0,0.0,0.0,0.0,0.0,0.0,0.0,0.0,0.0,0.0,0.0,0.0,0.0,0.0,0.0,0.0,0.0,0.0,0.0,0.0,0.0,1.0799,1.0799,1.0799,0.0,0.0,0.0,0.0,0.0,0.0,0.0,0.0,0.0,0.0,0.0,0.0,0.0,0.0,0.0,0.0,0.0,0.0,0.0,0.0,0.0,0.0,0.0,0.0,0.0,0.0,0.0,0.0,0.0,0.0,0.0,0.0,0.0,0.0,0.0,0.0,0.0,0.0,0.0,0.0,0.0,0.0,0.0,0.0,0.0,0.0,0.0,0.0,0.0,0.0,0.0,0.0,0.0,0.0,0.0,0.0,0.0,0.0,0.0,0.0,0.0,0.0,0.0,0.0,0.0,0.0,0.0,0.0,0.0,0.0,0.0,0.0,0.0,0.0,0.0,0.0,0.0,0.0,0.0,0.0,0.0,0.0,0.0,0.0,0.0,0.0,0.0,0.0,0.0,0.0,0.0,0.0,0.0,0.0,0.0,0.0,0.0,0.0,0.0,0.0,0.0,0.0,0.0,0.0,0.0,0.0,0.0,0.0,0.0,0.0,1.0952,1.2514,1.2532,0.0,1.2572,0.0,0.0,0.0,0.0,0.0,0.0,0.0,0.0,0.0,0.0,0.0,0.0,0.0,0.0,0.0,0.0,0.0,0.0,0.0,0.0,0.0,0.0,0.0,0.0,0.0,0.0,0.0,0.0,0.0,0.0,0.0,0.0,0.0,0.0,0.0,0.0,0.0,0.0,0.0,0.0,0.0,0.0,0.0,0.0,0.0,0.0,0.0,0.0,0.0,0.0,0.0,0.0,0.0,0.0,0.0,0.0,0.0,0.0,0.0,0.0,0.0,0.0,0.0,0.0,0.0,0.0,0.0,0.0,0.0,0.0,0.0,0.0,0.0,0.0,0.0,0.0,0.0,0.0,0.0,0.0,0.0,0.0,0.0,0.0,0.0,0.0,0.0,0.0,0.0,0.0,0.0,0.0,0.0,0.0,0.0,0.0,0.0,0.0,0.0,0.0,0.0,0.0,0.0,0.0,0.0,0.0,0.0,0.0,0.0,0.0,1.1831,1.2028,1.2029,1.2029,0.0,0.0,0.0,0.0,0.0,0.0,0.0,0.0,0.0,0.0,0.0,0.0,0.0,0.0,0.0,0.0,0.0,0.0,0.0,0.0,0.0,0.0,0.0,0.0,0.0,0.0,0.0,0.0,0.0,0.0,0.0,0.0,0.0,0.0,0.0,0.0,0.0,0.0,0.0,0.0,0.0,0.0,0.0,0.0,0.0,0.0,0.0,0.0,0.0,0.0,0.0,0.0,0.0,0.0,0.0,0.0,0.0,0.0,0.0,0.0,0.0,0.0,0.0,0.0,0.0,0.0,0.0,0.0,0.0,0.0,0.0,0.0,0.0,0.0,0.0,0.0,0.0,0.0,0.0,0.0,0.0,0.0,0.0,0.0,0.0,0.0,0.0,0.0,0.0,0.0,0.0,0.0,0.0,0.0,0.0,0.0,0.0,0.0,0.0,0.0,0.0,0.0,0.0,0.0,0.0,0.0,0.0,0.0,0.0,0.0,1.2187,1.2348,1.2236,1.2216,1.2099,1.1864,0.0,0.0,0.0,0.0,0.0,0.0,0.0,0.0,0.0,0.0,0.0,0.0,0.0,0.0,0.0,0.0,0.0,0.0,0.0,0.0,0.0,0.0,0.0,0.0,0.0,0.0,0.0,0.0,0.0,0.0,0.0,0.0,0.0,0.0,0.0,0.0,0.0,0.0,0.0,0.0,0.0,0.0,0.0,0.0,0.0,0.0,0.0,0.0,0.0,0.0,0.0,0.0,0.0,0.0,0.0,0.0,0.0,0.0,0.0,0.0,0.0,0.0,0.0,0.0,0.0,0.0,0.0,0.0,0.0,0.0,0.0,0.0,0.0,0.0,0.0,0.0,0.0,0.0,0.0,0.0,0.0,0.0,0.0,0.0,0.0,0.0,0.0,0.0,0.0,0.0,0.0,0.0,0.0,0.0,0.0,0.0,0.0,0.0,0.0,0.0,0.0,0.0,0.0,0.0,0.0,0.0,0.0,0.0,0.0,1.2777,1.2334,1.3892,1.3989,1.3596,0.0,0.0,0.0,0.0,0.0,0.0,0.0,0.0,0.0,0.0,0.0,0.0,0.0,0.0,0.0,0.0,0.0,0.0,0.0,0.0,0.0,0.0,0.0,0.0,0.0,0.0,0.0,0.0,0.0,0.0,0.0,0.0,0.0,0.0,0.0,0.0,0.0,0.0,0.0,0.0,0.0,0.0,0.0,0.0,0.0,0.0,0.0,0.0,0.0,0.0,0.0,0.0,0.0,0.0,0.0,0.0,0.0,0.0,0.0,0.0,0.0,0.0,0.0,0.0,0.0,0.0,0.0,0.0,0.0,0.0,0.0,0.0,0.0,0.0,0.0,0.0,0.0,0.0,0.0,0.0,0.0,0.0,0.0,0.0,0.0,0.0,0.0,0.0,0.0,0.0,0.0,0.0,0.0,0.0,0.0,0.0,0.0,0.0,0.0,0.0,0.0,0.0,0.0,0.0,0.0,0.0,0.0,0.0,0.0,1.2045,1.1761,1.2646,1.4759,1.3348,1.2587,0.0,0.0,0.0,0.0,0.0,0.0,0.0,0.0,0.0,0.0,0.0,0.0,0.0,0.0,0.0,0.0,0.0,0.0,0.0,0.0,0.0,0.0,0.0,0.0,0.0,0.0,0.0,0.0,0.0,0.0,0.0,0.0,0.0,0.0,0.0,0.0,0.0,0.0,0.0,0.0,0.0,0.0,0.0,0.0,0.0,0.0,0.0,0.0,0.0,0.0,0.0,0.0,0.0,0.0,0.0,0.0,0.0,0.0,0.0,0.0,0.0,0.0,0.0,0.0,0.0,0.0,0.0,0.0,0.0,0.0,0.0,0.0,0.0,0.0,0.0,0.0,0.0,0.0,0.0,0.0,0.0,0.0,0.0,0.0,0.0,0.0,0.0,0.0,0.0,0.0,0.0,0.0,0.0,0.0,0.0,0.0,0.0,0.0,0.0,0.0,0.0,0.0,0.0,0.0,0.0,0.0,0.0,0.0,0.0,1.1108,0.0,1.3398,0.0,1.2909,1.199,0.0,0.0,0.0,0.0,0.0,0.0,0.0,0.0,0.0,0.0,0.0,0.0,0.0,0.0,0.0,0.0,0.0,0.0,0.0,0.0,0.0,0.0,0.0,0.0,0.0,0.0,0.0,0.0,0.0,0.0,0.0,0.0,0.0,0.0,0.0,0.0,0.0,0.0,0.0,0.0,0.0,0.0,0.0,0.0,0.0,0.0,0.0,0.0,0.0,0.0,0.0,0.0,0.0,0.0,0.0,0.0,0.0,0.0,0.0,0.0,0.0,0.0,0.0,0.0,0.0,0.0,0.0,0.0,0.0,0.0,0.0,0.0,0.0,0.0,0.0,0.0,0.0,0.0,0.0,0.0,0.0,0.0,0.0,0.0,0.0,0.0,0.0,0.0,0.0,0.0,0.0,0.0,0.0,0.0,0.0,0.0,0.0,0.0,0.0,0.0,0.0,0.0,0.0,0.0,0.0,0.0,0.0,0.0,1.1147,1.2734,1.4374,1.449,1.2928,1.2793,1.2012,0.0,0.0,0.0,0.0,0.0,0.0,0.0,0.0,0.0,0.0,0.0,0.0,0.0,0.0,0.0,0.0,0.0,0.0,0.0,0.0,0.0,0.0,0.0,0.0,0.0,0.0,0.0,0.0,0.0,0.0,0.0,0.0,0.0,0.0,0.0,0.0,0.0,0.0,0.0,0.0,0.0,0.0,0.0,0.0,0.0,0.0,0.0,0.0,0.0,0.0,0.0,0.0,0.0,0.0,0.0,0.0,0.0,0.0,0.0,0.0,0.0,0.0,0.0,0.0,0.0,0.0,0.0,0.0,0.0,0.0,0.0,0.0,0.0,0.0,0.0,0.0,0.0,0.0,0.0,0.0,0.0,0.0,0.0,0.0,0.0,0.0,0.0,0.0,0.0,0.0,0.0,0.0,0.0,0.0,0.0,0.0,0.0,0.0,0.0,0.0,0.0,0.0,0.0,0.0,0.0,0.0,0.0,0.0,0.0,1.2012,1.3633,1.453,1.4529,1.2871,1.2265,0.0,0.0,0.0,0.0,0.0,0.0,0.0,0.0,0.0,0.0,0.0,0.0,0.0,0.0,0.0,0.0,0.0,0.0,0.0,0.0,0.0,0.0,0.0,0.0,0.0,0.0,0.0,0.0,0.0,0.0,0.0,0.0,0.0,0.0,0.0,0.0,0.0,0.0,0.0,0.0,0.0,0.0,0.0,0.0,0.0,0.0,0.0,0.0,0.0,0.0,0.0,0.0,0.0,0.0,0.0,0.0,0.0,0.0,0.0,0.0,0.0,0.0,0.0,0.0,0.0,0.0,0.0,0.0,0.0,0.0,0.0,0.0,0.0,0.0,0.0,0.0,0.0,0.0,0.0,0.0,0.0,0.0,0.0,0.0,0.0,0.0,0.0,0.0,0.0,0.0,0.0,0.0,0.0,0.0,0.0,0.0,0.0,0.0,0.0,0.0,0.0,0.0,0.0,0.0,0.0,0.0,0.0,0.0,0.0,1.5039,1.5977,1.6484,1.6383,1.4804,1.3711,1.3163,0.0,0.0,0.0,0.0,0.0,0.0,0.0,0.0,0.0,0.0,0.0,0.0,0.0,0.0,0.0,0.0,0.0,0.0,0.0,0.0,0.0,0.0,0.0,0.0,0.0,0.0,0.0,0.0,0.0,0.0,0.0,0.0,0.0,0.0,0.0,0.0,0.0,0.0,0.0,0.0,0.0,0.0,0.0,0.0,0.0,0.0,0.0,0.0,0.0,0.0,0.0,0.0,0.0,0.0,0.0,0.0,0.0,0.0,0.0,0.0,0.0,0.0,0.0,0.0,0.0,0.0,0.0,0.0,0.0,0.0,0.0,0.0,0.0,0.0,0.0,0.0,0.0,0.0,0.0,0.0,0.0,0.0,0.0,0.0,0.0,0.0,0.0,0.0,0.0,0.0,0.0,0.0,0.0,0.0,0.0,0.0,0.0,0.0,0.0,0.0,0.0,0.0,0.0,0.0,0.0,0.0,0.0,0.0,2.0858,2.1074,2.0312,1.8531,1.8181,1.6169,0.0,0.0,0.0,0.0,0.0,0.0,0.0,0.0,0.0,0.0,0.0,0.0,0.0,0.0,0.0,0.0,0.0,0.0,0.0,0.0,0.0,0.0,0.0,0.0,0.0,0.0,0.0,0.0,0.0,0.0,0.0,0.0,0.0,0.0,0.0,0.0,0.0,0.0,0.0,0.0,0.0,0.0,0.0,0.0,0.0,0.0,0.0,0.0,0.0,0.0,0.0,0.0,0.0,0.0,0.0,0.0,0.0,0.0,0.0,0.0,0.0,0.0,0.0,0.0,0.0,0.0,0.0,0.0,0.0,0.0,0.0,0.0,0.0,0.0,0.0,0.0,0.0,0.0,0.0,0.0,0.0,0.0,0.0,0.0,0.0,0.0,0.0,0.0,0.0,0.0,0.0,0.0,0.0,0.0,0.0,0.0,0.0,0.0,0.0,0.0,0.0,0.0,0.0,0.0,0.0,0.0,0.0,0.0,0.0,2.4309,2.6816,2.6719,2.3748,2.0617,1.8135,0.0,0.0,0.0,0.0,0.0,0.0,0.0,0.0,0.0,0.0,0.0,0.0,0.0,0.0,0.0,0.0,0.0,0.0,0.0,0.0,0.0,0.0,0.0,0.0,0.0,0.0,0.0,0.0,0.0,0.0,0.0,0.0,0.0,0.0,0.0,0.0,0.0,0.0,0.0,0.0,0.0,0.0,0.0,0.0,0.0,0.0,0.0,0.0,0.0,0.0,0.0,0.0,0.0,0.0,0.0,0.0,0.0,0.0,0.0,0.0,0.0,0.0,0.0,0.0,0.0,0.0,0.0,0.0,0.0,0.0,0.0,0.0,0.0,0.0,0.0,0.0,0.0,0.0,0.0,0.0,0.0,0.0,0.0,0.0,0.0,0.0,0.0,0.0,0.0,0.0,0.0,0.0,0.0,0.0,0.0,0.0,0.0,0.0,0.0,0.0,0.0,0.0,0.0,0.0,0.0,0.0,0.0,0.0,2.3691,2.6747,3.0813,3.1848,2.954,2.4983,2.1271,0.0,0.0,0.0,0.0,0.0,0.0,0.0,0.0,0.0,0.0,0.0,0.0,0.0,0.0,0.0,0.0,0.0,0.0,0.0,0.0,0.0,0.0,0.0,0.0,0.0,0.0,0.0,0.0,0.0,0.0,0.0,0.0,0.0,0.0,0.0,0.0,0.0,0.0,0.0,0.0,0.0,0.0,0.0,0.0,0.0,0.0,0.0,0.0,0.0,0.0,0.0,0.0,0.0,0.0,0.0,0.0,0.0,0.0,0.0,0.0,0.0,0.0,0.0,0.0,0.0,0.0,0.0,0.0,0.0,0.0,0.0,0.0,0.0,0.0,0.0,0.0,0.0,0.0,0.0,0.0,0.0,0.0,0.0,0.0,0.0,0.0,0.0,0.0,0.0,0.0,0.0,0.0,0.0,0.0,0.0,0.0,0.0,0.0,0.0,0.0,0.0,0.0,0.0,0.0,0.0,0.0,0.0,0.0,2.5974,2.8683,3.3413,3.5569,3.471,2.9736,2.4677,0.0,0.0,0.0,0.0,0.0,0.0,0.0,0.0,0.0,0.0,0.0,0.0,0.0,0.0,0.0,0.0,0.0,0.0,0.0,0.0,0.0,0.0,0.0,0.0,0.0,0.0,0.0,0.0,0.0,0.0,0.0,0.0,0.0,0.0,0.0,0.0,0.0,0.0,0.0,0.0,0.0,0.0,0.0,0.0,0.0,0.0,0.0,0.0,0.0,0.0,0.0,0.0,0.0,0.0,0.0,0.0,0.0,0.0,0.0,0.0,0.0,0.0,0.0,0.0,0.0,0.0,0.0,0.0,0.0,0.0,0.0,0.0,0.0,0.0,0.0,0.0,0.0,0.0,0.0,0.0,0.0,0.0,0.0,0.0,0.0,0.0,0.0,0.0,0.0,0.0,0.0,0.0,0.0,0.0,0.0,0.0,0.0,0.0,0.0,0.0,0.0,0.0,0.0,0.0,0.0,0.0,0.0,0.0,2.8033,3.1237,3.4295,3.5813,3.563,2.9978,2.5473,0.0,0.0,0.0,0.0,0.0,0.0,0.0,0.0,0.0,0.0,0.0,0.0,0.0,0.0,0.0,0.0,0.0,0.0,0.0,0.0,0.0,0.0,0.0,0.0,0.0,0.0,0.0,0.0,0.0,0.0,0.0,0.0,0.0,0.0,0.0,0.0,0.0,0.0,0.0,0.0,0.0,0.0,0.0,0.0,0.0,0.0,0.0,0.0,1.3399,0.0,0.0,0.0,0.0,0.0,0.0,0.0,0.0,0.0,0.0,0.0,0.0,0.0,0.0,0.0,0.0,0.0,0.0,0.0,0.0,0.0,0.0,0.0,0.0,0.0,0.0,0.0,0.0,0.0,0.0,0.0,0.0,0.0,0.0,0.0,0.0,0.0,0.0,0.0,0.0,0.0,0.0,0.0,0.0,0.0,0.0,0.0,0.0,0.0,0.0,0.0,0.0,0.0,0.0,0.0,0.0,0.0,0.0,0.0,2.9048,3.2055,3.4585,3.5885,3.5735,3.16,2.7706,0.0,0.0,0.0,0.0,0.0,0.0,0.0,0.0,0.0,0.0,0.0,0.0,0.0,0.0,0.0,0.0,0.0,0.0,0.0,0.0,0.0,0.0,0.0,0.0,0.0,0.0,0.0,0.0,0.0,0.0,0.0,0.0,0.0,0.0,0.0,0.0,0.0,0.0,0.0,0.0,0.0,0.0,0.0,0.0,0.0,0.0,0.0,0.0,0.0,0.0,0.0,0.0,0.0,0.0,0.0,0.0,0.0,0.0,0.0,0.0,0.0,0.0,0.0,0.0,0.0,0.0,0.0,0.0,0.0,0.0,0.0,0.0,0.0,0.0,0.0,0.0,0.0,0.0,0.0,0.0,0.0,0.0,0.0,0.0,0.0,0.0,0.0,0.0,0.0,0.0,0.0,0.0,0.0,0.0,0.0,0.0,0.0,0.0,0.0,0.0,0.0,0.0,0.0,0.0,0.0,0.0,0.0,2.5874,2.9512,3.2619,3.4794,3.5891,3.5843,3.3492,3.0104,2.574,0.0,0.0,0.0,0.0,0.0,0.0,0.0,0.0,0.0,0.0,0.0,0.0,0.0,0.0,0.0,0.0,0.0,0.0,0.0,0.0,0.0,0.0,0.0,0.0,0.0,0.0,0.0,0.0,0.0,0.0,0.0,0.0,0.0,0.0,0.0,0.0,0.0,0.0,1.0647,1.2659,0.0,0.0,0.0,0.0,0.0,0.0,0.0,0.0,1.4671,0.0,0.0,0.0,0.0,0.0,0.0,0.0,0.0,0.0,0.0,0.0,0.0,0.0,0.0,0.0,0.0,0.0,0.0,0.0,0.0,0.0,0.0,0.0,0.0,0.0,0.0,0.0,0.0,0.0,0.0,0.0,0.0,0.0,0.0,0.0,0.0,0.0,0.0,0.0,0.0,0.0,0.0,0.0,0.0,0.0,0.0,0.0,0.0,0.0,0.0,0.0,0.0,0.0,0.0,0.0,0.0,2.6793,2.7053,2.9755,3.5111,3.5671,3.5887,3.5843,3.4012,3.064,2.5698,0.0,0.0,0.0,0.0,0.0,0.0,0.0,0.0,0.0,0.0,0.0,0.0,0.0,0.0,0.0,0.0,0.0,0.0,0.0,0.0,0.0,0.0,0.0,0.0,0.0,0.0,0.0,0.0,0.0,0.0,0.0,0.0,0.0,0.0,0.0,0.0,0.0,0.0,0.0,1.5649,1.6871,0.0,0.0,0.0,0.0,0.0,0.0,0.0,0.0,1.6748,0.0,0.0,0.0,0.0,0.0,0.0,0.0,0.0,0.0,0.0,0.0,0.0,0.0,0.0,0.0,0.0,0.0,0.0,0.0,0.0,0.0,0.0,0.0,0.0,0.0,0.0,0.0,0.0,0.0,0.0,0.0,0.0,0.0,0.0,0.0,0.0,0.0,0.0,0.0,0.0,0.0,0.0,0.0,0.0,0.0,0.0,0.0,0.0,0.0,0.0,0.0,0.0,0.0,0.0,0.0,2.6647,2.9113,3.2109,3.5733,3.5894,3.589,3.5791,3.3277,2.9883,0.0,0.0,0.0,0.0,0.0,0.0,0.0,0.0,0.0,0.0,0.0,0.0,0.0,0.0,0.0,0.0,0.0,0.0,0.0,0.0,0.0,0.0,0.0,0.0,0.0,0.0,0.0,0.0,0.0,0.0,0.0,0.0,0.0,0.0,0.0,0.0,0.0,0.0,0.0,0.0,1.7537,1.8999,2.1399,0.0,0.0,0.0,0.0,0.0,0.0,1.8917,1.7861,0.0,0.0,0.0,0.0,0.0,0.0,0.0,0.0,0.0,0.0,0.0,0.0,0.0,0.0,0.0,0.0,0.0,0.0,0.0,0.0,0.0,0.0,0.0,0.0,0.0,0.0,0.0,0.0,0.0,0.0,0.0,0.0,0.0,0.0,0.0,0.0,0.0,0.0,0.0,0.0,0.0,0.0,0.0,0.0,0.0,0.0,0.0,0.0,0.0,0.0,0.0,0.0,0.0,0.0,0.0,2.5706,3.0436,3.3864,3.5773,3.5883,3.5872,3.5741,3.2481,2.9052,0.0,0.0,0.0,0.0,0.0,0.0,0.0,0.0,0.0,0.0,0.0,0.0,0.0,0.0,0.0,0.0,0.0,0.0,0.0,0.0,0.0,0.0,0.0,0.0,0.0,0.0,0.0,0.0,0.0,0.0,0.0,0.0,0.0,0.0,0.0,0.0,0.0,0.0,0.0,0.0,0.0,2.1461,2.3883,2.1788,0.0,0.0,0.0,0.0,2.1075,2.0812,0.0,0.0,0.0,0.0,0.0,0.0,0.0,0.0,0.0,0.0,0.0,0.0,0.0,0.0,0.0,0.0,0.0,0.0,0.0,0.0,0.0,0.0,0.0,0.0,0.0,0.0,0.0,0.0,0.0,0.0,0.0,0.0,0.0,0.0,0.0,0.0,0.0,0.0,0.0,0.0,0.0,0.0,0.0,0.0,0.0,0.0,0.0,0.0,0.0,0.0,0.0,0.0,0.0,0.0,0.0,0.0,2.5603,2.927,3.2652,3.5693,3.5884,3.5868,3.5758,3.2427,2.8995,0.0,0.0,0.0,0.0,0.0,0.0,0.0,0.0,0.0,0.0,0.0,0.0,0.0,0.0,0.0,0.0,0.0,0.0,0.0,0.0,0.0,0.0,0.0,0.0,0.0,0.0,0.0,0.0,0.0,0.0,0.0,0.0,0.0,0.0,0.0,0.0,0.0,0.0,0.0,0.0,0.0,2.4659,2.511,2.2446,2.0932,0.0,0.0,2.3622,2.6045,2.7032,0.0,0.0,0.0,0.0,0.0,0.0,0.0,0.0,0.0,0.0,0.0,0.0,0.0,0.0,0.0,0.0,0.0,0.0,0.0,0.0,0.0,0.0,0.0,0.0,0.0,0.0,0.0,0.0,0.0,0.0,0.0,0.0,0.0,0.0,0.0,0.0,0.0,0.0,0.0,0.0,0.0,0.0,0.0,0.0,0.0,0.0,0.0,0.0,0.0,0.0,0.0,0.0,0.0,0.0,0.0,2.2501,2.5769,3.0982,3.4408,3.583,3.5896,3.5892,3.5855,3.1072,2.7542,0.0,0.0,0.0,0.0,0.0,0.0,0.0,0.0,0.0,0.0,0.0,0.0,0.0,0.0,0.0,0.0,0.0,0.0,0.0,0.0,0.0,0.0,0.0,0.0,0.0,0.0,0.0,0.0,0.0,0.0,0.0,0.0,0.0,0.0,0.0,0.0,0.0,0.0,0.0,0.0,0.0,0.0,2.6483,2.5142,0.0,0.0,0.0,2.6237,2.6508,0.0,0.0,0.0,0.0,0.0,0.0,0.0,0.0,0.0,0.0,0.0,0.0,0.0,0.0,0.0,0.0,0.0,0.0,0.0,0.0,0.0,0.0,0.0,0.0,0.0,0.0,0.0,0.0,0.0,0.0,0.0,0.0,0.0,0.0,0.0,0.0,0.0,0.0,0.0,0.0,0.0,0.0,0.0,0.0,0.0,0.0,0.0,0.0,0.0,0.0,0.0,0.0,0.0,0.0,0.0,0.0,0.0,2.6068,3.2518,3.5889,3.5889,3.5889,3.5894,3.5806,3.0875,0.0,0.0,0.0,0.0,0.0,0.0,0.0,0.0,0.0,0.0,0.0,0.0,0.0,0.0,0.0,0.0,0.0,0.0,0.0,0.0,0.0,0.0,0.0,0.0,0.0,0.0,0.0,0.9786,0.0,0.0,0.0,0.0,0.0,0.0,0.0,0.0,0.0,0.0,0.0,0.0,0.0,0.0,2.6198,2.7911,2.7893,2.8194,0.0,0.0,2.8719,2.8041,3.0456,3.0145,0.0,0.0,0.0,0.0,0.0,0.0,0.0,0.0,0.0,0.0,0.0,0.0,0.0,0.0,0.0,0.0,0.0,0.0,0.0,0.0,0.0,0.0,0.0,0.0,0.0,0.0,0.0,0.0,0.0,0.0,0.0,0.0,0.0,0.0,0.0,0.0,0.0,0.0,0.0,0.0,0.0,0.0,0.0,0.0,0.0,0.0,0.0,0.0,0.0,0.0,0.0,0.0,0.0,0.0,0.0,2.6925,3.2809,3.5889,3.5889,3.5889,3.5896,3.5845,3.314,2.9695,0.0,0.0,0.0,0.0,0.0,0.0,0.0,0.0,0.0,0.0,0.0,0.0,0.0,0.0,0.0,0.0,0.0,0.0,0.0,0.0,0.0,0.0,0.0,0.0,0.0,0.0,0.0,0.0,0.0,0.0,0.0,0.0,0.0,0.0,0.0,0.0,0.0,0.0,0.0,0.0,0.0,2.914,2.9357,2.9993,3.1355,0.0,0.0,3.1285,3.2924,3.4661,3.3605,2.691,0.0,0.0,0.0,0.0,0.0,0.0,0.0,0.0,0.0,0.0,0.0,0.0,0.0,0.0,0.0,0.0,0.0,0.0,0.0,0.0,0.0,0.0,0.0,0.0,0.0,0.0,0.0,0.0,0.0,0.0,0.0,0.0,0.0,0.0,0.0,0.0,0.0,0.0,0.0,0.0,0.0,0.0,0.0,0.0,0.0,0.0,0.0,0.0,0.0,0.0,0.0,0.0,0.0,2.4355,2.6925,3.2829,3.5889,3.5889,3.5889,3.5885,3.5893,3.337,3.024,0.0,0.0,0.0,0.0,0.0,0.0,0.0,0.0,0.0,0.0,0.0,0.0,0.0,0.0,0.0,0.0,0.0,0.0,0.0,0.0,0.0,0.0,0.0,0.0,0.0,0.0,0.0,0.0,1.5135,1.5112,1.338,0.0,0.0,0.0,0.0,0.0,0.0,0.0,0.0,0.0,0.0,2.9729,3.2168,3.278,0.0,0.0,3.4638,3.3857,3.3724,3.4661,3.3126,2.6539,2.4772,0.0,0.0,0.0,0.0,0.0,0.0,0.0,0.0,0.0,0.0,0.0,0.0,0.0,0.0,0.0,0.0,0.0,0.0,0.0,0.0,0.0,0.0,0.0,0.0,0.0,0.0,0.0,0.0,0.0,0.0,0.0,0.0,0.0,0.0,0.0,0.0,0.0,0.0,0.0,0.0,0.0,0.0,0.0,0.0,0.0,0.0,0.0,0.0,0.0,0.0,0.0,0.0,2.4726,2.7276,3.2966,3.5889,3.5889,3.5889,3.5889,3.583,3.387,3.129,0.0,0.0,0.0,0.0,0.0,0.0,0.0,0.0,0.0,0.0,0.0,0.0,0.0,0.0,0.0,0.0,0.0,0.0,0.0,0.0,0.0,0.0,0.0,0.0,0.0,0.0,0.0,0.0,1.6841,1.619,1.3611,0.0,0.0,0.0,0.0,0.0,0.0,0.0,0.0,0.0,0.0,3.1323,3.3848,3.4395,3.4811,3.556,3.4953,3.4166,3.3426,3.3785,3.2312,2.6971,0.0,0.0,0.0,0.0,0.0,0.0,0.0,0.0,0.0,0.0,0.0,0.0,0.0,0.0,0.0,0.0,0.0,0.0,0.0,0.0,0.0,0.0,0.0,0.0,0.0,0.0,0.0,0.0,0.0,0.0,1.1471,0.0,0.0,0.0,0.0,0.0,0.0,0.0,0.0,0.0,0.0,0.0,0.0,0.0,0.0,0.0,0.0,0.0,0.0,0.0,0.0,0.0,0.0,2.5621,2.819,3.3296,3.5928,3.5928,3.5889,3.5908,3.5869,3.5012,3.3331,3.0708,0.0,0.0,0.0,0.0,0.0,0.0,0.0,0.0,0.0,0.0,0.0,0.0,0.0,0.0,0.0,0.0,0.0,0.0,0.0,0.0,0.0,0.0,0.0,0.0,0.0,0.0,1.4101,1.3836,1.3592,0.0,0.0,0.0,0.0,0.0,0.0,0.0,0.0,0.0,0.0,3.0621,3.4482,3.3833,3.4401,3.495,3.4993,3.298,3.164,3.2402,3.2459,3.1587,0.0,0.0,0.0,0.0,0.0,0.0,0.0,0.0,0.0,0.0,0.0,0.0,0.0,0.0,0.0,0.0,0.0,0.0,0.0,0.0,0.0,0.0,0.0,0.0,0.0,0.0,0.0,1.6271,1.5008,0.0,0.0,0.0,0.0,0.0,0.0,0.0,0.0,0.0,0.0,0.0,2.8217,2.8802,0.0,0.0,0.0,0.0,0.0,0.0,0.0,0.0,0.0,0.0,0.0,0.0,2.6224,2.9944,3.4426,3.6766,3.6746,3.6766,3.6494,3.5908,3.5598,3.3724,3.0051,0.0,0.0,0.0,0.0,0.0,0.0,0.0,0.0,0.0,0.0,0.0,0.0,0.0,0.0,0.0,0.0,0.0,0.0,0.0,0.0,0.0,0.0,0.0,0.0,0.0,1.6845,0.0,0.0,0.0,0.0,0.0,0.0,0.0,0.0,0.0,0.0,0.0,2.6194,2.9484,3.1383,3.2932,3.4301,3.5216,3.595,0.0,0.0,0.0,0.0,0.0,0.0,0.0,0.0,0.0,0.0,0.0,0.0,0.0,0.0,3.024,2.35,2.344,2.412,2.3124,0.0,0.0,0.0,0.0,0.0,0.0,0.0,0.0,0.0,0.0,0.0,0.0,0.0,0.0,2.1427,0.0,1.9408,0.0,0.0,0.0,0.0,0.0,0.0,0.0,0.0,2.9543,3.1969,3.3024,3.3884,3.328,0.0,3.0781,2.7422,0.0,0.0,0.0,0.0,0.0,0.0,0.0,0.0,2.7401,3.082,3.5322,3.7642,3.7642,3.7349,3.6921,3.6377,3.6066,3.4329,3.0955,2.8122,2.5167,0.0,0.0,0.0,0.0,0.0,0.0,0.0,0.0,0.0,0.0,0.0,0.0,0.0,0.0,0.0,0.0,0.0,0.0,0.0,0.0,0.0,0.0,0.0,1.8797,0.0,0.0,0.0,0.0,0.0,0.0,0.0,0.0,0.0,2.4131,2.6649,2.9696,3.3259,3.3501,3.3728,3.4756,0.0,0.0,0.0,0.0,0.0,0.0,0.0,3.1303,3.1303,3.1379,3.1857,3.3155,3.5187,3.6462,3.5874,0.0,0.0,2.9305,2.902,2.9741,2.909,3.0721,3.1962,3.1176,3.2512,3.3701,0.0,0.0,0.0,0.0,0.0,0.0,0.0,0.0,2.7254,2.7603,0.0,2.4787,0.0,0.0,0.0,0.0,0.0,0.0,0.0,0.0,3.6481,3.8831,3.74,3.816,3.8129,3.728,3.5637,3.353,3.0839,2.6054,0.0,0.0,0.0,0.0,0.0,0.0,2.9152,3.1175,3.6025,3.8539,3.8519,3.774,3.7272,3.7155,3.6376,3.5169,3.3514,3.1787,2.9676,2.7045,2.2222,0.0,0.0,0.0,0.0,0.0,0.0,0.0,0.0,0.0,0.0,0.0,0.0,0.0,0.0,0.0,0.0,0.0,0.0,0.0,0.0,2.0789,0.0,0.0,0.0,0.0,0.0,0.0,0.0,0.0,0.0,0.0,2.7831,3.0482,3.3354,3.5765,0.0,0.0,0.0,0.0,3.5391,3.3093,3.2046,3.1671,3.172,3.2918,3.4424,3.605,0.0,0.0,4.0165,4.0089,3.9692,3.8078,4.0479,4.1289,3.7277,3.5794,3.5219,3.5027,3.5297,3.555,3.6136,3.7286,3.7888,3.6243,0.0,0.0,0.0,0.0,3.1467,3.2574,3.4169,3.4167,3.3274,3.1739,3.0807,0.0,0.0,0.0,0.0,0.0,0.0,3.3507,3.5924,3.8529,4.0413,4.1737,4.1992,4.1683,4.083,4.0339,3.9071,3.7125,3.5093,2.9869,2.1777,0.0,0.0,0.0,0.0,3.1194,3.525,3.8068,3.9433,3.9433,3.918,3.8461,3.7233,3.696,3.6319,3.521,3.4095,3.2314,2.9774,2.71,0.0,0.0,0.0,0.0,0.0,0.0,0.0,0.0,0.0,0.0,0.0,0.0,0.0,0.0,0.0,0.0,0.0,0.0,0.0,1.9776,2.1849,2.1844,0.0,0.0,0.0,0.0,0.0,0.0,0.0,0.0,0.0,3.4337,3.3913,3.3878,0.0,0.0,3.3763,3.3318,3.5518,3.7139,3.7043,0.0,0.0,0.0,3.8192,3.7887,3.9499,4.2033,4.3758,4.3512,4.4459,4.5103,4.4579,4.5312,4.5539,4.4465,4.3025,4.1865,4.1357,4.2086,4.2975,4.3243,4.3942,4.4485,4.3424,3.9021,3.7125,3.6595,3.7064,3.7413,3.854,4.015,4.015,3.9664,3.8732,3.7042,3.5138,3.3116,3.1753,0.0,0.0,0.0,3.8301,4.0973,4.2172,4.3371,4.4528,4.4915,4.4435,4.3317,4.328,4.2585,4.1214,3.9713,3.5685,2.9272,0.0,0.0,2.8279,3.113,3.409,3.7152,3.9602,4.0673,4.0319,3.9989,3.9141,3.7779,3.7701,3.7311,3.6455,3.5908,3.4776,3.2897,3.052,2.7263,0.0,0.0,0.0,0.0,0.0,0.0,0.0,0.0,0.0,0.0,0.0,1.6082,1.2866,0.0,0.0,0.0,1.9378,2.1108,2.3283,2.4271,0.0,0.0,0.0,0.0,0.0,0.0,0.0,2.9876,3.31,3.5897,3.7925,3.7722,3.7614,3.8408,3.7077,3.6163,3.651,0.0,4.018,4.0346,4.1232,4.2022,4.2455,4.1846,4.1971,4.3906,4.569,4.686,4.6929,4.7738,4.837,4.8389,4.8408,4.8408,4.8389,4.7555,4.6506,4.5445,4.6247,4.7138,4.7176,4.7839,4.8408,4.8354,4.7985,4.3501,4.1597,4.1575,4.2364,4.361,4.5084,4.5106,4.5916,4.6965,4.3141,4.1374,4.1121,3.803,0.0,0.0,4.1917,4.3474,4.5142,4.6693,4.6968,4.6252,4.7026,4.66,4.511,4.5107,4.4683,4.3803,4.142,3.9701,3.8627,3.5545,3.3468,3.263,3.5638,3.7363,3.7557,4.0648,4.1922,4.1211,4.0336,3.9492,3.8636,3.8537,3.809,3.7254,3.7116,3.6727,3.5851,3.2887,3.0353,2.8366,0.0,0.0,0.0,0.0,0.0,0.0,0.0,0.0,0.0,0.0,0.0,0.0,0.0,0.0,0.0,2.5274,0.0,2.8872,2.7695,0.0,0.0,0.0,2.6724,2.9277,3.1078,3.2774,3.4437,0.0,0.0,0.0,0.0,4.3259,4.4211,4.2709,4.1762,4.2526,4.3321,4.3839,4.3042,4.3144,4.3281,4.3752,4.4617,4.61,4.8131,4.9524,4.9789,4.9737,4.9773,4.9887,4.9975,5.0013,5.0032,5.0075,5.0019,4.964,4.8104,4.8389,4.89,4.8938,4.9545,5.0094,4.98,4.969,4.8558,4.7498,4.6645,4.694,4.7317,4.7686,4.7706,4.755,4.7218,4.6227,4.5414,4.4737,4.394,4.4268,4.5528,4.5897,4.6657,4.7706,4.8094,4.8172,4.7997,4.8211,4.8083,4.7722,4.7703,4.7263,4.638,4.5135,4.3403,4.1326,3.9887,3.7779,3.5156,3.6485,3.8206,4.015,4.0937,4.1592,4.2055,4.1234,4.0369,3.9511,3.885,3.811,3.7233,3.6571,3.6103,3.5889,3.5129,3.3316,3.0294,2.5715,0.0,0.0,0.0,0.0,0.0,0.0,0.0,0.0,0.0,2.0705,1.5038,0.0,2.2756,0.0,2.8404,3.1223,3.0964,3.1181,0.0,0.0,3.1437,3.2213,3.4778,3.7101,3.8676,3.9124,4.1473,4.3299,4.3914,4.4472,4.5638,4.7621,4.4761,4.2507,4.2895,4.4652,4.5887,4.5937,4.7216,4.8422,4.8262,4.8641,4.9042,4.9702,4.9962,5.005,5.0057,5.0038,5.0227,5.0815,5.0972,5.118,5.1656,5.1805,5.1661,5.1256,5.0915,5.0599,5.0611,5.1225,5.1767,5.1236,5.1223,5.1307,5.0495,4.9171,4.937,4.9528,4.9679,4.9663,4.9432,4.9004,4.8616,4.7978,4.7204,4.7573,4.8,4.8483,4.8871,4.9299,4.9745,4.9765,4.9551,4.9185,4.9185,4.8971,4.8599,4.858,4.8347,4.7861,4.7395,4.6232,4.4484,4.402,4.2294,3.9375,3.8664,3.8896,3.9924,4.0675,4.1464,4.2304,4.1905,4.0706,3.8714,3.8188,3.698,3.4995,3.445,3.4038,3.3668,3.3647,3.2595,3.0314,2.6905,2.379,0.0,0.0,0.0,0.0,0.0,0.0,0.0,0.0,0.0,0.0,0.0,2.6352,0.0,3.1569,0.0,3.3975,3.4392,3.5165,3.636,3.6833,3.8068,4.0638,4.2442,4.3677,4.4184,4.5656,4.6862,4.7352,4.767,4.8351,4.98,4.7858,4.6349,4.6536,4.764,4.8428,4.8538,4.9589,5.0391,5.0278,5.02,5.0316,5.0653,5.0723,5.0825,5.1161,5.1211,5.137,5.1793,5.1882,5.1849,5.1961,5.1947,5.1845,5.1425,5.1304,5.124,5.1206,5.1244,5.1282,5.2328,5.2349,5.2456,5.1675,5.0367,5.0604,5.0663,5.0592,5.0592,5.0798,5.1114,5.0579,4.9928,4.9321,5.004,5.0373,5.0448,5.1183,5.1455,5.1355,5.1358,5.0911,5.0078,5.0062,4.9671,4.8949,4.8932,4.8871,4.8758,4.8758,4.8211,4.7181,4.714,4.5916,4.3513,4.1361,3.9804,3.8871,4.0415,4.1578,4.2262,4.1935,4.027,3.7368,3.6889,3.5326,3.2445,3.2171,3.174,3.1018,3.0957,3.0725,3.014,2.7549,2.5386,0.0,2.157,0.0,0.0,0.0,0.0,0.0,0.0,0.0,0.0,2.9222,3.0997,3.2431,3.4906,3.6794,3.7657,3.7945,3.9014,4.1291,4.2258,4.3685,4.6015,4.6959,4.7753,4.8757,4.9411,4.9833,4.9907,5.0493,5.0824,5.0963,5.085,5.071,5.1051,5.0778,5.0537,5.0653,5.074,5.0827,5.0678,5.0593,5.077,5.1263,5.1283,5.1617,5.2024,5.2164,5.2272,5.2379,5.2335,5.2214,5.1624,5.1694,5.1522,5.0974,5.1348,5.1681,5.1447,5.1111,5.0455,5.1981,5.1989,5.2029,5.1903,5.1721,5.1774,5.0513,4.8414,4.8414,4.933,5.0964,5.2252,5.2789,5.2756,5.2915,5.2976,5.2992,5.3148,5.2837,5.2173,5.2173,5.1746,5.0989,5.0966,5.0872,5.0717,5.0694,5.0348,4.9651,4.9651,4.8505,4.6291,4.6232,4.5336,4.3566,0.0,0.0,0.0,4.1543,4.214,4.2208,3.9589,3.7876,3.7189,3.5207,0.0,3.3173,3.2467,3.2018,3.1867,3.1842,0.0,0.0,0.0,0.0,0.0,0.0,0.0,0.0,0.0,0.0,0.0,3.215,3.1778,3.0314,3.3525,3.5819,3.61,3.8975,4.123,4.2119,4.3454,4.4803,4.6039,4.6356,4.7192,4.8961,4.9346,4.9783,5.0651,5.0817,5.0842,5.0924,5.0962,5.1341,5.1987,5.2186,5.2551,5.3171,5.1849,5.0901,5.1,5.1362,5.1751,5.1756,5.1677,5.1345,5.1019,5.0762,5.0823,5.0893,5.0858,5.1069,5.1656,5.172,5.1942,5.229,5.2937,5.3248,5.3164,5.3247,5.3156,5.2371,5.2608,5.3177,5.3124,0.0,5.3124,5.2693,0.0,5.1994,5.0725,4.8707,4.9745,5.0788,5.1833,5.2743,5.3222,5.3304,5.255,5.2272,5.2275,5.1531,5.1396,5.1804,5.1821,5.2037,5.2426,5.2445,5.2193,5.1804,5.1804,5.1358,5.0561,5.0542,4.9651,4.7942,4.7944,4.7281,4.6074,4.6016,4.498,4.2892,4.2886,4.3102,4.3434,4.1896,3.9977,3.7871,0.0,0.0,0.0,0.0,0.0,0.0,0.0,0.0,0.0,0.0,0.0,3.2015,3.1645,3.1744,3.2581,3.3867,3.5739,3.8294,4.002,3.9523,3.616,3.8635,4.0883,4.2099,4.3786,4.511,4.599,4.6883,4.7732,4.8608,4.873,4.9255,5.0424,5.1026,5.1454,5.1881,5.2273,5.2473,5.2473,5.2475,5.2631,5.3039,5.3197,5.3403,5.3669,5.2662,5.1622,5.1199,5.1261,5.144,5.1459,5.1459,5.1552,5.1312,5.1348,5.1433,5.1639,5.1678,5.194,5.2614,5.2793,5.2933,5.3245,5.3709,5.3855,5.3434,5.3294,5.3363,5.3102,5.3148,5.3215,5.4409,5.4409,5.4409,5.362,5.2335,5.2335,5.1585,5.046,0.0,0.0,0.0,5.3073,5.3269,5.3304,5.2083,5.1586,5.1593,5.0412,5.0562,5.1768,5.1838,5.2514,5.3682,5.3708,5.3323,5.2659,5.262,5.2271,5.1649,5.1494,5.1047,5.0389,5.0195,4.9784,4.9085,4.891,4.7806,4.5747,4.4406,4.4082,4.4768,4.4259,4.2276,3.8683,3.8375,3.6894,3.4121,3.405,3.4071,3.4084,3.4083,3.4219,3.4532,3.5077,3.5503,3.5835,3.6793,3.7944,3.9327,3.9835,4.1393,4.4396,4.6528,4.618,4.2476,4.3624,4.54,4.7545,4.7861,4.8254,4.8954,4.9188,4.9577,5.0376,5.0474,5.0805,5.1682,5.2364,5.2814,5.2908,5.3415,5.3882,5.3822,5.3802,5.3978,5.4091,5.4128,5.403,5.3833,5.3104,5.2234,5.1622,5.1463,5.1226,5.1157,5.1226,5.1368,5.1726,5.1831,5.2161,5.268,5.2874,5.3135,5.351,5.3855,5.3773,5.3836,5.3938,5.3817,5.3112,5.308,5.3378,5.3891,5.3558,5.3135,5.4409,5.4409,5.4409,5.4259,5.4052,5.4033,5.3902,5.3637,5.2692,5.2336,5.2562,5.4109,5.4848,5.496,5.4752,5.4679,5.4674,5.4694,5.4474,0.0,5.4281,5.4129,5.3725,5.3718,5.3636,5.3536,5.3517,5.3458,5.3284,5.2601,5.2154,5.1982,5.1358,5.095,5.0772,5.0098,4.9535,4.9129,4.6179,4.4674,4.4742,4.1947,4.0167,3.9511,3.8155,3.7136,3.6679,3.6679,3.6672,3.6748,3.67,3.7342,3.8772,3.8337,3.8643,4.0124,4.1725,4.272,4.2993,4.5002,4.6756,4.7945,4.8431,4.8026,4.6785,4.7517,4.8225,4.8656,4.9351,4.977,4.9966,5.0607,5.1367,5.2129,5.2306,5.2638,5.3337,5.359,5.3707,5.3727,5.3806,5.3961,5.4057,5.4018,5.4323,5.4837,5.5022,5.4767,5.3972,5.3149,5.2619,5.2433,5.2381,5.2353,5.2118,5.2312,5.1974,5.1323,5.1347,5.1591,5.2049,5.2208,5.248,5.2947,5.319,5.3172,5.3192,5.3607,5.3995,5.3925,5.4365,5.4912,5.5071,5.4809,5.4678,5.4409,5.4409,5.4409,5.4409,5.4409,5.4409,5.4409,5.4342,5.3693,5.3432,5.3561,5.4356,5.4783,5.4824,5.4044,5.3728,5.3772,5.3197,5.3239,5.3802,5.4061,5.4518,5.5026,5.5063,5.4795,5.4387,5.4348,5.4119,5.3634,5.3265,5.31,5.3042,5.2261,5.1649,5.1202,5.0814,5.06,5.0542,4.8136,4.6851,4.6832,4.533,4.4296,4.383,4.2597,4.1767,4.1345,4.09,4.0912,4.1405,4.1404,4.1965,4.3178,4.3376,4.3789,4.4609,4.578,4.6464,4.6483,4.7985,4.9074,4.9496,5.0392,5.0755,5.0363,5.0251,5.041,5.0878,5.1664,5.2156,5.2156,5.2525,5.2916,5.3309,5.3366,5.3502,5.3873,5.436,5.4593,5.4651,5.5042,5.5295,5.5315,5.5313,5.5404,5.5854,5.5901,5.5404,5.4145,5.3578,5.2937,5.2117,5.1885,5.1883,5.1904,5.1902,5.1691,5.1259,5.1624,5.1925,5.2171,5.2415,5.3022,5.362,5.3777,5.3937,5.4186,5.4607,5.4836,5.4842,5.5059,5.5377,5.5371,5.5313,5.5162,5.4559,5.4409,5.4409,5.4409,5.4409,5.4409,5.4409,5.4409,5.439,5.4409,5.4409,5.4409,5.4466,5.4425,5.3301,5.2852,5.2786,5.1974,5.2309,5.3509,5.3922,5.4793,5.6001,5.6153,5.585,5.5245,5.5183,5.4838,5.4245,5.4037,5.386,5.3627,5.301,5.2363,5.1761,5.1553,5.1482,5.1365,4.9956,4.9104,4.8891,4.8699,4.8269,4.7611,4.696,4.6341,4.568,4.5065,4.5052,4.5687,4.5752,4.6052,4.6716,4.746,4.7841,4.7933,4.8622,4.9152,4.9386,5.0181,5.0661,5.0713,5.209,5.2996,5.2949,5.2559,5.2441,5.2984,5.3454,5.3844,5.3806,5.3864,5.3981,5.4176,5.4215,5.4353,5.4566,5.5111,5.5501,5.5598,5.6124,5.6496,5.6514,5.6514,5.6449,5.6434,5.6492,5.5837,5.4549,5.4196,5.3514,5.2339,5.1595,5.1359,5.13,5.1339,5.1413,5.1515,5.2115,5.2626,5.2952,5.3549,5.4084,5.4687,5.4877,5.5029,5.5518,5.5565,5.5498,5.538,5.5409,5.5396,5.5396,5.5313,5.5169,5.5039,5.4465,5.4409,5.4409,5.4409,5.4409,5.4409,5.4409,5.4409,5.4409,5.4409,5.4409,5.4417,5.4415,5.4242,5.4155,5.4177,5.4349,5.4442,5.4647,5.5234,5.5596,5.5769,5.6042,5.616,5.6036,5.6013,5.5909,5.5765,5.5129,5.44,5.3702,5.3531,5.3418,5.3286,5.2654,5.2298,5.2263,5.1417,5.0581,4.9771,4.8991,4.8541,4.8483,4.8416,4.8368,4.8226,4.8261,4.8254,4.8337,4.8306,4.8367,4.8466,4.8567,4.8641,4.875,4.9465,5.0232,5.1036,5.1873,5.2324,5.2421,5.3268,5.3856,5.3912,5.4497,5.459,5.4155,5.3983,5.4122,5.3987,5.4064,5.4433,5.5098,5.5157,5.5472,5.6073,5.6426,5.6486,5.6465,5.6502,5.6582,5.6598,5.6579,5.6555,5.65,5.6483,5.6142,5.5186,5.4933,5.4617,5.357,5.2405,5.1515,5.1456,5.132,5.1785,5.2351,5.2565,5.321,5.4094,5.4633,5.499,5.5458,5.5706,5.5775,5.5775,5.5755,5.5628,5.5544,5.5482,5.5396,5.539,5.5319,5.5202,5.4709,5.4409,5.4409,5.4409,5.4409,5.4409,5.4409,5.4409,5.4409,5.4409,5.4409,5.4409,5.4409,5.4409,5.4409,5.4409,5.4434,5.4692,5.4818,5.4843,5.5212,5.5414,5.5412,5.5539,5.5699,5.5837,5.5846,5.594,5.6015,5.5757,5.52,5.4447,5.4373,5.4121,5.3617,5.3286,5.3129,5.3171,5.2835,5.2485,5.204,5.0833,5.0134,5.0073,4.9651,4.9379,4.936,4.8917,4.8876,4.9344,4.9429,4.9646,5.015,5.0205,5.0247,5.0318,5.107,5.1918,5.2736,5.3104,5.3306,5.3325,5.4135,5.4647,5.4686,5.5487,5.5834,5.5558,5.5506,5.5531,5.5493,5.5531,5.5708,5.602,5.6079,5.6216,5.6546,5.6605,5.6605,5.6605,5.6605,5.6605,5.6604,5.656,5.6533,5.6506,5.6494,5.6174,5.5393,5.5217,5.4824,5.4057,5.3223,5.2931,5.2783,5.2818,5.3013,5.3325,5.3812,5.4526,5.4877,5.5584,5.5955,5.6209,5.6213,5.6175,5.6077,5.6013,5.5924,5.5726,5.5498,5.5396,5.5396,5.5358,5.528,5.4509,5.4332,5.4303,5.433,5.4366,5.4366,5.4364,5.439,5.4409,5.4409,5.4409,5.4409,5.4409,5.4409,5.4409,5.4409,5.4424,5.4616,5.4681,5.4727,5.4983,5.5081,5.5107,5.5173,5.5299,5.5453,5.5481,5.5633,5.5875,5.5949,5.5696,5.5254,5.5192,5.4878,5.4324,5.408,5.3962,5.3972,5.3792,5.3676,5.3466,5.2476,5.1861,5.1801,5.105,5.0681,5.0917,5.035,5.0273,5.09,5.0938,5.1228,5.183,5.1947,5.1954,5.1994,5.2554,5.3176,5.3743,5.4012,5.4158,5.4237,5.4973,5.5471,5.5575,5.6102,5.6442,5.6424,5.6503,5.6495,5.6606,5.6605,5.6605,5.6605,5.6605,5.6605,5.6605,5.6605,5.6605,5.6605,5.6605,5.6605,5.6604,5.6579,5.6535,5.6532,5.6524,5.6361,5.5756,5.5601,5.5367,5.4718,5.4624,5.4373,5.404,5.3757,5.3931,5.4336,5.4784,5.5137,5.5468,5.6171,5.6466,5.6371,5.6453,5.6446,5.6303,5.6239,5.6074,5.574,5.5526,5.5434,5.5409,5.5403,5.5358,5.4819,5.4137,5.409,5.4181,5.4289,5.4289,5.4332,5.4409,5.4409,5.4409,5.4409,5.4409,5.4409,5.4409,5.4409,5.4409,5.4417,5.4424,5.4441,5.4483,5.4696,5.4821,5.4825,5.508,5.5199,5.5212,5.5212,5.5367,5.5593,5.5628,5.573,5.5902,5.5872,5.5877,5.5676,5.5067,5.4754,5.4692,5.4126,5.3682,5.3686,5.357,5.3488,5.3504,5.2717,5.2559,5.3261,5.3439,5.342,5.3478,5.3373,5.3454,5.3551,5.3541,5.3491,5.3575,5.367,5.3755,5.3908,5.4594,5.5047,5.5135,5.5765,5.6308,5.6199,5.6328,5.6431,5.6432,5.6538,5.6559,5.6743,5.6694,5.6609,5.6605,5.6624,5.6663,5.6605,5.6702,5.6624,5.6605,5.6605,5.6605,5.6605,5.6605,5.6603,5.6603,5.6583,5.6523,5.6463,5.6445,5.6343,5.6254,5.6103,5.5794,5.4353,5.4313,5.4574,5.4903,5.5351,5.5507,5.6054,5.6485,5.6485,5.6485,5.6485,5.6479,5.6443,5.6297,5.6059,5.5793,5.5639,5.5535,5.5422,5.5403,5.5364,5.36,5.3652,5.3652,5.3898,5.4272,5.4299,5.4323,5.4409,5.4409,5.4409,5.4409,5.4409,5.4409,5.4409,5.4409,5.4409,5.4409,5.4409,5.4409,5.4426,5.4505,5.4544,5.4552,5.4642,5.4791,5.4933,5.4936,5.5087,5.533,5.5341,5.5483,5.569,5.574,5.5823,5.5913,5.5715,5.5596,5.5606,5.5316,5.5223,5.5148,5.4722,5.4678,5.5192,5.3911,5.3313,5.3604,5.3667,5.3718,5.3718,5.3721,5.3714,5.3714,5.3714,5.3964,5.4469,5.4544,5.4802,5.5316,5.5674,5.5858,5.5881,5.6146,5.641,5.6337,5.6359,5.6548,5.7019,5.7211,5.7441,5.7767,5.7207,5.6553,5.665,5.7055,5.7175,5.6839,5.7034,5.719,5.6742,5.6605,5.6605,5.6605,5.6605,5.6605,5.6605,5.6605,5.6605,5.6605,5.6605,5.6583,5.6579,5.6509,5.6302,5.581,5.5595,5.5725,5.5881,5.6115,5.6115,5.6446,5.6485,5.6485,5.6485,5.6485,5.6485,5.645,5.6355,5.61,5.5904,5.575,5.5642,5.5428,5.5447,5.5434,5.2707,5.3012,5.3033,5.3388,5.3898,5.3935,5.4091,5.4287,5.4357,5.4366,5.4366,5.44,5.4409,5.4409,5.4409,5.4409,5.4409,5.4409,5.4409,5.4409,5.4409,5.4409,5.4409,5.4409,5.4489,5.4653,5.4684,5.4814,5.5047,5.5055,5.5231,5.5466,5.5477,5.5593,5.5827,5.5856,5.5921,5.6033,5.6058,5.607,5.6056,5.5556,5.5513,5.5866,5.4975,5.4405,5.4431,5.4479,5.4493,5.4497,5.4498,5.4498,5.4508,5.454,5.4799,5.534,5.5417,5.565,5.6233,5.6567,5.6725,5.6761,5.6994,5.7107,5.7117,5.7112,5.7419,5.7848,5.8022,5.8361,5.8568,5.7937,5.7318,5.7401,5.7868,5.7982,5.7486,5.7641,5.7382,5.6785,5.6605,5.6605,5.6605,5.6605,5.6605,5.6605,5.6605,5.6605,5.6605,5.6605,5.6605,5.6604,5.6535,5.6488,5.6247,5.6143,5.6155,5.6287,5.6334,5.6448,5.6487,5.6487,5.6485,5.6485,5.6485,5.6485,5.6446,5.636,5.6207,5.6021,5.5934,5.5863,5.5682,5.5529,5.5511,5.2269,5.2322,5.2292,5.2652,5.3189,5.3249,5.3547,5.4018,5.42,5.4245,5.4298,5.4357,5.44,5.4409,5.4409,5.4409,5.4409,5.4409,5.4409,5.4409,5.4409,5.4409,5.4409,5.4409,5.4417,5.4441,5.4434,5.4544,5.4803,5.4787,5.494,5.5147,5.5193,5.5329,5.5582,5.5593,5.573,5.5912,5.5967,5.598,5.5988,5.5939,5.5943,5.6016,5.5861,5.5865,5.6056,5.604,5.5966,5.6024,5.6048,5.6159,5.6005,5.6032,5.621,5.6243,5.6308,5.6308,5.6502,5.7182,5.7589,5.767,5.8273,5.8525,5.847,5.8535,5.8623,5.8785,5.883,5.8922,5.9051,5.8999,5.8849,5.8936,5.8901,5.8952,5.8651,5.8183,5.7498,5.6792,5.6605,5.6605,5.6605,5.6605,5.6605,5.6605,5.6605,5.6605,5.6605,5.6605,5.6605,5.6604,5.6559,5.6532,5.6504,5.6473,5.6477,5.648,5.6463,5.6492,5.6492,5.6492,5.6487,5.6485,5.6485,5.6485,5.6485,5.6405,5.6342,5.6188,5.6151,5.6029,5.5854,5.5679,5.5615,5.1513,5.1806,5.1818,5.2166,5.2689,5.2722,5.3073,5.3603,5.368,5.3935,5.4245,5.4316,5.4368,5.44,5.4409,5.4409,5.4409,5.4409,5.4409,5.4409,5.4409,5.4409,5.4409,5.4409,5.4409,5.4409,5.4409,5.4441,5.4522,5.4519,5.4657,5.4876,5.4926,5.5074,5.5305,5.5323,5.546,5.5705,5.573,5.5789,5.5971,5.6003,5.6008,5.6008,5.6008,5.6025,5.6069,5.6102,5.6133,5.6172,5.6184,5.6206,5.6237,5.6228,5.6507,5.6989,5.7066,5.7377,5.79,5.8217,5.841,5.8475,5.8683,5.8794,5.8817,5.8852,5.9124,5.9574,5.9691,5.9892,6.0456,6.0621,6.0143,5.9127,5.9511,5.9374,5.8378,5.7516,5.6892,5.6674,5.6605,5.6605,5.6605,5.6605,5.6605,5.6605,5.6605,5.6605,5.6605,5.6605,5.6605,5.6604,5.658,5.6558,5.6535,5.6528,5.6518,5.6499,5.6501,5.65,5.6498,5.6492,5.6487,5.6485,5.6485,5.6485,5.6485,5.647,5.6393,5.6322,5.6201,5.6066,5.5925,5.5848,5.5793,5.107,5.1318,5.1331,5.1651,5.2149,5.219,5.2477,5.2967,5.3041,5.3387,5.3814,5.3926,5.4269,5.4654,5.478,5.4808,5.4826,5.4834,5.4682,5.4446,5.4409,5.4409,5.4409,5.4409,5.4409,5.4409,5.4409,5.4409,5.4409,5.4417,5.4489,5.4629,5.4661,5.4784,5.5007,5.5067,5.518,5.5401,5.5441,5.5528,5.5757,5.6117,5.6329,5.6396,5.6746,5.6955,5.696,5.7005,5.6867,5.6678,5.6869,5.7087,5.7087,5.7157,5.7354,5.7742,5.7916,5.8149,5.8672,5.901,5.9239,5.9266,5.9528,5.9737,5.9733,5.9744,6.0072,6.0431,6.0577,6.0814,6.126,6.1396,6.0896,6.0058,6.0382,5.9915,5.8481,5.7731,5.7128,5.685,5.655,5.6582,5.6591,5.6605,5.6605,5.6605,5.6605,5.6605,5.6605,5.6605,5.6605,5.6605,5.6604,5.6583,5.6584,5.656,5.6555,5.6539,5.6519,5.65,5.6488,5.6494,5.6485,5.6485,5.6485,5.6485,5.6485,5.6485,5.6443,5.6355,5.6294,5.626,5.6188,5.6059,5.5986,5.0904,5.0891,5.0904,5.1171,5.1556,5.1563,5.1849,5.2253,5.2397,5.2766,5.3189,5.3556,5.4192,5.5128,5.5414,5.5554,5.5581,5.5634,5.5349,5.4888,5.4747,5.4747,5.4634,5.4484,5.4409,5.4409,5.4409,5.4409,5.4409,5.4409,5.4409,5.4451,5.4458,5.4511,5.4742,5.4769,5.4912,5.5153,5.5173,5.5212,5.5294,5.6138,5.6745,5.6813,5.7656,5.82,5.8253,5.8397,5.8183,5.7602,5.8028,5.834,5.8523,5.8644,5.854,5.871,5.8777,5.885,5.9029,5.9672,6.0068,6.0111,6.0659,6.1306,6.1062,6.103,6.1075,6.117,6.1246,6.1335,6.1396,6.1396,6.1333,6.1361,6.1075,6.0344,5.916,5.8775,5.7905,5.6834,5.6504,5.6522,5.6559,5.6592,5.6605,5.6605,5.6605,5.6605,5.6605,5.6605,5.6605,5.6605,5.6605,5.6605,5.6585,5.6584,5.658,5.6553,5.6536,5.6498,5.6496,5.648,5.6487,5.6485,5.6485,5.6485,5.6485,5.6485,5.6485,5.6441,5.6439,5.6481,5.641,5.6266,5.6135,5.0891,5.0891,5.0891,5.0967,5.1083,5.1083,5.1357,5.1757,5.1818,5.237,5.3164,5.3857,5.4556,5.5333,5.6043,5.6332,5.6378,5.6405,5.6412,5.6286,5.6249,5.5836,5.5226,5.4663,5.4446,5.4465,5.4484,5.4409,5.4409,5.4409,5.4409,5.4409,5.4417,5.4451,5.4505,5.4511,5.4653,5.4861,5.4912,5.5043,5.5275,5.5575,5.5969,5.6613,5.7176,5.7752,5.8273,5.909,5.915,5.8352,5.8443,5.8587,5.8708,5.8736,5.9015,5.9499,5.9611,5.9839,6.0347,6.0663,6.0855,6.0898,6.1081,6.1314,6.131,6.1368,6.1386,6.1382,6.1393,6.1396,6.1396,6.1396,6.1396,6.1319,6.0911,6.0109,5.91,5.8312,5.7536,5.6634,5.65,5.6504,5.652,5.6566,5.6608,5.6606,5.6605,5.6605,5.6605,5.6605,5.6605,5.6605,5.6605,5.6605,5.6605,5.6605,5.6604,5.6582,5.655,5.6494,5.6493,5.6488,5.6494,5.6485,5.6485,5.6485,5.6485,5.6485,5.6485,5.6485,5.6485,5.6485,5.6485,5.6403,5.63,5.0891,5.0891,5.0891,5.0891,5.0891,5.0891,5.1043,5.1271,5.1323,5.2107,5.3247,5.3815,5.4873,5.6207,5.6788,5.7041,5.708,5.7146,5.7033,5.6806,5.6813,5.6568,5.6099,5.5592,5.5272,5.4907,5.4907,5.4701,5.4465,5.4409,5.4409,5.4409,5.4409,5.4409,5.4426,5.4417,5.4662,5.505,5.5158,5.5374,5.5871,5.6416,5.6873,5.7463,5.7915,5.8594,5.9242,6.0002,6.002,5.942,5.944,5.9648,5.9672,5.9648,5.9899,6.0402,6.0422,6.0634,6.0968,6.1141,6.1155,6.1173,6.1246,6.1275,6.1283,6.1349,6.1393,6.1352,6.1386,6.1393,6.1396,6.1396,6.1396,6.1319,6.0642,5.9782,5.896,5.8454,5.7595,5.679,5.6386,5.6454,5.6484,5.6538,5.6566,5.6592,5.6605,5.6605,5.6605,5.6605,5.6605,5.6605,5.6605,5.6605,5.6605,5.6605,5.6605,5.6603,5.6536,5.6502,5.6499,5.6492,5.6498,5.6487,5.6487,5.6485,5.6485,5.6485,5.6485,5.6485,5.6485,5.6485,5.6485,5.6485,5.6395,5.0891,5.0891,5.0891,5.0891,5.0891,5.0891,5.0931,5.0931,5.1048,5.2009,5.338,5.3732,5.5265,5.7462,5.7554,5.7706,5.7744,5.788,5.7556,5.7323,5.7256,5.7273,5.7236,5.6765,5.6296,5.5827,5.5743,5.5414,5.5085,5.4841,5.4653,5.469,5.4634,5.4484,5.4446,5.4409,5.4832,5.5411,5.5512,5.5924,5.6647,5.7397,5.787,5.8293,5.9314,5.999,6.0475,6.0866,6.0692,6.0039,6.0731,6.0886,6.0983,6.1041,6.1041,6.1002,6.0983,6.1021,6.1094,6.1099,6.1099,6.1117,6.1208,6.1257,6.1249,6.1318,6.1355,6.1329,6.1375,6.1393,6.1396,6.1396,6.1396,6.128,6.0642,5.9749,5.903,5.8739,5.8049,5.6592,5.6321,5.6364,5.6434,5.6504,5.6521,5.6591,5.6605,5.6605,5.6605,5.6605,5.6605,5.6605,5.6605,5.6605,5.6605,5.6605,5.6605,5.6604,5.6535,5.6481,5.6498,5.6494,5.6498,5.6487,5.6487,5.6485,5.6485,5.6485,5.6485,5.6485,5.6485,5.6485,5.6485,5.6485,5.6437,5.0891,5.0891,5.0891,5.0891,5.0891,5.0891,5.0891,5.0931,5.1297,5.2253,5.3584,5.4624,5.598,5.7555,5.8134,5.851,5.8525,5.8584,5.8579,5.8575,5.8643,5.869,5.84,5.7583,5.6868,5.6624,5.6605,5.6493,5.6314,5.6107,5.5986,5.5414,5.532,5.502,5.454,5.454,5.4794,5.5462,5.563,5.6146,5.6887,5.7305,5.7797,5.835,5.9517,6.0399,6.0892,6.1075,6.1002,6.0925,6.0983,6.1094,6.1094,6.1094,6.1094,6.1094,6.1094,6.1094,6.1094,6.1094,6.1094,6.1103,6.1168,6.1219,6.1214,6.1275,6.1306,6.131,6.1355,6.1389,6.1396,6.1396,6.1396,6.1241,6.0623,5.9788,5.8952,5.8276,5.7444,5.6641,5.6303,5.6328,5.6397,5.6461,5.6522,5.6579,5.6624,5.6624,5.6605,5.6605,5.6605,5.6605,5.6605,5.6605,5.6605,5.6605,5.6605,5.6605,5.6557,5.6502,5.6498,5.6482,5.6488,5.6496,5.6487,5.6485,5.6485,5.6485,5.6485,5.6485,5.6485,5.6485,5.6485,5.6485,5.6481,5.0891,5.0891,5.0891,5.0891,5.0891,5.0891,5.0891,5.0994,5.1396,5.2568,5.4084,5.515,5.6445,5.8027,5.8512,5.8748,5.8818,5.8887,5.8901,5.8945,5.9081,5.9187,5.9131,5.8446,5.7863,5.7544,5.7469,5.73,5.7,5.6906,5.6605,5.6259,5.6202,5.5752,5.5095,5.4982,5.546,5.608,5.6221,5.6774,5.7807,5.8032,5.8145,5.8658,5.9544,6.0238,6.0605,6.0834,6.0977,6.107,6.1094,6.1094,6.1094,6.1094,6.1094,6.1094,6.1094,6.1094,6.1094,6.1094,6.1094,6.1099,6.1159,6.1177,6.1219,6.1254,6.1299,6.1318,6.1318,6.1355,6.1393,6.1396,6.1396,6.1241,6.0623,5.9924,5.9322,5.8354,5.7266,5.6576,5.6314,5.6322,5.6363,5.6654,5.658,5.6695,5.6708,5.6706,5.6605,5.6605,5.6605,5.6605,5.6605,5.6605,5.6605,5.6605,5.6605,5.6604,5.6582,5.6527,5.6504,5.6491,5.65,5.6484,5.6485,5.6485,5.6485,5.6485,5.6485,5.6485,5.6485,5.6485,5.6485,5.6485,5.6485,5.0891,5.0891,5.0891,5.0891,5.0891,5.0891,5.0891,5.0972,5.1538,5.2939,5.4658,5.5388,5.684,5.8346,5.8669,5.8687,5.8737,5.8789,5.8859,5.8871,5.9051,5.9139,5.9102,5.9019,5.8802,5.8305,5.8267,5.7911,5.7544,5.7244,5.7394,5.7131,5.7075,5.6605,5.5996,5.5846,5.6221,5.6962,5.7094,5.7676,5.8764,5.8961,5.8877,5.9093,5.9564,5.9981,6.03,6.057,6.0825,6.1017,6.108,6.1094,6.1094,6.1094,6.1094,6.1094,6.1094,6.1094,6.1094,6.1094,6.1099,6.1099,6.115,6.1168,6.1186,6.1236,6.1274,6.1287,6.1291,6.1341,6.1389,6.1396,6.1396,6.1241,6.0604,6.016,5.9811,5.8703,5.7654,5.7072,5.7097,5.722,5.7124,5.7195,5.699,5.6835,5.6868,5.6904,5.6882,5.6976,5.719,5.7366,5.7542,5.723,5.7151,5.7073,5.7015,5.6839,5.6779,5.6786,5.6824,5.7223,5.7287,5.6597,5.6485,5.6505,5.6505,5.6485,5.6485,5.6485,5.6485,5.6485,5.6485,5.6485,5.6563,5.0891,5.0891,5.0891,5.0891,5.0891,5.0891,5.0891,5.1104,5.203,5.3406,5.4803,5.5969,5.7198,5.8389,5.8687,5.8687,5.8716,5.8748,5.8748,5.877,5.8934,5.9051,5.9091,5.9197,5.9159,5.914,5.9027,5.8858,5.8802,5.8877,5.837,5.7995,5.7892,5.746,5.6887,5.6737,5.7018,5.7638,5.7788,5.8324,5.8933,5.883,5.8638,5.8895,5.9437,5.9854,6.0182,6.0508,6.0727,6.0778,6.0987,6.108,6.1094,6.1094,6.1094,6.1094,6.1094,6.1094,6.1094,6.1094,6.1094,6.1099,6.1108,6.1113,6.1141,6.1188,6.1204,6.1234,6.1267,6.1337,6.1389,6.1393,6.1396,6.1183,6.0759,6.0199,5.9985,5.938,5.8719,5.8428,5.8402,5.8208,5.8006,5.7901,5.7927,5.7914,5.7988,5.8077,5.8124,5.8272,5.8479,5.8635,5.8772,5.8284,5.7797,5.7699,5.7582,5.7309,5.7248,5.732,5.7558,5.8229,5.8171,5.7463,5.6842,5.6624,5.6604,5.6524,5.6622,5.6719,5.6622,5.6544,5.6894,5.7187,5.6933,5.0891,5.0891,5.0891,5.0891,5.0891,5.0891,5.0891,5.102,5.1817,5.3155,5.4628,5.5761,5.7069,5.8307,5.8687,5.8687,5.8687,5.8687,5.8687,5.8739,5.8881,5.8982,5.8994,5.9159,5.9234,5.9272,5.929,5.929,5.929,5.9253,5.9065,5.8849,5.8718,5.8314,5.7694,5.7544,5.7723,5.8098,5.8173,5.8492,5.9196,5.884,5.8863,5.9018,5.9293,5.9662,5.9981,6.0272,6.0533,6.0702,6.0947,6.1075,6.1094,6.1094,6.1094,6.1094,6.1094,6.1094,6.1094,6.1094,6.1094,6.1094,6.1094,6.1094,6.1099,6.1141,6.1159,6.1199,6.1267,6.1326,6.1364,6.1382,6.1393,6.1335,6.0969,6.0775,6.0658,6.0309,6.0095,5.9843,5.9208,5.882,5.8683,5.8688,5.8853,5.8956,5.9073,5.918,5.9291,5.9357,5.9464,5.9416,5.9435,5.9103,5.8636,5.8499,5.8265,5.7953,5.7932,5.8004,5.8212,5.8862,5.8783,5.8268,5.7691,5.7251,5.6663,5.6585,5.678,5.7031,5.7148,5.7323,5.7674,5.781,5.7615,5.0891,5.0891,5.0891,5.0891,5.0891,5.0891,5.0891,5.1003,5.1484,5.2811,5.455,5.5393,5.6713,5.8153,5.8635,5.8687,5.8687,5.8687,5.8687,5.8737,5.8848,5.8941,5.9013,5.912,5.9215,5.9281,5.929,5.929,5.929,5.929,5.929,5.9196,5.9253,5.9046,5.8455,5.8351,5.8342,5.8342,5.8361,5.868,5.8943,5.9215,5.9196,5.914,5.9196,5.9444,5.9683,5.9973,6.0285,6.0558,6.0828,6.1046,6.1084,6.1094,6.1094,6.1094,6.1094,6.1094,6.1094,6.1094,6.1094,6.1094,6.1094,6.1094,6.1099,6.1123,6.1141,6.1191,6.1242,6.1283,6.1302,6.1348,6.1386,6.1396,6.1396,6.1377,6.1299,6.1144,6.1066,6.0619,5.9862,5.9623,5.9653,5.9775,6.001,6.004,6.0147,6.0118,6.0193,6.0092,6.0102,5.9988,5.9904,5.9767,5.9514,5.9397,5.9084,5.8674,5.885,5.9062,5.9191,5.9476,5.924,5.9081,5.8866,5.8369,5.7526,5.7013,5.7537,5.7908,5.7927,5.8063,5.8336,5.8492,5.8434,5.0891,5.0891,5.0891,5.0891,5.0891,5.0891,5.0891,5.1005,5.1583,5.2728,5.4233,5.5334,5.6584,5.791,5.8543,5.8677,5.8687,5.8687,5.8687,5.8727,5.8828,5.8921,5.9013,5.912,5.9215,5.9272,5.929,5.929,5.929,5.929,5.929,5.929,5.929,5.9196,5.9027,5.8971,5.9159,5.914,5.9121,5.8877,5.8549,5.8999,5.8896,5.8718,5.8933,5.9346,5.9453,5.9714,6.0004,6.0278,6.0582,6.0864,6.1056,6.1094,6.1094,6.1094,6.1094,6.1094,6.1094,6.1094,6.1094,6.1094,6.1094,6.1094,6.1094,6.1099,6.1113,6.1182,6.1204,6.1246,6.1279,6.1322,6.1344,6.1382,6.1396,6.1396,6.1396,6.1396,6.1396,6.1358,6.06,6.0755,6.0905,6.1039,6.1169,6.1175,6.1166,6.1082,6.0988,6.0819,6.0808,6.0713,6.0645,6.0509,6.0392,6.0274,6.004,5.9552,5.9767,6.0078,6.0132,6.0182,6.0111,5.9953,5.9798,5.962,5.9023,5.8726,5.8784,5.8784,5.8823,5.8843,5.8901,5.9057,5.9349,5.0891,5.0891,5.0891,5.0891,5.0891,5.0891,5.0891,5.0961,5.1238,5.2369,5.3922,5.4862,5.6382,5.8043,5.8635,5.8687,5.8687,5.8687,5.8687,5.8687,5.8768,5.8862,5.8983,5.9062,5.913,5.9262,5.929,5.929,5.929,5.929,5.929,5.929,5.929,5.929,5.929,5.929,5.929,5.9271,5.9253,5.9121,5.8971,5.9065,5.914,5.8793,5.914,5.9253,5.9382,5.9618,5.9831,6.0063,6.0418,6.0739,6.089,6.1002,6.1094,6.1094,6.1094,6.1094,6.1094,6.1094,6.1094,6.1094,6.1094,6.1094,6.1094,6.1099,6.1103,6.1146,6.1173,6.1221,6.1275,6.1306,6.1341,6.1382,6.1393,6.1396,6.1396,6.1396,6.1396,6.1396,6.1396,6.1396,6.1396,6.1368,6.1327,6.1317,6.1319,6.1307,6.1313,6.1298,6.1365,6.1489,6.1446,6.1368,6.125,6.1133,6.1075,6.0762,6.0782,6.0995,6.0974,6.0966,6.0816,6.0857,6.0855,6.064,6.035,5.9817,5.931,5.9466,5.9739,5.9836,5.9973,6.0382,6.0607,5.0891,5.0891,5.0891,5.0891,5.0891,5.0891,5.0891,5.0891,5.0926,5.2005,5.3694,5.495,5.6641,5.8144,5.8604,5.8687,5.8687,5.8687,5.8687,5.8687,5.8719,5.8832,5.8954,5.9014,5.9111,5.929,5.929,5.929,5.929,5.929,5.929,5.929,5.929,5.929,5.929,5.929,5.929,5.929,5.929,5.9271,5.9253,5.9253,5.929,5.9271,5.929,5.929,5.9336,5.9506,5.966,5.9918,6.0158,6.0463,6.0696,6.0874,6.1012,6.1046,6.1094,6.1094,6.1094,6.1094,6.1094,6.1094,6.1094,6.1094,6.1094,6.1094,6.1099,6.1123,6.1126,6.1191,6.1257,6.1298,6.1318,6.1344,6.1386,6.1389,6.1396,6.1396,6.1396,6.1396,6.1396,6.1396,6.1396,6.1396,6.1403,6.1394,6.1443,6.1483,6.1517,6.1539,6.1601,6.1677,6.168,6.1641,6.1621,6.1621,6.1699,6.1699,6.1699,6.1659,6.1463,6.1438,6.1388,6.1526,6.16,6.1404,6.0956,6.0328,5.9817,6.0265,6.0672,6.0928,6.1179,6.151,6.1544,5.0891,5.0891,5.0891,5.0891,5.0891,5.0891,5.0891,5.0891,5.0891,5.1833,5.3612,5.57,5.7158,5.7985,5.8489,5.8687,5.8687,5.8687,5.8687,5.8687,5.8708,5.8821,5.8934,5.9004,5.9092,5.9272,5.9309,5.929,5.929,5.929,5.929,5.929,5.929,5.929,5.929,5.929,5.929,5.929,5.929,5.929,5.929,5.929,5.929,5.929,5.929,5.929,5.929,5.9364,5.9489,5.9736,5.9918,6.0213,6.0539,6.0714,6.0855,6.1061,6.1094,6.1094,6.1094,6.1094,6.1094,6.1094,6.1094,6.1094,6.1094,6.1094,6.1094,6.1094,6.1113,6.1155,6.1219,6.1253,6.131,6.1337,6.1386,6.1393,6.1396,6.1396,6.1396,6.1396,6.1396,6.1396,6.1396,6.1396,6.1396,6.1403,6.1401,6.1448,6.1479,6.153,6.1581,6.1651,6.1689,6.1699,6.1699,6.1699,6.1699,6.1699,6.1699,6.1699,6.164,6.1692,6.1682,6.1649,6.1607,6.1586,6.1565,6.1032,6.0811,6.1257,6.1529,6.1451,6.1432,6.1529,6.1588,5.0891,5.0891,5.0891,5.0891,5.0891,5.0891,5.0891,5.0891,5.0922,5.1961,5.3784,5.6022,5.7401,5.7935,5.8428,5.8687,5.8687,5.8687,5.8687,5.8687,5.8708,5.8791,5.8884,5.8993,5.9072,5.9215,5.9281,5.929,5.929,5.929,5.929,5.929,5.929,5.929,5.929,5.929,5.929,5.929,5.929,5.929,5.929,5.929,5.929,5.929,5.929,5.929,5.929,5.929,5.9391,5.9496,5.9667,6.0004,6.0359,6.0545,6.0801,6.1051,6.108,6.1094,6.1094,6.1094,6.1094,6.1094,6.1094,6.1094,6.1094,6.1094,6.1094,6.1094,6.1099,6.1122,6.1245,6.1293,6.1326,6.1356,6.1382,6.1393,6.1396,6.1396,6.1396,6.1396,6.1396,6.1396,6.1396,6.1396,6.1396,6.1396,6.1394,6.1425,6.147,6.1497,6.1557,6.1618,6.1679,6.1701,6.1699,6.1699,6.1699,6.1699,6.1699,6.1699,6.1718,6.1707,6.1697,6.1648,6.1615,6.1592,6.1591,6.1578,6.159,6.1588,6.1588,6.1568,6.1568,6.1588,6.1588,5.0891,5.0891,5.0891,5.0891,5.0891,5.0891,5.0891,5.0891,5.0891,5.1965,5.3891,5.5902,5.7166,5.7689,5.8183,5.8574,5.8646,5.8687,5.8687,5.8687,5.8698,5.8781,5.8892,5.9002,5.9091,5.9215,5.9262,5.929,5.929,5.929,5.929,5.929,5.929,5.929,5.929,5.929,5.929,5.929,5.929,5.929,5.929,5.929,5.929,5.929,5.929,5.929,5.929,5.929,5.929,5.9372,5.9523,5.978,6.0067,6.036,6.0666,6.0882,6.1041,6.1094,6.1094,6.1094,6.1094,6.1094,6.1094,6.1094,6.1094,6.1094,6.1094,6.1094,6.1099,6.1136,6.1257,6.1289,6.1302,6.1329,6.1382,6.1396,6.1396,6.1396,6.1396,6.1396,6.1396,6.1396,6.1396,6.1396,6.1396,6.1396,6.1403,6.1425,6.1466,6.1498,6.1527,6.1582,6.1645,6.1692,6.1699,6.1699,6.1699,6.1699,6.1699,6.1699,6.1715,6.1707,6.17,6.1673,6.1639,6.1596,6.1578,6.1582,6.1592,6.1588,6.1588,6.1588,6.1588,6.1588,6.1588,5.0891,5.0891,5.0891,5.0891,5.0891,5.0891,5.0891,5.0957,5.1097,5.1911,5.3489,5.5466,5.6643,5.7179,5.7736,5.8224,5.8543,5.8646,5.8687,5.8687,5.8698,5.8803,5.8924,5.9013,5.9101,5.9244,5.929,5.929,5.929,5.929,5.929,5.929,5.929,5.929,5.929,5.929,5.929,5.929,5.929,5.929,5.929,5.929,5.929,5.929,5.929,5.929,5.929,5.929,5.929,5.9327,5.9345,5.9566,5.9852,6.0125,6.0431,6.0727,6.0968,6.1084,6.1094,6.1094,6.1094,6.1094,6.1094,6.1094,6.1094,6.1094,6.1094,6.1094,6.1099,6.1141,6.121,6.1253,6.1298,6.1322,6.1375,6.1396,6.1396,6.1396,6.1396,6.1396,6.1396,6.1396,6.1396,6.1396,6.1396,6.1396,6.1396,6.1428,6.1463,6.1503,6.1518,6.156,6.1635,6.1672,6.1699,6.1699,6.1699,6.1699,6.1699,6.1699,6.1699,6.1715,6.1689,6.1681,6.1644,6.1584,6.1584,6.1584,6.1578,6.1588,6.1588,6.1588,6.1588,6.1588,6.1588,5.0891,5.0891,5.0891,5.0891,5.0891,5.0891,5.0891,5.1097,5.194,5.273,5.3542,5.5388,5.6366,5.6783,5.7462,5.8003,5.8183,5.8635,5.8687,5.8687,5.8687,5.8781,5.8902,5.9003,5.9072,5.9206,5.9262,5.929,5.929,5.929,5.929,5.929,5.929,5.929,5.929,5.929,5.929,5.929,5.929,5.929,5.929,5.929,5.929,5.929,5.929,5.929,5.929,5.929,5.929,5.929,5.929,5.9453,5.975,6.0034,6.0326,6.0661,6.0932,6.1089,6.1094,6.1094,6.1094,6.1133,6.1171,6.1191,6.1118,6.1094,6.1094,6.1195,6.1331,6.1354,6.1206,6.1292,6.1337,6.1318,6.1348,6.1389,6.1396,6.1396,6.1396,6.1396,6.1396,6.1416,6.1416,6.1416,6.1396,6.1396,6.1396,6.1396,6.1437,6.1475,6.1512,6.1554,6.1621,6.1663,6.1699,6.1699,6.1699,6.1699,6.1699,6.1699,6.1699,6.1699,6.1697,6.1691,6.1633,6.1593,6.159,6.1589,6.1595,6.1588,6.1588,6.1588,6.1588,6.1588,6.1588,5.0891,5.0891,5.0891,5.0891,5.0891,5.0891,5.0891,5.1185,5.2502,5.3187,5.3605,5.5196,5.615,5.6524,5.7166,5.7794,5.7928,5.8439,5.8687,5.8687,5.8687,5.8801,5.8912,5.8983,5.911,5.9215,5.9262,5.929,5.929,5.929,5.929,5.929,5.929,5.929,5.929,5.929,5.929,5.929,5.929,5.929,5.929,5.929,5.929,5.929,5.929,5.929,5.929,5.929,5.929,5.929,5.9336,5.939,5.965,5.9923,6.0196,6.0501,6.0876,6.1041,6.1094,6.1539,6.1616,6.166,6.1558,6.1558,6.166,6.1988,6.2104,6.2124,6.193,6.1978,6.2014,6.2024,6.2031,6.2052,6.2144,6.2224,6.227,6.2309,6.2115,6.2037,6.1863,6.1765,6.1552,6.1416,6.1396,6.1396,6.1396,6.1396,6.1414,6.1458,6.1502,6.1548,6.1601,6.1663,6.1701,6.1699,6.1699,6.1699,6.1699,6.1699,6.1699,6.1699,6.1699,6.1696,6.1636,6.1593,6.1592,6.1593,6.1575,6.1588,6.1588,6.1588,6.1588,6.1588,6.1588,5.0891,5.0891,5.0891,5.0891,5.0891,5.0891,5.0891,5.1045,5.2484,5.3134,5.3324,5.4796,5.5723,5.6317,5.6899,5.7425,5.7928,5.8449,5.8646,5.8698,5.8737,5.8852,5.8944,5.9033,5.9149,5.9234,5.929,5.929,5.929,5.929,5.929,5.929,5.929,5.929,5.929,5.929,5.929,5.929,5.929,5.929,5.929,5.929,5.929,5.929,5.929,5.929,5.929,5.929,5.929,5.929,5.9299,5.9299,5.9417,5.9626,5.9912,6.0306,6.0839,6.1022,6.121,6.1751,6.2158,6.2196,6.2525,6.2486,6.2569,6.2897,6.3038,6.3154,6.3115,6.3318,6.3462,6.3458,6.3447,6.3507,6.3588,6.3646,6.3673,6.3556,6.3284,6.307,6.2818,6.2585,6.2115,6.1882,6.1804,6.1688,6.1649,6.1396,6.1425,6.1466,6.1504,6.1518,6.1581,6.166,6.1683,6.1701,6.1699,6.1699,6.1699,6.1699,6.1699,6.1699,6.1699,6.1693,6.1633,6.1609,6.1599,6.1582,6.1592,6.1588,6.1588,6.1588,6.1588,6.1588,6.1588,5.0891,5.0891,5.0891,5.0891,5.0891,5.0891,5.0891,5.1062,5.1944,5.2628,5.3289,5.4208,5.5263,5.6321,5.6879,5.7358,5.7905,5.8366,5.8606,5.8708,5.8779,5.8892,5.8983,5.9091,5.9178,5.9253,5.929,5.929,5.929,5.929,5.929,5.929,5.929,5.929,5.929,5.929,5.929,5.929,5.929,5.929,5.929,5.929,5.929,5.929,5.929,5.929,5.929,5.929,5.929,5.929,5.929,5.929,5.9318,5.9626,5.9977,6.0527,6.0896,6.1113,6.1249,6.1926,6.253,6.2936,6.3516,6.3729,6.3657,6.3637,6.3889,6.4024,6.4063,6.414,6.4193,6.42,6.4263,6.4321,6.4388,6.4446,6.4469,6.4391,6.41,6.3828,6.3595,6.3304,6.2837,6.2546,6.2449,6.2193,6.194,6.1668,6.147,6.1522,6.1492,6.1515,6.1558,6.1651,6.169,6.1702,6.1701,6.1699,6.1699,6.1699,6.1699,6.1699,6.1699,6.1689,6.163,6.16,6.158,6.159,6.1588,6.1588,6.1588,6.1588,6.1588,6.1588,6.1588,5.0891,5.0891,5.0891,5.0891,5.0891,5.0891,5.0891,5.1031,5.1667,5.2453,5.3254,5.3998,5.4902,5.5911,5.651,5.7053,5.7582,5.8071,5.8428,5.8737,5.8848,5.8922,5.9013,5.912,5.9215,5.9281,5.929,5.929,5.929,5.929,5.929,5.929,5.929,5.929,5.929,5.929,5.929,5.929,5.929,5.929,5.929,5.929,5.929,5.929,5.929,5.929,5.929,5.929,5.929,5.929,5.929,5.929,5.9355,5.9607,5.9954,6.0508,6.1179,6.1493,6.1858,6.2936,6.3284,6.3729,6.4599,6.4967,6.4952,6.4894,6.4914,6.4933,6.4836,6.4788,6.4788,6.4787,6.4857,6.4912,6.499,6.5048,6.5052,6.5052,6.4819,6.4508,6.4255,6.4003,6.3692,6.3401,6.3148,6.3012,6.2663,6.2212,6.1891,6.1696,6.1582,6.151,6.1564,6.1619,6.1669,6.1689,6.1701,6.1699,6.1699,6.1699,6.1699,6.1697,6.1694,6.1664,6.1628,6.1596,6.1578,6.159,6.1588,6.1588,6.1588,6.1588,6.1588,6.1588,6.1588,5.0781,5.0799,5.0869,5.0891,5.0891,5.0891,5.0891,5.0961,5.1575,5.233,5.3085,5.3857,5.4632,5.5504,5.615,5.6783,5.7352,5.787,5.8312,5.8706,5.886,5.8952,5.9023,5.913,5.9244,5.9272,5.929,5.929,5.929,5.929,5.929,5.929,5.929,5.929,5.929,5.929,5.929,5.929,5.929,5.929,5.929,5.929,5.929,5.929,5.929,5.929,5.929,5.929,5.929,5.929,5.929,5.929,5.939,5.9599,5.9927,6.0499,6.1299,6.1852,6.2534,6.3632,6.4469,6.5011,6.5702,6.5857,6.576,6.5663,6.5605,6.5605,6.5533,6.5548,6.5562,6.5614,6.5674,6.5713,6.5763,6.5817,6.5809,6.579,6.5634,6.5362,6.511,6.4857,6.4721,6.443,6.4061,6.3886,6.3459,6.2896,6.2422,6.2051,6.177,6.1599,6.154,6.158,6.1619,6.1666,6.1705,6.1699,6.1699,6.1699,6.1699,6.1694,6.167,6.1636,6.16,6.1596,6.1586,6.1578,6.1588,6.1588,6.1588,6.1588,6.1588,6.1588,6.1588,4.9973,5.0044,5.0641,5.0891,5.0891,5.0891,5.0891,5.0922,5.1049,5.161,5.2348,5.3162,5.413,5.5159,5.594,5.6683,5.754,5.7719,5.8183,5.8627,5.8892,5.8982,5.9024,5.9177,5.9253,5.9281,5.929,5.929,5.929,5.929,5.929,5.929,5.929,5.929,5.929,5.929,5.929,5.929,5.929,5.929,5.929,5.929,5.929,5.929,5.929,5.929,5.929,5.929,5.929,5.929,5.929,5.929,5.9309,5.9626,5.9923,6.0356,6.1397,6.2119,6.3002,6.4116,6.4972,6.5301,6.5687,6.6011,6.6166,6.6205,6.6205,6.6205,6.6215,6.6235,6.6288,6.6345,6.6418,6.6437,6.6473,6.6489,6.6508,6.6431,6.6373,6.6159,6.5906,6.577,6.5615,6.5378,6.5048,6.4621,6.41,6.3556,6.2993,6.2539,6.207,6.1839,6.1545,6.1545,6.1581,6.1636,6.168,6.1703,6.1699,6.1699,6.1699,6.1696,6.1692,6.1633,6.1591,6.1592,6.1593,6.1595,6.1588,6.1588,6.1588,6.1588,6.1588,6.1588,6.1588,4.9394,4.9798,5.0553,5.0891,5.0891,5.0891,5.0891,5.0891,5.0891,5.1119,5.1663,5.2706,5.3785,5.4788,5.5603,5.6564,5.7437,5.7612,5.8082,5.8566,5.8942,5.9013,5.912,5.9215,5.9253,5.929,5.929,5.929,5.929,5.929,5.929,5.929,5.929,5.929,5.929,5.929,5.929,5.929,5.929,5.929,5.929,5.929,5.929,5.929,5.929,5.929,5.929,5.929,5.929,5.929,5.929,5.929,5.9318,5.9472,6.0023,6.0823,6.1792,6.2691,6.3603,6.4546,6.5436,6.5663,6.5799,6.6185,6.6205,6.6205,6.6205,6.621,6.6245,6.6264,6.6298,6.6363,6.6407,6.6426,6.6458,6.6501,6.6508,6.647,6.6431,6.6373,6.6237,6.6217,6.6101,6.6062,6.5767,6.5611,6.5052,6.4527,6.3906,6.3148,6.262,6.2115,6.1829,6.1586,6.1545,6.1601,6.1649,6.1677,6.1699,6.1699,6.1699,6.1698,6.1693,6.1655,6.1618,6.158,6.1582,6.158,6.1588,6.1588,6.1588,6.1588,6.1588,6.1627,6.1705,4.8889,4.9745,5.043,5.0816,5.0891,5.0891,5.0891,5.0891,5.0891,5.0891,5.1119,5.2414,5.3418,5.4208,5.4989,5.6052,5.6881,5.7315,5.7905,5.8598,5.9041,5.91,5.9139,5.9215,5.9262,5.929,5.929,5.929,5.929,5.929,5.929,5.929,5.929,5.929,5.929,5.929,5.929,5.929,5.929,5.929,5.929,5.929,5.929,5.929,5.929,5.929,5.929,5.929,5.929,5.929,5.929,5.929,5.944,5.9599,6.0391,6.1236,6.2407,6.352,6.4602,6.5475,6.5934,6.6147,6.6205,6.6205,6.6205,6.6205,6.6205,6.6235,6.6269,6.6317,6.6345,6.6361,6.64,6.6414,6.6466,6.6508,6.6508,6.6508,6.6508,6.6508,6.6508,6.6508,6.6489,6.647,6.6411,6.6291,6.6039,6.5572,6.497,6.4096,6.3387,6.2721,6.2182,6.1926,6.1614,6.1576,6.1637,6.1676,6.1699,6.1699,6.1699,6.1698,6.1693,6.1681,6.1644,6.1607,6.1586,6.1582,6.1595,6.1588,6.1588,6.1607,6.1724,6.1763,6.188,4.8415,4.971,4.9868,5.0307,5.0851,5.0891,5.0891,5.0891,5.0891,5.0891,5.1115,5.1768,5.2664,5.3468,5.4191,5.5384,5.6984,5.726,5.7962,5.877,5.9081,5.9148,5.9196,5.9244,5.9272,5.929,5.929,5.929,5.929,5.929,5.929,5.929,5.929,5.929,5.929,5.929,5.929,5.929,5.929,5.929,5.929,5.929,5.929,5.929,5.929,5.929,5.929,5.929,5.929,5.929,5.929,5.929,5.9497,5.9881,6.0698,6.1637,6.2824,6.3975,6.5026,6.5782,6.6117,6.6205,6.6205,6.6205,6.6205,6.6205,6.622,6.6284,6.6317,6.634,6.6372,6.6392,6.641,6.6458,6.6508,6.6508,6.6508,6.6508,6.6508,6.6508,6.6508,6.6508,6.6489,6.6489,6.6489,6.6411,6.6411,6.5945,6.5456,6.4795,6.4119,6.3461,6.2747,6.2046,6.1643,6.159,6.1621,6.1665,6.1699,6.1699,6.1699,6.1699,6.1693,6.1681,6.1646,6.1588,6.1588,6.1584,6.1595,6.1588,6.1588,6.1627,6.1763,6.2016,6.2231]}]]